[[{"header":{"parameterUnit":"m.s-1","parameterCategory":1,"la1":30.6,"la2":29.2853,"lo1":-89.7004,"lo2":-87.6739,"dx":0.0162,"dy":0.0183,"nx":112,"ny":82,"refTime":"2022-11-05T00:00:00:Z","depth":0,"parameterNumber":2,"parameterNumberName":"U-component_of_WINDS"},"data":[0.0,0.0,0.0,0.0,0.0,0.0,0.0,0.0,0.0,0.0,0.0,0.0,0.0,0.0,0.0,0.0,0.0,0.0,0.0,0.0,0.0,0.0,0.0,0.0,0.0,0.0,0.0,0.0,0.0,0.0,0.0,0.0,0.0,0.0,0.0,0.0,0.0,0.0,0.0,0.0,0.0,0.0,0.0,0.0,0.0,0.0,0.0,0.0,0.0,0.0,0.0,0.0,0.0,0.0,0.0,0.0,0.0,0.0,0.0,0.0,0.0,0.0,0.0,0.0,0.0,0.0,0.0,0.0,0.0,0.0,0.0,0.0,0.0,0.0,0.0,0.0,0.0,0.0,0.0,0.0,0.0,0.0,0.0,0.0,0.0,0.0,0.0,0.0,0.0,0.0,2.1845,2.3461,2.449,2.5067,2.5067,2.5067,2.3853,2.0993,0.0,0.0,0.0,0.0,0.0,0.0,0.0,0.0,0.0,0.0,0.0,0.0,0.0,0.0,0.0,0.0,0.0,0.0,0.0,0.0,0.0,0.0,0.0,0.0,0.0,0.0,0.0,0.0,0.0,0.0,0.0,0.0,0.0,0.0,0.0,0.0,0.0,0.0,0.0,0.0,0.0,0.0,0.0,0.0,0.0,0.0,0.0,0.0,0.0,0.0,0.0,0.0,0.0,0.0,0.0,0.0,0.0,0.0,0.0,0.0,0.0,0.0,0.0,0.0,0.0,0.0,0.0,0.0,0.0,0.0,0.0,0.0,0.0,0.0,0.0,0.0,0.0,0.0,0.0,0.0,0.0,0.0,0.0,0.0,0.0,0.0,0.0,0.0,0.0,0.0,0.0,0.0,0.0,0.0,0.0,0.0,0.0,0.0,0.0,0.0,0.0,0.0,0.0,0.0,2.1583,2.5569,2.6147,2.6248,2.6248,2.6248,2.4865,2.1583,0.0,0.0,0.0,0.0,0.0,0.0,0.0,0.0,0.0,0.0,0.0,0.0,0.0,0.0,0.0,0.0,0.0,0.0,0.0,0.0,0.0,0.0,0.0,0.0,0.0,0.0,0.0,0.0,0.0,0.0,0.0,0.0,0.0,0.0,0.0,0.0,0.0,0.0,0.0,0.0,0.0,0.0,0.0,0.0,0.0,0.0,0.0,0.0,0.0,0.0,0.0,0.0,0.0,0.0,0.0,0.0,0.0,0.0,0.0,0.0,0.0,0.0,0.0,0.0,0.0,0.0,0.0,0.0,0.0,0.0,0.0,0.0,0.0,0.0,0.0,0.0,0.0,0.0,0.0,0.0,0.0,0.0,0.0,0.0,0.0,0.0,0.0,0.0,0.0,0.0,0.0,0.0,0.0,0.0,0.0,0.0,0.0,0.0,0.0,0.0,0.0,0.0,0.0,2.1103,2.3216,2.6172,2.6499,2.6499,2.6499,2.6499,2.5066,2.1708,2.0993,0.0,0.0,0.0,0.0,0.0,0.0,0.0,0.0,0.0,0.0,0.0,0.0,0.0,0.0,0.0,0.0,0.0,0.0,0.0,0.0,0.0,0.0,0.0,0.0,0.0,0.0,0.0,0.0,0.0,0.0,0.0,0.0,0.0,0.0,0.0,0.0,0.0,0.0,0.0,0.0,0.0,0.0,0.0,0.0,0.0,0.0,0.0,0.0,0.0,0.0,0.0,0.0,0.0,0.0,0.0,0.0,0.0,0.0,0.0,0.0,0.0,0.0,0.0,0.0,0.0,0.0,0.0,0.0,0.0,0.0,0.0,0.0,0.0,0.0,0.0,0.0,0.0,0.0,0.0,0.0,0.0,0.0,0.0,0.0,0.0,0.0,0.0,0.0,0.0,0.0,0.0,0.0,0.0,0.0,0.0,0.0,0.0,0.0,0.0,0.0,0.0,0.0,2.3853,2.5276,2.6549,2.67,2.67,2.67,2.6575,2.5066,2.1708,2.0854,0.0,0.0,0.0,0.0,0.0,0.0,0.0,0.0,0.0,0.0,0.0,0.0,0.0,0.0,0.0,0.0,0.0,0.0,0.0,0.0,0.0,0.0,0.0,0.0,0.0,0.0,0.0,0.0,0.0,0.0,0.0,0.0,0.0,0.0,0.0,0.0,0.0,0.0,0.0,0.0,0.0,0.0,0.0,0.0,0.0,0.0,0.0,0.0,0.0,0.0,0.0,0.0,0.0,0.0,0.0,0.0,0.0,0.0,0.0,0.0,0.0,0.0,0.0,0.0,0.0,0.0,0.0,0.0,0.0,0.0,0.0,0.0,0.0,0.0,0.0,0.0,0.0,0.0,0.0,0.0,0.0,0.0,0.0,0.0,0.0,0.0,0.0,0.0,0.0,0.0,0.0,0.0,0.0,0.0,0.0,0.0,0.0,0.0,0.0,0.0,0.0,0.0,2.4497,2.711,2.7236,2.7236,2.7236,2.7236,2.6801,2.5066,2.1708,2.0464,0.0,0.0,0.0,0.0,0.0,0.0,0.0,0.0,0.0,0.0,0.0,0.0,0.0,0.0,0.0,0.0,0.0,0.0,0.0,0.0,0.0,0.0,0.0,0.0,0.0,0.0,0.0,0.0,0.0,0.0,0.0,0.0,0.0,0.0,0.0,0.0,0.0,0.0,0.0,0.0,0.0,0.0,0.0,0.0,0.0,0.0,0.0,0.0,0.0,0.0,0.0,0.0,0.0,0.0,0.0,0.0,0.0,0.0,0.0,0.0,0.0,0.0,0.0,0.0,0.0,0.0,0.0,0.0,0.0,0.0,0.0,0.0,0.0,0.0,0.0,0.0,0.0,0.0,0.0,0.0,0.0,0.0,0.0,0.0,0.0,0.0,0.0,0.0,0.0,0.0,0.0,0.0,0.0,0.0,0.0,0.0,0.0,0.0,0.0,0.0,0.0,0.0,2.4371,2.6658,2.7695,2.7795,2.7795,2.7795,2.7595,2.5912,2.2221,0.0,0.0,0.0,0.0,0.0,0.0,0.0,0.0,0.0,0.0,0.0,0.0,0.0,0.0,0.0,0.0,0.0,0.0,0.0,0.0,0.0,0.0,0.0,0.0,0.0,0.0,0.0,0.0,0.0,0.0,0.0,0.0,0.0,0.0,0.0,0.0,0.0,0.0,0.0,0.0,0.0,0.0,0.0,0.0,0.0,0.0,0.0,0.0,0.0,0.0,0.0,0.0,0.0,0.0,0.0,0.0,0.0,0.0,0.0,0.0,0.0,0.0,0.0,0.0,0.0,0.0,0.0,0.0,0.0,0.0,0.0,0.0,0.0,0.0,0.0,0.0,0.0,0.0,0.0,0.0,0.0,0.0,0.0,0.0,0.0,0.0,0.0,0.0,0.0,0.0,0.0,0.0,0.0,0.0,0.0,0.0,0.0,0.0,0.0,0.0,0.0,0.0,2.2006,2.4842,2.7092,2.8229,2.8355,2.8355,2.8355,2.8197,2.6422,2.2533,0.0,0.0,0.0,0.0,0.0,0.0,0.0,0.0,0.0,0.0,0.0,0.0,0.0,0.0,0.0,0.0,0.0,0.0,0.0,0.0,0.0,0.0,0.0,0.0,0.0,0.0,0.0,0.0,0.0,0.0,0.0,0.0,0.0,0.0,0.0,0.0,0.0,0.0,0.0,0.0,0.0,0.0,0.0,0.0,0.0,0.0,0.0,0.0,0.0,0.0,0.0,0.0,0.0,0.0,0.0,0.0,0.0,0.0,0.0,0.0,0.0,0.0,0.0,0.0,0.0,0.0,0.0,0.0,0.0,0.0,0.0,0.0,0.0,0.0,0.0,0.0,0.0,0.0,0.0,0.0,0.0,0.0,0.0,0.0,0.0,0.0,0.0,0.0,0.0,0.0,0.0,0.0,0.0,0.0,0.0,0.0,0.0,0.0,0.0,0.0,0.0,0.0,2.2157,2.6171,2.8907,2.8907,2.8907,2.8907,2.8907,2.8405,2.6465,0.0,0.0,0.0,0.0,0.0,0.0,0.0,0.0,0.0,0.0,0.0,0.0,0.0,0.0,0.0,0.0,0.0,0.0,0.0,0.0,0.0,0.0,0.0,0.0,0.0,0.0,0.0,0.0,0.0,0.0,0.0,0.0,0.0,0.0,0.0,0.0,0.0,0.0,0.0,0.0,0.0,0.0,0.0,0.0,0.0,0.0,0.0,0.0,0.0,0.0,0.0,0.0,0.0,0.0,0.0,0.0,0.0,0.0,0.0,0.0,0.0,0.0,0.0,0.0,0.0,0.0,0.0,0.0,0.0,0.0,0.0,0.0,0.0,0.0,0.0,0.0,0.0,0.0,0.0,0.0,0.0,0.0,0.0,0.0,0.0,0.0,0.0,0.0,0.0,0.0,0.0,0.0,0.0,0.0,0.0,0.0,0.0,0.0,0.0,0.0,0.0,0.0,0.0,2.2734,2.6774,2.9528,2.9528,2.9528,2.9528,2.9528,2.9377,2.7469,2.3145,0.0,0.0,0.0,0.0,0.0,0.0,0.0,0.0,0.0,0.0,0.0,0.0,0.0,0.0,0.0,0.0,0.0,0.0,0.0,0.0,0.0,0.0,0.0,0.0,0.0,0.0,0.0,0.0,0.0,0.0,0.0,0.0,0.0,0.0,0.0,0.0,0.0,0.0,0.0,0.0,0.0,0.0,0.0,0.0,0.0,0.0,0.0,0.0,0.0,0.0,0.0,0.0,0.0,0.0,0.0,0.0,0.0,0.0,0.0,0.0,0.0,0.0,0.0,0.0,0.0,0.0,0.0,0.0,0.0,0.0,0.0,0.0,0.0,0.0,0.0,0.0,0.0,0.0,0.0,0.0,0.0,0.0,0.0,0.0,0.0,0.0,0.0,0.0,0.0,0.0,0.0,0.0,0.0,0.0,0.0,0.0,0.0,0.0,0.0,0.0,0.0,0.0,2.297,2.7,2.9804,2.9804,2.9804,2.9804,2.9804,2.9804,2.8273,2.4682,0.0,0.0,0.0,0.0,0.0,0.0,0.0,0.0,0.0,0.0,0.0,0.0,0.0,0.0,0.0,0.0,0.0,0.0,0.0,0.0,0.0,0.0,0.0,0.0,0.0,0.0,0.0,0.0,0.0,0.0,0.0,0.0,0.0,0.0,0.0,0.0,0.0,0.0,0.0,0.0,0.0,0.0,0.0,0.0,0.0,0.0,0.0,0.0,0.0,0.0,0.0,0.0,0.0,0.0,0.0,0.0,0.0,0.0,0.0,0.0,0.0,0.0,0.0,0.0,0.0,0.0,0.0,0.0,0.0,0.0,0.0,0.0,0.0,0.0,0.0,0.0,0.0,0.0,0.0,0.0,0.0,0.0,0.0,0.0,0.0,0.0,0.0,0.0,0.0,0.0,0.0,0.0,0.0,0.0,0.0,0.0,0.0,0.0,0.0,0.0,0.0,0.0,2.3045,2.7067,2.9804,2.9804,2.9804,2.9804,2.9804,2.9804,2.8869,2.6625,0.0,0.0,0.0,0.0,0.0,0.0,0.0,0.0,0.0,0.0,0.0,0.0,0.0,0.0,0.0,0.0,0.0,0.0,0.0,0.0,0.0,0.0,0.0,0.0,0.0,0.0,0.0,0.0,0.0,0.0,0.0,0.0,0.0,0.0,0.0,0.0,0.0,0.0,0.0,0.0,0.0,0.0,0.0,0.0,0.0,0.0,0.0,0.0,0.0,0.0,0.0,0.0,0.0,0.0,0.0,0.0,0.0,0.0,0.0,0.0,1.7903,0.0,0.0,0.0,0.0,0.0,0.0,0.0,0.0,0.0,0.0,0.0,0.0,0.0,0.0,0.0,0.0,0.0,0.0,0.0,0.0,0.0,0.0,0.0,0.0,0.0,0.0,0.0,0.0,0.0,0.0,0.0,0.0,0.0,0.0,0.0,0.0,0.0,0.0,0.0,0.0,0.0,2.3678,2.7318,2.9804,2.9804,2.9804,2.9804,2.9804,2.9804,2.8869,2.6625,2.5502,0.0,0.0,0.0,0.0,0.0,0.0,0.0,0.0,0.0,0.0,0.0,0.0,0.0,0.0,0.0,0.0,0.0,0.0,0.0,0.0,0.0,0.0,0.0,0.0,0.0,0.0,0.0,0.0,0.0,0.0,0.0,0.0,0.0,0.0,0.0,0.0,0.0,0.0,0.0,0.0,0.0,0.0,0.0,0.0,0.0,0.0,0.0,0.0,0.0,0.0,0.0,0.0,0.0,0.0,0.0,0.0,0.0,0.0,0.0,0.0,1.8844,0.0,0.0,0.0,0.0,0.0,0.0,0.0,0.0,0.0,0.0,0.0,0.0,0.0,0.0,0.0,0.0,0.0,0.0,0.0,0.0,0.0,0.0,0.0,0.0,0.0,0.0,0.0,0.0,0.0,0.0,0.0,0.0,0.0,0.0,0.0,0.0,0.0,0.0,0.0,0.0,2.4582,2.8147,3.0577,3.0577,3.0331,3.0181,3.0181,2.9955,2.9321,2.8165,2.6783,0.0,0.0,0.0,0.0,0.0,0.0,0.0,0.0,0.0,0.0,0.0,0.0,0.0,0.0,0.0,0.0,0.0,0.0,0.0,0.0,0.0,0.0,0.0,0.0,0.0,0.0,0.0,0.0,0.0,0.0,0.0,0.0,0.0,0.0,0.0,0.0,0.0,0.0,0.0,0.0,0.0,0.0,0.0,0.0,0.0,0.0,0.0,0.0,0.0,0.0,0.0,0.0,0.0,2.1608,2.2211,2.2648,2.2648,2.3417,2.4582,2.2272,2.2347,2.3904,2.0676,0.0,0.0,0.0,0.0,0.0,0.0,0.0,0.0,0.0,0.0,0.0,0.0,0.0,0.0,0.0,0.0,0.0,0.0,0.0,0.0,0.0,0.0,0.0,0.0,2.5711,2.6557,0.0,0.0,0.0,0.0,0.0,0.0,0.0,0.0,0.0,0.0,0.0,0.0,2.5937,2.9227,3.1406,3.1406,3.1009,3.0738,3.0738,3.0331,3.008,3.008,2.8366,2.6959,0.0,0.0,0.0,0.0,0.0,0.0,0.0,0.0,0.0,0.0,0.0,0.0,0.0,0.0,0.0,0.0,0.0,0.0,0.0,0.0,0.0,0.0,0.0,0.0,0.0,0.0,0.0,0.0,0.0,0.0,0.0,0.0,1.6809,1.7046,0.0,0.0,0.0,0.0,0.0,0.0,0.0,0.0,0.0,0.0,0.0,0.0,0.0,1.9862,2.1123,2.3065,2.429,2.4858,2.6389,2.7168,2.7243,2.7243,2.7344,2.7544,2.7168,0.0,2.4666,2.4139,0.0,0.0,0.0,0.0,0.0,0.0,0.0,0.0,0.0,0.0,0.0,0.0,0.0,0.0,0.0,0.0,0.0,0.0,0.0,0.0,0.0,0.0,2.8279,2.88,2.917,2.9277,0.0,2.5795,2.2769,2.2006,2.1805,0.0,0.0,0.0,0.0,0.0,0.0,0.0,2.8129,3.0181,3.1406,3.1406,3.1336,3.1286,3.1286,3.121,3.1205,3.1205,3.0929,2.9874,2.7846,2.6608,0.0,0.0,0.0,0.0,0.0,0.0,0.0,0.0,0.0,0.0,0.0,0.0,0.0,0.0,0.0,0.0,0.0,0.0,0.0,0.0,0.0,0.0,0.0,0.0,0.0,0.0,0.0,0.0,0.0,1.5929,1.7613,1.8229,1.711,1.594,0.0,0.0,0.0,0.0,0.0,0.0,0.0,0.0,0.0,2.2633,2.2949,2.3753,2.5184,2.6163,2.6766,2.7017,2.7745,2.8097,2.8097,2.8097,2.8097,2.8122,2.8405,2.8003,2.7025,2.577,2.4381,2.2949,0.0,0.0,0.0,0.0,2.173,2.1906,2.3693,2.4312,2.4186,2.3291,0.0,0.0,0.0,0.0,0.0,0.0,0.0,0.0,0.0,0.0,2.8298,2.9503,3.003,3.0256,3.0256,2.8932,2.7243,0.0,2.5109,2.4104,2.0966,0.0,0.0,0.0,0.0,2.7777,2.9609,3.1311,3.2361,3.2361,3.2039,3.1863,3.1863,3.1562,3.1406,3.1406,3.0766,3.0266,2.996,2.7662,2.5458,0.0,0.0,0.0,0.0,0.0,0.0,0.0,0.0,0.0,0.0,0.0,0.0,0.0,0.0,0.0,0.0,0.0,0.0,0.0,0.0,0.0,0.0,0.0,0.0,0.0,0.0,0.0,0.0,1.74,1.8844,1.9371,1.8982,1.799,0.0,0.0,0.0,0.0,0.0,0.0,2.2172,2.2427,2.3678,2.6163,2.6239,2.6917,2.8279,2.8304,2.8398,2.8524,2.8524,2.8524,2.8524,2.8524,2.8524,2.8574,2.8957,2.9132,2.9007,2.7344,2.6414,2.5912,2.4666,2.4014,2.3838,2.4582,2.4657,2.465,2.6658,2.7354,2.7185,2.6364,2.5963,2.5452,2.3392,0.0,0.0,0.0,0.0,2.5226,2.6927,2.7738,2.8448,2.9704,3.0407,3.0789,3.0789,3.111,3.0803,0.0,2.8341,2.7286,2.3979,0.0,0.0,0.0,2.7276,2.9684,3.124,3.239,3.3165,3.3291,3.2767,3.2441,3.2441,3.2064,3.1834,3.1834,3.0996,3.0912,3.1792,2.9227,2.7396,2.6504,0.0,0.0,0.0,0.0,0.0,0.0,0.0,0.0,0.0,0.0,0.0,0.0,0.0,0.0,0.0,0.0,0.0,0.0,0.0,0.0,0.0,0.0,0.0,0.0,0.0,0.0,0.0,0.0,0.0,2.0742,2.1482,0.0,0.0,0.0,0.0,2.1158,2.1334,2.2552,2.5242,2.5402,2.6189,2.7921,2.7971,2.8254,2.8838,2.8856,2.9157,2.9704,2.9704,2.9704,2.9704,2.9704,2.9704,2.9704,2.9729,2.9754,2.9754,2.9628,2.8668,2.7211,2.7135,2.6432,2.5611,2.6733,2.7444,2.8021,2.9202,2.9628,2.9603,2.9572,2.814,2.6424,2.6273,2.515,0.0,0.0,2.67,2.7512,2.9202,3.003,3.0457,3.0538,3.0959,3.1381,3.1381,3.1361,3.1381,0.0,3.1205,3.0633,2.8831,0.0,2.8881,2.9377,2.9628,3.0708,3.3395,3.3366,3.3291,3.3796,3.3391,3.3065,3.3065,3.304,3.3014,3.3014,3.2972,3.295,3.3014,3.2298,3.0376,2.7109,2.6434,0.0,0.0,0.0,0.0,0.0,0.0,0.0,0.0,0.0,0.0,0.0,0.0,0.0,0.0,0.0,0.0,0.0,0.0,0.0,0.0,0.0,0.0,0.0,0.0,0.0,0.0,0.0,0.0,2.182,2.2383,0.0,2.1504,2.2383,2.3311,2.4079,2.5134,2.6339,2.7652,2.7727,2.8197,2.9151,2.9202,2.9277,2.9478,2.9478,2.9578,2.9804,2.9804,2.9804,2.9804,2.9804,2.9804,2.9804,2.9804,2.9804,2.9804,2.9804,2.9453,2.8919,2.8919,2.8649,2.8348,2.8768,2.9026,2.9252,2.9654,2.9804,2.9804,2.9804,2.9271,2.8618,2.8618,2.8448,2.8355,2.8976,2.9503,3.0075,3.0658,3.0959,3.111,3.111,3.1512,3.1913,3.1913,3.2491,3.2993,3.2993,3.2416,3.1512,3.0211,3.1165,3.1838,3.0959,3.2039,3.3298,3.4276,3.4248,3.4198,3.4377,3.4226,3.4148,3.4148,3.4148,3.4148,3.4148,3.2588,3.2039,3.2817,3.0767,2.9055,2.7827,2.7369,2.4799,0.0,0.0,0.0,0.0,0.0,0.0,0.0,0.0,0.0,0.0,0.0,0.0,0.0,0.0,0.0,0.0,0.0,0.0,0.0,0.0,0.0,0.0,0.0,0.0,0.0,2.1343,2.3211,2.2633,2.3738,2.4214,2.3502,2.4917,2.6146,2.6666,2.7727,2.8605,2.9157,2.9208,2.9402,2.9779,2.9804,2.9804,2.9804,2.9804,2.9804,2.9804,2.9804,2.9804,2.9804,2.9804,2.9804,2.9804,2.9804,2.9804,2.9804,2.9804,2.9804,2.9804,2.9804,2.9804,2.9804,2.9804,2.9804,2.9804,2.9804,2.9804,2.9829,3.0005,3.008,3.0105,3.0281,3.0583,3.0884,3.0884,3.1135,3.1406,3.1406,3.1537,3.1662,3.1662,3.224,3.2767,3.2767,3.352,3.4173,3.4173,3.3549,3.2821,3.2093,3.3197,3.3746,3.2441,3.3671,3.4703,3.4703,3.4703,3.4778,3.4954,3.4803,3.4703,3.4703,3.4352,3.4301,3.4678,3.2321,3.1483,3.2652,2.9926,2.8192,2.7765,2.7114,2.5009,2.1454,0.0,0.0,0.0,0.0,0.0,0.0,0.0,0.0,0.0,0.0,0.0,0.0,0.0,0.0,0.0,0.0,0.0,0.0,0.0,0.0,0.0,0.0,0.0,2.0918,2.2688,2.3904,2.3296,2.5661,2.6909,2.5812,2.7168,2.8355,2.8907,2.8932,2.9183,2.9754,2.9804,2.9804,2.9804,2.9804,2.9804,2.9804,2.9804,2.9804,2.9804,2.9804,2.9804,2.9849,2.9829,2.9854,2.9854,2.9854,2.9854,2.9854,2.9854,2.9854,2.9854,2.9804,2.9804,2.9804,2.9804,2.9849,2.9854,2.9854,2.9854,2.993,3.0457,3.0613,3.0713,3.1235,3.1432,3.1411,3.1411,3.1436,3.1482,3.1461,3.1863,3.2244,3.2269,3.3119,3.3922,3.3922,3.4327,3.4728,3.4728,3.4753,3.4753,3.4728,3.4728,3.4552,3.4048,3.4424,0.0,3.4753,3.4753,3.4954,3.5408,3.5029,3.4703,3.4703,3.3746,3.3596,3.4633,3.2385,3.152,3.2582,3.0148,2.8183,2.6926,2.5698,2.4713,2.3927,0.0,0.0,0.0,0.0,0.0,0.0,0.0,0.0,0.0,0.0,0.0,0.0,0.0,0.0,0.0,0.0,0.0,0.0,0.0,0.0,0.0,2.1053,2.2769,2.2483,2.4732,2.6331,2.6163,2.7168,2.7921,2.7978,2.8405,2.8907,2.9503,2.9553,2.9628,2.9779,2.9804,2.9804,2.9804,2.9804,2.9804,2.9804,2.9804,2.9804,2.9804,3.0206,3.0362,3.0387,3.0783,3.0959,3.0959,3.0959,3.0959,3.0959,3.0959,3.0959,3.0884,3.0105,3.003,3.0362,3.0362,3.0633,3.0959,3.0959,3.0959,3.0984,3.1135,3.1185,3.121,3.1381,3.1662,3.1989,3.1989,3.229,3.2713,3.3093,3.3319,3.3545,3.3925,3.4251,3.4477,3.4477,3.4904,3.5282,3.5282,3.5629,3.578,3.5355,3.5282,3.538,3.5678,3.5828,0.0,3.5929,3.5929,3.5655,3.5004,3.4803,3.4703,3.4703,3.4427,3.4318,3.4485,3.2879,3.1636,3.1001,2.9078,2.7683,2.6988,2.5555,2.471,0.0,0.0,0.0,0.0,0.0,0.0,0.0,0.0,0.0,0.0,0.0,0.0,0.0,0.0,0.0,0.0,0.0,0.0,0.0,0.0,0.0,0.0,2.3427,2.4942,2.5168,2.6414,2.7462,2.7921,2.8247,2.8656,2.9208,2.9283,2.9428,2.9754,2.9804,2.9804,2.9804,2.9804,2.9804,2.9804,2.9804,2.9905,3.0131,3.0131,3.0256,3.0457,3.0783,3.0934,3.0959,3.126,3.1406,3.1406,3.1406,3.1406,3.1406,3.1406,3.1406,0.0,0.0,0.0,0.0,0.0,3.1135,3.1406,3.1406,3.1406,3.1436,3.1662,3.1738,3.1788,3.2035,3.2491,3.2918,3.2918,3.3319,3.3847,3.4148,3.4248,3.4301,3.4628,3.4879,3.5054,3.5054,3.5656,3.6208,3.6208,3.6684,0.0,3.661,3.6359,3.6332,3.6683,3.6934,3.6984,3.6758,3.6934,3.6833,3.6133,3.6083,3.6083,3.6083,3.568,0.0,0.0,0.0,3.1353,2.93,2.8244,0.0,0.0,0.0,0.0,0.0,0.0,0.0,0.0,2.3334,2.2985,0.0,0.0,0.0,0.0,0.0,0.0,0.0,0.0,0.0,0.0,0.0,0.0,0.0,0.0,0.0,0.0,2.5937,2.7587,2.8104,2.777,2.7821,2.8806,2.8957,2.9208,2.9754,2.9804,2.9804,2.9804,2.9804,2.9804,2.9804,2.9804,0.0,0.0,0.0,3.0156,3.0688,3.0688,3.0934,3.1406,3.1461,3.1486,3.1486,3.1557,3.1587,3.1587,3.1587,3.1587,3.1587,3.1587,3.1587,3.1562,3.1532,3.1486,3.1486,3.1582,3.1587,3.1587,3.1587,0.0,0.0,3.224,3.242,3.257,3.3119,3.3596,3.3997,3.3997,3.4327,3.4703,3.4778,3.4803,3.4803,3.4879,3.5305,3.5683,3.5683,3.651,3.7311,3.7311,3.7663,3.8015,3.809,3.7638,3.7311,3.7311,3.7688,3.7839,3.7337,3.7713,3.7965,3.7839,0.0,0.0,3.7814,3.6959,3.6739,3.7494,3.3975,3.07,2.8022,2.7897,2.7897,2.7897,2.7897,2.8464,2.9598,2.9598,2.9598,2.95,2.5273,2.4313,0.0,0.0,0.0,0.0,0.0,0.0,0.0,0.0,0.0,0.0,0.0,0.0,0.0,0.0,0.0,2.449,2.6498,2.8147,2.8681,2.8656,2.8681,2.8881,2.9333,2.9679,2.9779,2.9804,2.9804,2.9804,2.9804,2.9804,2.9804,2.9804,3.0005,3.0412,3.0437,3.0708,3.1235,3.1235,3.1306,3.1432,0.0,0.0,3.2064,3.2562,3.2763,3.2763,3.2763,3.2763,3.2763,3.2763,3.2763,3.2713,3.224,3.2064,3.2114,3.2587,3.2763,3.2763,3.2763,3.3043,3.342,3.3545,3.385,3.4226,3.4374,3.4452,0.0,3.4552,3.4628,3.4803,3.5232,3.5332,3.5481,3.5954,3.6482,3.686,3.686,3.7387,3.7839,3.7839,3.7939,3.814,3.8642,3.8241,3.7839,3.7839,3.7939,3.7965,3.7864,3.7939,3.7663,3.6808,3.6708,3.6708,3.6708,3.6531,3.5892,3.4682,3.1794,2.9836,2.9254,2.9227,2.9227,2.9227,2.9227,2.9344,2.9598,2.9598,2.9598,2.9579,2.866,2.8464,0.0,0.0,0.0,0.0,0.0,0.0,0.0,0.0,0.0,0.0,0.0,2.0752,2.2447,0.0,2.5259,2.6623,2.7777,2.8706,2.9258,2.9333,2.9333,2.9333,2.9628,2.9804,2.9804,2.9804,2.9804,2.9804,2.9804,2.9905,3.0181,3.0206,3.0457,3.0984,3.1009,3.126,3.1788,3.1813,3.1938,3.2261,3.2516,3.2641,3.2641,3.2964,3.309,3.309,3.309,3.3266,3.352,3.3796,3.3897,3.3872,3.3549,3.3273,3.3119,3.3696,3.3897,3.3897,3.3897,3.4073,3.4276,3.4276,3.4477,3.4703,3.4703,3.4904,3.5104,3.5104,3.5305,3.568,3.6208,3.6334,3.6508,3.7085,3.7387,3.7588,3.7588,3.804,3.8442,3.8442,3.8668,3.8944,3.9245,3.9044,3.8843,3.8843,3.8843,3.8843,3.8843,3.8843,3.8642,3.8115,3.8039,3.8039,3.8039,3.7369,3.5941,3.3606,3.2135,3.0999,3.0291,3.0263,3.0263,3.0263,3.0263,3.0263,3.0263,3.0263,3.0263,3.0263,3.0263,3.0098,0.0,0.0,0.0,0.0,0.0,0.0,0.0,1.838,1.917,2.1496,2.2326,2.3201,2.5093,2.587,2.6816,2.8605,2.9007,2.9233,2.9729,2.9804,2.9804,2.9804,2.9804,2.9804,2.9804,2.9804,2.9829,2.9955,2.9955,3.0181,3.0733,3.0758,3.1009,3.1537,3.1557,3.1813,3.2365,3.2365,3.2616,3.309,3.309,3.3165,3.3266,3.3266,3.3316,3.3416,3.3416,3.3646,3.4098,3.4527,3.4703,3.4703,3.4803,3.4577,3.4248,3.4577,3.4703,3.4703,3.4703,3.4778,3.4853,3.4853,3.4929,3.5052,3.5052,3.5406,3.5832,3.5832,3.6257,3.6808,3.7261,3.7361,3.7462,3.7889,3.809,3.8165,3.8165,3.8642,3.9044,3.9044,3.9396,3.9697,3.9697,3.9697,3.9697,3.9697,3.9697,3.9697,3.9697,3.9697,3.9697,3.9697,3.9697,3.9697,3.9697,3.8348,3.6514,3.4125,3.3417,3.2558,3.1383,3.1054,3.0898,3.0898,3.0898,3.0898,3.0898,3.0898,3.0898,3.0898,3.0898,3.0684,1.8078,1.7138,1.6837,1.8205,1.8632,1.9735,0.0,2.3487,2.3236,2.6005,2.6608,2.6884,2.7595,2.8179,2.8605,2.8856,2.9333,2.9704,2.9779,2.9804,2.9804,2.9804,2.9804,2.9804,2.9804,2.9804,3.0005,3.0462,3.0512,3.0758,3.1286,3.1311,3.1562,3.2093,3.2093,3.239,3.2989,3.3014,3.304,3.309,3.309,3.3366,3.3796,3.3796,3.4073,3.4527,3.4527,3.4552,3.4603,3.4678,3.4703,3.4753,3.5207,3.5357,3.5257,3.4853,3.4703,3.4703,3.4703,3.5029,3.5408,3.5408,3.578,3.6205,3.6205,3.6582,3.701,3.701,3.7387,3.7839,3.7889,3.7914,3.7939,3.799,3.8391,3.8793,3.8793,3.9245,3.9597,3.9597,3.9647,3.9697,3.9697,3.9697,3.9697,3.9697,3.9697,3.9697,3.9697,3.9697,3.9697,3.9697,3.9697,3.9697,3.9697,3.8348,3.7346,3.7026,3.4548,3.3021,3.2851,3.1594,3.0898,3.0898,3.0898,3.0898,3.0898,3.0898,3.0898,3.0898,3.0898,3.0859,2.1418,2.0977,2.0512,2.1214,2.1892,2.2784,2.433,2.4365,2.4691,2.6859,2.7562,2.7921,2.8455,2.9032,2.9428,2.9428,2.9628,2.9804,2.9804,2.9804,2.9804,2.9804,2.9804,2.9804,2.9804,3.008,3.0357,3.0588,3.0909,3.1311,3.1838,3.1863,3.2139,3.2713,3.2717,3.2993,3.3545,3.3567,3.3721,3.4022,3.4022,3.4148,3.4374,3.4374,3.4477,3.4728,3.5029,3.518,3.5182,3.5554,3.5703,3.5728,3.5931,3.6006,3.5981,3.5755,3.5703,3.5703,3.5703,3.583,3.6006,3.6006,3.6406,3.6859,3.6859,3.7261,3.7663,3.7663,3.7839,3.809,3.8417,3.8542,3.8592,3.8919,3.917,3.9371,3.9371,3.9521,3.9697,3.9697,3.9697,3.9697,3.9697,3.9697,3.9697,3.9697,3.9697,3.9697,3.9697,3.9697,3.9697,3.9697,3.9697,3.8999,3.729,3.6568,3.548,3.3782,3.2501,3.1825,3.1825,3.1228,3.0898,3.0898,3.0898,3.0898,3.0898,3.0898,3.1016,3.125,3.125,3.1387,2.2839,2.3085,2.3145,2.3296,2.4315,2.5209,2.4974,2.5209,2.5912,2.7419,2.8047,2.848,2.9057,2.9503,2.9804,2.9804,2.9804,2.9804,2.9804,2.9804,2.9804,2.9804,2.993,3.003,3.003,3.0362,3.0713,3.1014,3.1411,3.1863,3.2416,3.2466,3.2641,3.309,3.3241,3.3517,3.3897,3.4048,3.4324,3.4703,3.4703,3.4778,3.4929,3.5079,3.5177,3.5203,3.5581,3.5757,3.5782,3.623,3.6405,3.6405,3.6405,3.6505,3.6607,3.6607,3.6531,3.643,3.6581,3.6607,3.6632,3.6783,3.711,3.7412,3.7412,3.7789,3.8241,3.8241,3.8341,3.8567,3.9019,3.912,3.922,3.9597,3.9697,3.9697,3.9697,3.9697,3.9697,3.9697,3.9697,3.9697,3.9697,3.9697,3.9697,3.9697,3.9697,3.9697,3.9697,3.9697,3.9697,3.9697,3.9697,3.8842,3.67,3.6135,3.4985,3.2871,3.1969,3.1527,3.1527,3.1112,3.0937,3.1055,3.1055,3.1113,3.125,3.125,3.1406,3.1699,3.1699,3.1875,2.1069,2.192,2.3246,2.3828,2.5226,2.6575,2.7085,2.7211,2.7519,2.8631,2.8863,2.9057,2.9654,2.9779,2.9804,2.9804,2.9804,2.9804,2.9804,2.9804,2.9804,2.9804,3.0256,3.0563,3.0563,3.0588,3.1014,3.2068,3.2169,3.2441,3.304,3.3065,3.309,3.309,3.3596,3.3872,3.3897,3.4424,3.4678,3.4703,3.4703,3.4979,3.5483,3.6081,3.6355,3.6355,3.638,3.638,3.638,3.6405,3.6405,3.6405,3.6405,3.6708,3.7185,3.7185,3.6859,3.648,3.7009,3.7185,3.7261,3.7789,3.7965,3.799,3.799,3.8391,3.8869,3.8869,3.9245,3.9647,3.9672,3.9672,3.9672,3.9697,3.9697,3.9697,3.9697,3.9697,3.9697,3.9697,3.9697,3.9697,3.9697,3.9697,3.9697,3.9697,3.9697,3.9697,3.9697,3.9697,3.9697,3.9697,3.9697,3.9671,3.9569,3.8243,3.7397,3.7293,3.4604,3.3021,3.3021,3.1652,3.1074,3.1455,3.1474,3.1699,3.2159,3.2159,3.2159,3.2179,3.2179,3.2179,2.2688,2.3537,2.4465,2.5427,2.6348,2.706,2.7261,2.7587,2.8047,2.8737,2.8888,2.9082,2.9679,2.9804,2.9804,2.9804,2.9804,2.9804,2.9804,2.9804,2.993,3.0306,3.0487,3.0864,3.1591,3.1642,3.1792,3.2169,3.2566,3.2889,3.309,3.3442,3.3621,3.3621,3.4148,3.4603,3.4954,3.5132,3.5431,3.5828,3.5828,3.5929,3.6081,3.6306,3.6405,3.6405,3.6405,3.6582,3.6934,3.6934,3.716,3.7462,3.7462,3.7563,3.7739,3.7739,3.7613,3.7487,3.7663,3.7739,3.7764,3.7939,3.8266,3.8592,3.8592,3.8994,3.9446,3.9446,3.9546,3.9697,3.9697,3.9697,3.9697,3.9697,3.9697,3.9697,3.9697,3.9697,3.9697,3.9697,3.9697,3.9697,3.9697,3.9697,3.9697,3.9697,3.9697,3.9697,3.9697,3.9697,3.9697,3.9697,3.9697,3.8921,3.6942,3.6325,3.5312,3.3633,3.2578,3.2184,3.2484,3.2018,3.1846,3.1983,3.1953,3.2042,3.2198,3.2198,3.2335,3.2578,3.2578,3.2734,2.3863,2.454,2.5118,2.6457,2.7052,2.7412,2.777,2.8147,2.853,2.9107,2.9057,2.9032,2.9428,2.9478,2.9553,2.9754,2.9955,3.008,3.008,3.0256,3.0432,3.0563,3.0939,3.1441,3.2118,3.2416,3.2516,3.2516,3.2889,3.319,3.3391,3.3696,3.3997,3.4198,3.4703,3.5132,3.5508,3.5707,3.6006,3.6405,3.6405,3.6482,3.6683,3.6683,3.6783,3.6959,3.6959,3.7185,3.7487,3.7487,3.7688,3.8015,3.8015,3.814,3.8316,3.8316,3.8442,3.8592,3.8391,3.8316,3.8341,3.8542,3.8868,3.9195,3.9195,3.9446,3.9697,3.9697,3.9697,3.9697,3.9697,3.9697,3.9697,3.9697,3.9697,3.9697,3.9697,3.9697,3.9697,3.9697,3.9697,3.9697,3.9697,3.9848,3.9998,3.9998,4.0149,4.0199,4.0023,3.9998,4.0074,4.0249,4.0275,3.9275,3.6801,3.611,3.4888,3.2662,3.2038,3.1875,3.2179,3.2198,3.2276,3.2413,3.2413,3.2492,3.2617,3.2617,3.2754,3.3008,3.3008,3.3242,2.4499,2.4867,2.5318,2.6909,2.7336,2.7645,2.8681,2.8913,2.9082,2.9603,2.9252,2.8787,2.8737,2.8781,2.9007,2.9578,3.0181,3.0563,3.0588,3.1035,3.1185,3.0738,3.1566,3.2194,3.2244,3.2742,3.309,3.309,3.3115,3.3366,3.3872,3.3947,3.4223,3.4728,3.5257,3.5533,3.5533,3.613,3.6405,3.6405,3.643,3.6708,3.721,3.7235,3.7513,3.8015,3.8015,3.8015,3.804,3.804,3.8065,3.809,3.809,3.8442,3.8944,3.8944,3.9271,3.9622,3.912,3.8944,3.9019,3.9521,3.9697,3.9697,3.9697,3.9697,3.9697,3.9697,3.9697,3.9697,3.9697,3.9697,3.9697,3.9697,3.9697,3.9697,3.9697,3.9697,3.9697,3.9697,3.9722,3.9747,3.9772,4.0199,4.0524,4.0524,4.0976,4.1127,4.06,4.0524,4.0725,4.1252,4.1222,4.0523,3.8915,3.7428,3.591,3.4425,3.2995,3.2237,3.2257,3.2257,3.2452,3.2812,3.2832,3.3027,3.3386,3.3386,3.3406,3.3425,3.3425,3.3691,2.4616,2.5695,2.6783,2.7185,2.7896,2.8555,2.8856,2.9258,2.9377,2.8674,2.8097,2.7444,2.659,2.7143,2.7745,2.7914,2.9101,3.0156,3.0538,3.0733,3.106,3.1692,3.2018,3.239,3.2839,3.3014,3.309,3.309,3.3467,3.3746,3.3897,3.4653,3.5132,3.5282,3.5855,3.618,3.618,3.6306,3.6405,3.6381,3.6808,3.706,3.721,3.7613,3.7864,3.8015,3.8015,3.8241,3.8668,3.8668,3.8919,3.927,3.927,3.9346,3.9496,3.9496,3.9572,3.9672,3.9521,3.9496,3.9522,3.9647,3.9697,3.9697,3.9697,3.9697,3.9697,3.9697,3.9697,3.9697,3.9697,3.9697,3.9697,3.9697,3.9697,3.9697,3.9697,3.9697,3.9697,3.9697,4.0023,4.0399,4.0826,4.1001,4.1102,4.1102,4.1227,4.1252,4.1127,4.1102,4.1152,4.1302,4.0226,3.8911,3.74,3.5852,3.447,3.3283,3.2863,3.2773,3.3086,3.3105,3.3144,3.3262,3.3262,3.332,3.3386,3.3386,3.3594,3.3906,3.3906,3.4173,2.5385,2.6389,2.7361,2.7595,2.8279,2.8856,2.8605,2.8624,2.8298,2.6942,2.6239,2.5485,2.4356,2.5678,2.6952,2.6952,2.8944,3.0608,3.0909,3.1386,3.1813,3.2144,3.2441,3.2717,3.3065,3.309,3.319,3.342,3.3721,3.3997,3.4248,3.5054,3.5631,3.5906,3.623,3.6405,3.6405,3.6405,3.6531,3.6758,3.706,3.7462,3.7964,3.8266,3.8517,3.8743,0.0,3.8944,3.9245,3.9245,3.9446,3.9697,3.9697,3.9697,3.9697,3.9697,3.9697,3.9697,3.9697,3.9697,3.9697,3.9697,3.9697,3.9697,3.9697,3.9697,3.9697,3.9697,3.9697,3.9697,3.9697,3.9697,3.9697,3.9697,3.9697,3.9697,3.9697,3.9697,3.9772,3.9998,4.0474,4.0951,4.1252,4.1503,4.1681,4.1681,4.1907,4.2057,4.2057,4.1856,4.1781,4.2032,4.1241,4.0078,3.8551,3.6986,3.5516,3.4196,3.3452,3.3184,3.3386,3.3386,3.3516,3.3711,3.3711,3.3789,3.3984,3.3984,3.4101,3.4336,3.4336,3.459,2.6449,2.7002,2.7537,2.8072,2.8605,2.8856,2.8247,2.762,2.6708,2.4942,2.4014,2.3226,2.2171,2.4196,2.6097,2.6248,2.9045,3.1235,3.1361,3.2311,3.2813,3.2365,3.2767,3.309,3.309,3.3165,3.3416,3.3872,3.4022,3.4324,3.4778,3.533,3.5857,3.638,3.6405,3.6405,3.6405,3.648,3.6733,3.721,3.7361,3.7939,3.8894,3.8969,3.9271,3.9697,3.9697,3.9697,3.9697,3.9697,3.9697,3.9697,3.9697,3.9697,3.9697,3.9697,3.9697,3.9697,3.9697,3.9697,3.9697,3.9697,3.9697,3.9697,3.9697,3.9697,3.9697,3.9697,3.9697,3.9697,3.9697,3.9697,3.9697,3.9697,3.9697,3.9722,3.9798,3.9848,4.0074,4.0626,4.1102,4.1453,4.1528,4.1957,4.2313,4.2313,4.2688,4.3014,4.3014,4.2587,4.2487,4.2964,4.2793,4.2012,4.0419,3.8817,3.7183,3.556,3.4224,3.3484,3.3484,3.3523,3.3769,3.4173,3.4192,3.4336,3.4707,3.4707,3.4726,3.4785,3.4785,3.5039,2.701,2.7544,2.8097,2.8631,2.9227,2.9377,2.8348,2.7336,2.6005,2.3822,2.2272,2.1069,2.0363,2.2132,2.4014,2.4942,2.7896,3.0382,3.1281,3.1964,3.2516,3.2914,3.304,3.309,3.309,3.3517,3.3796,3.3897,3.4728,3.5257,3.5357,3.5931,3.6281,3.6405,3.6405,3.6405,3.6405,3.6833,3.711,3.721,3.814,3.8693,3.8919,3.9371,3.9597,3.9697,3.9697,0.0,3.9697,3.9697,3.9697,3.9697,3.9697,3.9697,3.9697,3.9697,3.9697,3.9697,3.9697,3.9697,3.9697,3.9697,3.9697,3.9697,3.9697,3.9697,3.9697,3.9697,3.9697,3.9697,3.9697,3.9697,3.9697,3.9697,3.9697,3.9823,4.0275,4.07,4.1202,4.1783,4.1984,4.2185,4.2637,4.2788,4.2864,4.2864,4.2939,4.3014,4.3014,4.2914,4.2889,4.2989,4.1814,4.0361,3.8757,3.7122,3.553,3.3933,3.3909,3.3997,3.3997,3.4297,3.4512,3.459,3.459,3.4629,3.4707,3.4707,3.4902,3.5273,3.5273,3.5508,2.716,2.7695,2.8247,2.8781,2.9333,2.9252,2.7268,2.5979,2.4397,2.154,2.0124,1.9221,1.8668,2.0815,2.2945,2.3772,2.7243,3.008,3.0884,3.1964,3.2788,3.3065,3.309,3.3215,3.347,3.3746,3.4148,3.4703,3.5207,3.5508,3.5508,3.6056,3.6405,3.6405,3.6405,3.6532,3.6808,3.7085,3.7512,3.809,3.8642,3.9044,3.9346,3.9572,3.9697,3.9697,3.9697,3.9697,3.9697,3.9697,3.9697,3.9697,3.9697,3.9697,3.9697,3.9697,3.9697,3.9697,3.9697,3.9697,3.9697,3.9697,3.9697,3.9697,3.9697,3.9697,3.9697,3.9697,3.9697,3.9697,3.9697,3.9898,4.0124,4.0124,4.035,4.06,4.0851,4.1379,4.1831,4.2135,4.2439,4.2688,4.2964,4.3014,4.3014,4.3014,4.3014,4.3014,4.3014,4.3014,4.2681,4.1842,4.1076,4.0048,3.8672,3.7108,3.5936,3.5364,3.4742,3.4394,3.4394,3.459,3.4805,3.5059,3.5059,3.5176,3.5391,3.5391,3.5508,3.5723,3.5723,3.582,2.7286,2.777,2.8254,2.8932,2.9453,2.9051,2.6239,2.4682,2.2884,1.966,1.8393,1.7777,1.7613,1.9861,2.2106,2.3135,2.6648,2.9578,3.0462,3.1938,3.2964,3.309,3.309,3.3316,3.3847,3.3997,3.4452,3.5433,3.5631,3.5707,3.5707,3.6155,3.6405,3.6405,3.6507,3.6758,3.721,3.7436,3.8014,3.8894,3.9019,3.9296,3.9697,3.9697,3.9697,3.9697,3.9697,3.9697,3.9697,3.9697,3.9697,3.9697,3.9697,3.9697,3.9697,3.9697,3.9697,3.9697,3.9697,3.9697,3.9697,3.9697,3.9697,3.9697,3.9697,3.9697,3.9722,3.9848,3.9873,3.9898,4.0023,4.0375,4.0675,4.0675,4.1076,4.1478,4.1478,4.1957,4.2389,4.2389,4.2713,4.3014,4.3014,4.3014,4.3014,4.3014,4.3014,4.3014,4.3014,4.3014,4.2284,4.0415,4.0526,4.0082,3.8515,3.7312,3.6634,3.6605,3.5486,3.4844,3.4844,3.4941,3.5156,3.5527,3.5527,3.5684,3.5982,3.5982,3.5982,3.5982,3.5982,3.5982,2.7745,2.8072,2.8373,2.9453,2.9754,2.9051,2.6239,2.434,2.2393,1.9584,1.7754,1.6963,1.7953,1.9183,2.0891,2.3502,2.5937,2.8247,3.0312,3.1566,3.2491,3.304,3.309,3.3316,3.3847,3.4327,3.4879,3.5458,3.6006,3.6306,3.6306,3.638,3.6405,3.6405,3.6859,3.716,3.721,3.824,3.8793,3.8894,3.9371,3.9647,3.9697,3.9697,3.9697,3.9697,3.9697,3.9697,0.0,3.9697,3.9697,3.9697,3.9697,3.9697,3.9697,3.9697,3.9697,3.9697,3.9697,3.9697,3.9697,3.9697,3.9697,3.9697,3.9697,3.9697,3.9798,4.03,4.0424,4.0524,4.1026,4.1202,4.1227,4.1227,4.1681,4.211,4.211,4.2537,4.2939,4.2939,4.2964,4.3014,4.3014,4.3014,4.3014,4.3014,4.3014,4.3014,4.3014,4.3014,4.1981,3.9333,4.0307,3.9949,3.6956,3.6918,3.6456,3.5015,3.5197,3.5332,3.5332,3.5703,3.5884,3.5923,3.5923,3.5942,3.5982,3.5982,3.5982,3.5982,3.5982,3.5982,2.7821,2.8348,2.8781,2.9603,2.9528,2.853,2.5745,2.4073,2.2217,1.9146,1.7727,1.7275,1.8053,1.8555,1.9761,2.2523,2.428,2.5979,2.7864,2.9654,3.0959,3.1537,3.2487,3.3442,3.4276,3.4879,3.5431,3.5981,3.6256,3.6405,3.6405,3.6405,3.6556,3.6859,3.7085,3.7537,3.8215,3.8668,3.907,3.9371,3.9597,3.9697,3.9697,3.9697,3.9697,3.9697,3.9697,3.9697,0.0,3.9697,3.9697,3.9697,3.9697,3.9697,3.9697,3.9697,3.9697,3.9697,3.9697,3.9697,3.9697,3.9697,3.9923,4.0124,3.9798,3.9923,4.0249,4.045,4.0725,4.1026,4.1225,4.1553,4.1907,4.2258,4.2512,4.2688,4.2688,4.2838,4.3014,4.3014,4.3014,4.3014,4.3014,4.3014,4.3014,4.3014,4.3014,4.3014,4.3014,4.2364,4.1139,3.9122,3.9447,3.875,3.6059,3.5967,3.5891,3.5502,3.5664,3.5762,3.5762,3.5903,3.5982,3.5982,3.5982,3.5982,3.5982,3.5982,3.5982,3.5982,3.5982,3.5982,2.777,2.848,2.9057,2.9654,2.9333,2.8161,2.5444,2.3923,2.2167,1.887,1.7777,1.7524,1.7877,1.8103,1.9058,2.1644,2.2985,2.4481,2.6675,2.8448,2.9854,3.0733,3.1884,3.309,3.4327,3.5255,3.5956,3.638,3.6405,3.6405,3.6405,3.6532,3.6808,3.721,3.7537,3.809,3.8894,3.907,3.9346,3.9697,3.9697,3.9697,3.9697,3.9697,3.9697,3.9697,3.9697,3.9697,0.0,3.9697,3.9697,3.9697,3.9697,3.9697,3.9697,3.9697,3.9697,3.9697,3.9697,3.9697,3.9697,3.9697,4.0074,4.0424,4.0049,4.0325,4.0775,4.0953,4.1404,4.1804,4.1804,4.2108,4.2512,4.2914,4.3014,4.3014,4.3014,4.3014,4.3014,4.3014,4.3014,4.3014,4.3014,4.3014,4.3014,4.3014,4.314,4.3044,4.2513,4.189,4.0715,3.8773,3.8578,3.7699,3.5565,3.5508,3.5703,3.5962,3.5982,3.5982,3.5982,3.5982,3.5982,3.5982,3.5982,3.5982,3.5982,3.5982,3.5982,3.5982,3.5982,3.606,2.7645,2.848,2.9057,2.9654,2.9333,2.8161,2.5444,2.3923,2.2167,1.887,1.7777,1.7398,1.7423,1.7827,1.8932,2.1155,2.2408,2.4274,2.7602,2.8555,2.9534,3.1185,3.1432,3.2064,3.3746,3.5401,3.6405,3.6405,3.6405,3.6405,3.6405,3.6909,3.721,3.721,3.8291,3.8894,3.8894,3.9446,3.9697,3.9697,3.9697,3.9697,3.9697,3.9697,3.9697,3.9697,3.9697,3.9697,0.0,3.9697,3.9697,3.9697,3.9697,3.9697,3.9697,3.9697,3.9697,3.9697,3.9697,3.9697,3.9697,3.9697,4.0074,4.0499,4.0474,4.0876,4.1428,4.2009,4.2562,4.2989,4.2989,4.2989,4.2989,4.3014,4.3014,4.3014,4.3014,4.3014,4.3014,4.3014,4.3014,4.3014,4.3014,4.3014,4.3014,4.3014,4.3438,4.3168,4.1441,4.1739,4.0992,3.8101,3.7807,3.7143,3.5558,3.5781,3.6016,3.5982,3.5982,3.5982,3.5982,3.5982,3.5982,3.5982,3.5982,3.5982,3.5982,3.5982,3.5982,3.5982,3.5982,3.625,2.5695,2.6799,2.767,2.7067,2.6791,2.6121,2.4098,2.2784,2.1292,1.8731,1.7777,1.7398,1.7398,1.7537,1.8618,2.1568,2.2332,2.3602,2.6582,2.8097,2.9383,3.0708,3.2846,3.4552,3.5527,3.608,3.6405,3.6405,3.6405,3.6557,3.6934,3.7437,3.7739,3.7739,3.8492,3.907,3.9421,3.9622,3.9697,3.9697,3.9697,3.9697,3.9697,3.9697,3.9697,3.9697,3.9697,3.9697,3.9697,3.9697,3.9697,3.9697,3.9697,3.9697,3.9697,3.9697,3.9697,3.9697,3.9697,3.9697,3.9747,4.0124,4.06,4.1127,4.1557,4.1783,4.2034,4.2587,4.2864,4.3014,4.3014,4.3014,4.3014,4.3014,4.3014,4.3014,4.3014,4.3014,4.3014,4.3014,4.3014,4.3014,4.3014,4.3288,4.3539,4.3539,4.4016,4.3709,4.2043,4.1237,4.0083,3.8034,3.7055,3.6374,3.5854,3.5937,3.5982,3.5982,3.5982,3.5982,3.5982,3.5982,3.5982,3.5982,3.5982,3.5982,3.5982,3.5982,3.5982,3.5982,3.5982,3.625,2.4465,2.5711,2.6557,2.6055,2.5611,2.4917,2.3446,2.2106,2.0628,1.8606,1.7777,1.7336,1.7099,1.74,1.843,2.0701,2.1755,2.3276,2.6097,2.7695,2.9258,3.0989,3.3574,3.5355,3.5705,3.6155,3.6405,3.6405,3.6606,3.6859,3.7185,3.7914,3.8341,3.8341,3.8919,3.9371,3.9697,3.9697,3.9697,3.9697,3.9697,3.9697,3.9697,3.9697,3.9697,3.9697,3.9697,3.9697,0.0,3.9697,3.9697,3.9697,3.9697,3.9697,3.9697,3.9697,3.9697,3.9697,3.9697,3.9823,4.0074,4.04,4.1028,4.1756,4.2336,4.2487,4.2562,4.2914,4.3014,4.3014,4.3014,4.3014,4.3014,4.3014,4.3014,4.3014,4.3014,4.3014,4.3014,4.3014,4.3014,4.3065,4.3291,4.3564,4.3865,4.4091,4.402,4.3341,4.1635,4.0397,3.9034,3.7311,3.6447,3.5982,3.5982,3.5982,3.5982,3.5982,3.5982,3.5982,3.5982,3.5982,3.5982,3.5982,3.5982,3.5982,3.5982,3.5982,3.6094,3.6269,3.6269,3.6582,0.0,2.4842,2.541,2.5971,2.531,2.4264,2.312,2.1669,0.0,1.848,1.7702,1.7211,1.6762,1.754,1.8493,1.9233,2.1153,2.3502,2.6273,2.772,2.9478,3.2068,3.3825,3.4828,3.4828,3.5778,3.6405,3.6405,3.6909,3.7235,3.7236,3.8291,3.8919,3.8944,3.9421,3.9697,3.9697,3.9697,3.9697,3.9697,3.9697,3.9697,3.9697,3.9697,3.9697,0.0,3.9697,3.9697,0.0,3.9697,3.9697,3.9697,3.9697,3.9697,3.9697,3.9697,3.9697,3.9697,3.9747,4.0099,4.0499,4.0575,4.1354,4.2336,4.2838,4.3014,4.3014,4.3014,4.3014,4.3014,4.3014,4.3014,4.3014,4.3014,4.3014,4.3014,4.3014,4.3014,4.3014,4.3065,4.3065,4.324,4.3765,4.389,4.4062,4.4419,4.3589,4.2264,4.0401,3.925,3.7921,3.6186,3.5982,3.5982,3.5982,3.5982,3.5982,3.5982,3.5982,3.5982,3.5982,3.5982,3.5982,3.5982,3.5982,3.5982,3.5982,3.6021,3.6269,3.6714,3.6734,3.7148,1.9923,0.0,2.2412,2.2124,2.216,2.197,0.0,1.9974,1.9045,1.7839,1.7124,1.7063,1.8205,1.8632,1.9685,2.2383,2.3954,2.5661,2.8003,3.0758,3.2943,3.3975,3.5228,3.6004,3.6004,3.623,3.6405,3.6405,3.6909,3.7386,3.7789,3.8517,3.9095,3.9496,3.9622,3.9697,3.9697,3.9697,3.9697,3.9697,3.9697,3.9697,3.9697,3.9697,3.9697,3.9697,3.9697,3.9697,3.9697,3.9697,3.9697,3.9697,3.9697,3.9697,3.9697,3.9697,3.9697,3.9747,4.0174,4.0374,4.0625,4.1532,4.2261,4.2838,4.2964,4.3014,4.3014,4.3014,4.3014,4.3014,4.3014,4.3014,4.3014,4.3014,4.3014,4.3014,4.3014,4.3014,4.314,4.3539,4.3614,4.379,4.4313,4.4794,4.4684,4.3482,4.3422,4.2426,3.939,3.8765,3.7921,3.6186,3.5982,3.5982,3.5982,3.5982,3.5982,3.5982,3.5982,3.5982,3.5982,3.5982,3.5982,3.5982,3.5982,3.5982,3.5982,3.6348,3.6597,3.6714,3.7047,3.7422,1.8016,1.966,2.1105,2.1094,2.1094,2.0954,2.0351,1.9208,1.8103,1.7512,1.6923,1.6937,1.8356,1.9472,2.0827,2.2899,2.5209,2.762,3.0061,3.2645,3.4452,3.5004,3.5879,3.6405,3.6405,3.6405,3.6405,3.6405,3.7135,3.7688,3.799,3.8793,3.9396,3.9697,3.9697,3.9697,3.9697,3.9697,3.9697,3.9697,3.9697,3.9697,3.9697,3.9697,3.9697,3.9697,3.9697,3.9697,3.9697,3.9697,3.9697,3.9697,3.9697,3.9697,3.9697,3.9697,3.9848,4.0124,4.04,4.0852,4.1404,4.2286,4.2763,4.3014,4.3014,4.3014,4.3014,4.3014,4.3014,4.3014,4.3014,4.3014,4.3014,4.3014,4.3014,4.3014,4.3014,4.319,4.3438,4.374,4.4016,4.4367,4.492,4.4626,4.4068,4.3371,4.2175,4.0676,3.8828,3.7888,3.7059,3.6118,3.5982,3.5982,3.5982,3.5982,3.5982,3.5982,3.5982,3.5982,3.5982,3.5982,3.5982,3.5982,3.6211,3.6309,3.6328,3.6758,3.7051,3.7246,3.748,3.7812,1.7437,1.9208,2.0867,2.108,2.0904,2.0641,2.049,1.8995,1.7613,1.7537,1.7174,1.7328,1.8794,2.0539,2.2071,2.3025,2.6113,2.9302,3.1964,3.3699,3.4904,3.5433,3.6031,3.6405,3.6405,3.6405,3.643,3.6531,3.7437,3.804,3.814,3.912,3.9697,3.9697,3.9697,3.9697,3.9697,3.9697,3.9697,3.9697,3.9697,3.9697,3.9697,3.9697,3.9697,3.9697,0.0,0.0,3.9697,3.9697,3.9697,3.9697,3.9697,3.9697,3.9697,3.9697,4.0049,4.0524,4.0701,4.1456,4.2386,4.2864,4.3014,4.3014,4.3014,4.3014,4.3014,4.3014,4.3014,4.3014,4.3014,4.3014,4.3014,4.3014,4.3014,4.3039,4.3115,4.3463,4.384,4.4041,4.4443,4.4945,4.5522,4.4177,4.3085,4.3286,4.0612,3.8498,3.8254,3.6924,3.5982,3.5982,3.5982,3.5982,3.5982,3.5982,3.5982,3.5982,3.5982,3.5982,3.5982,3.5982,3.6021,3.6113,3.6519,3.6734,3.6792,3.7187,3.7578,3.7894,3.7952,3.8223,1.8331,2.0037,2.1055,1.9723,2.005,2.044,1.9472,1.8995,1.8644,1.8179,1.8356,1.9534,2.2533,2.2985,2.3813,2.6741,2.8524,3.0331,3.2638,3.3972,3.4904,3.5433,3.6031,3.6405,3.6405,3.6405,3.6582,3.7034,3.7638,3.8216,3.8743,3.9371,3.9697,3.9697,3.9697,3.9697,3.9697,3.9697,3.9697,3.9697,3.9697,3.9697,3.9697,3.9697,3.9697,3.9697,0.0,3.9697,3.9697,3.9697,3.9697,3.9697,3.9697,3.9697,3.9697,3.9697,4.0049,4.0651,4.1607,4.2336,4.2889,4.2989,4.3014,4.3014,4.3014,4.3014,4.3014,4.3014,4.3014,4.3014,4.3014,4.3014,4.3014,4.3014,4.3014,4.3112,4.3564,4.374,4.4091,4.5045,4.5296,4.5522,4.6075,4.4738,4.3114,4.1765,3.9888,3.8055,3.6606,3.6186,3.5982,3.5982,3.5982,3.5982,3.5982,3.5982,3.5982,3.5982,3.5982,3.5982,3.5982,3.5982,3.6191,3.6562,3.6675,3.689,3.7207,3.7617,3.7816,3.7894,3.8301,3.8552,1.7428,1.887,2.0099,1.9962,2.1418,2.2774,2.2257,2.1666,2.1064,2.0526,2.0601,2.1529,2.3963,2.4958,2.6565,3.0206,3.1235,3.216,3.3746,3.4628,3.5355,3.5931,3.623,3.6405,3.6405,3.6405,3.6607,3.716,3.7688,3.8266,3.8869,3.9421,3.9697,3.9697,3.9697,3.9697,3.9697,3.9697,3.9697,3.9697,3.9697,3.9697,3.9697,3.9697,3.9697,3.9697,0.0,3.9697,3.9697,3.9697,3.9697,3.9697,3.9697,3.9697,3.9772,4.035,4.0927,4.1532,4.2336,4.2788,4.3014,4.3014,4.3014,4.3014,4.3014,4.3014,4.3014,4.3014,4.3014,4.3014,4.3014,4.3014,4.3014,4.3014,4.3212,4.3489,4.374,4.4292,4.4869,4.5397,4.5723,4.6024,4.6276,4.4096,4.2106,4.1309,3.8927,3.6924,3.6118,3.5982,3.5982,3.5982,3.5982,3.5982,3.5982,3.5982,3.5982,3.5982,3.5982,3.5982,3.5982,3.5982,3.623,3.6695,3.6894,3.7226,3.7637,3.8066,3.8281,3.8281,3.8513,3.8611,1.7163,1.8318,1.971,2.0954,2.2548,2.4014,2.4666,2.3822,2.2895,2.2884,2.31,2.3753,2.5293,2.7042,2.9246,3.221,3.2939,3.347,3.4552,3.5157,3.5732,3.6331,3.6405,3.6405,3.6405,3.6405,3.6658,3.7361,3.7764,3.8316,3.9044,3.9497,3.9697,3.9697,3.9697,3.9697,3.9697,3.9697,3.9697,3.9697,3.9697,3.9697,3.9697,3.9697,3.9697,3.9697,3.9697,3.9697,3.9697,3.9697,3.9697,3.9697,3.9848,3.9973,4.0199,4.1152,4.1781,4.2288,4.2813,4.3014,4.3014,4.3014,4.3014,4.3014,4.3014,4.3014,4.3014,4.3014,4.3014,4.3014,4.3014,4.3014,4.3039,4.3165,4.3489,4.3865,4.4141,4.4869,4.5522,4.5648,4.6024,4.6301,4.6301,4.3793,4.1661,4.1245,3.8564,3.6471,3.605,3.5982,3.5982,3.5982,3.5982,3.5982,3.5982,3.5982,3.5982,3.5982,3.5982,3.5982,3.5982,3.5982,3.6269,3.6851,3.7129,3.7559,3.8086,3.8418,3.8611,3.8611,3.8611,3.8611,1.9158,2.005,2.0968,2.2533,2.1945,2.1672,2.4214,2.3537,2.2784,2.4315,2.5477,2.6549,2.767,2.9628,3.1205,3.1482,3.2411,3.347,3.4552,3.5157,3.5732,3.6331,3.6405,3.6405,3.6405,3.6405,3.6833,3.7864,3.799,3.8492,3.9572,3.9672,3.9697,3.9697,3.9697,3.9697,3.9697,3.9697,3.9697,3.9697,3.9697,3.9697,3.9697,3.9697,3.9697,3.9697,3.9697,3.9697,3.9697,3.9697,3.9697,3.9747,4.0249,4.075,4.1277,4.1909,4.2162,4.2288,4.2813,4.3014,4.3014,4.3014,4.3014,4.3014,4.3014,4.3014,4.3014,4.3014,4.3014,4.3014,4.3014,4.3014,4.314,4.3614,4.3765,4.4091,4.5146,4.5422,4.5648,4.615,4.6276,4.6301,4.6301,4.4767,4.2989,4.1437,3.9595,3.7822,3.6219,3.5982,3.5982,3.5982,3.5982,3.5982,3.5982,3.5982,3.5982,3.5982,3.5982,3.5982,3.5982,3.5982,3.6406,3.7226,3.7285,3.7695,3.8571,3.8591,3.8611,3.8611,3.8611,3.8611,1.814,1.9485,2.1018,2.2282,2.2935,2.3803,2.5887,2.6372,2.6698,2.7702,2.8247,2.8793,2.9528,3.1185,3.2315,3.1964,3.3144,3.4248,3.4653,3.5479,3.6155,3.638,3.6405,3.6405,3.6405,3.6708,3.7186,3.7939,3.8341,3.8894,3.9647,3.9697,3.9697,3.9697,3.9697,3.9697,3.9697,3.9697,3.9697,3.9697,3.9697,3.9697,3.9697,3.9697,3.9697,3.9697,3.9697,3.9697,3.9697,3.9697,3.9898,4.0249,4.0775,4.1327,4.1909,4.211,4.2386,4.2738,4.2939,4.3014,4.3014,4.3014,4.3014,4.3014,4.3014,4.3014,4.3014,4.3014,4.3014,4.3014,4.3014,4.3266,4.3539,4.374,4.4342,4.497,4.5397,4.5748,4.6075,4.6276,4.6301,4.6301,4.6301,4.4859,4.3114,4.1437,3.9725,3.7955,3.6219,3.5982,3.5982,3.5982,3.5982,3.5982,3.5982,3.5982,3.5982,3.5982,3.5982,3.5982,3.5982,3.6289,3.6699,3.7285,3.7559,3.7988,3.8611,3.8611,3.8611,3.8611,3.8611,3.8611,1.8504,1.9661,2.127,2.2523,2.3687,2.5017,2.6884,2.7871,2.8706,2.9829,3.0055,3.0281,3.0984,3.1888,3.2562,3.2491,3.3724,3.4753,3.4929,3.578,3.6405,3.6405,3.6405,3.6405,3.6405,3.6884,3.7412,3.7965,3.8567,3.9145,3.9672,3.9697,3.9697,3.9697,3.9697,3.9697,3.9697,3.9697,3.9697,3.9697,3.9697,3.9697,3.9697,3.9697,3.9697,3.9697,3.9697,3.9697,3.9697,3.9697,4.0124,4.08,4.1379,4.1932,4.2436,4.2436,4.2688,4.3014,4.3014,4.3014,4.3014,4.3014,4.3014,4.3014,4.3014,4.3014,4.3014,4.3014,4.3014,4.3039,4.3215,4.3514,4.389,4.4242,4.492,4.5547,4.5723,4.605,4.6301,4.6301,4.6301,4.6301,4.6301,4.5312,4.3762,4.1533,4.0181,3.8597,3.6321,3.5982,3.5982,3.5982,3.5982,3.5982,3.5982,3.5982,3.5982,3.5982,3.5982,3.5982,3.5982,3.6309,3.6738,3.7285,3.7578,3.8008,3.8611,3.8611,3.8611,3.8611,3.8611,3.8611,2.0817,2.1094,2.1895,2.3577,2.4029,2.4632,2.6834,2.7311,2.7964,3.0161,3.0613,3.0939,3.1993,3.1763,3.1808,3.2914,3.3997,3.4904,3.5433,3.6006,3.6405,3.6405,3.6405,3.6405,3.6405,3.6884,3.7412,3.7965,3.8567,3.9145,3.9672,3.9697,3.9697,3.9697,3.9697,3.9697,3.9697,3.9697,3.9697,3.9697,3.9697,3.9697,3.9697,3.9697,3.9697,3.9697,3.9697,3.9697,3.9697,3.9697,4.0324,4.1378,4.1984,4.2537,4.3014,4.3014,4.3014,4.3014,4.3014,4.3014,4.3014,4.3014,4.3014,4.3014,4.3014,4.3014,4.3014,4.3014,4.3014,4.3112,4.3664,4.3815,4.4091,4.5221,4.5497,4.5648,4.62,4.6301,4.6301,4.6301,4.6301,4.6301,4.6301,4.6301,4.5159,4.1724,4.1213,3.9921,3.6437,3.5982,3.5982,3.5982,3.5982,3.5982,3.5982,3.5982,3.5982,3.5982,3.5982,3.5982,3.5982,3.5982,3.6426,3.7285,3.7305,3.7715,3.8611,3.8611,3.8611,3.8611,3.8611,3.8611,1.9083,2.0726,2.2744,2.3246,2.5745,2.8247,2.8919,2.907,2.9572,3.1361,3.2064,3.2315,3.2219,3.2742,3.3144,3.3115,3.4324,3.5307,3.5483,3.6006,3.6405,3.6405,3.6405,3.6532,3.6934,3.7437,3.799,3.8592,3.9145,3.9521,3.9697,3.9697,3.9697,3.9697,3.9697,3.9697,3.9697,3.9697,3.9697,3.9697,3.9697,3.9697,3.9697,3.9697,3.9697,3.9697,3.9697,3.9697,3.9747,4.0499,4.1279,4.1984,4.2537,4.2864,4.3014,4.3014,4.3014,4.3014,4.3014,4.3014,4.3014,4.3014,4.3014,4.3014,4.3014,4.3014,4.3014,4.3014,4.3014,4.3215,4.4141,4.4338,4.4568,4.5321,4.5773,4.6125,4.6276,4.6301,4.6301,4.6301,4.6301,4.6301,4.6301,4.6301,4.5159,4.1724,4.1213,3.9921,3.6437,3.5982,3.5982,3.5982,3.5982,3.5982,3.5982,3.5982,3.5982,3.5982,3.5982,3.5982,3.5982,3.6309,3.6738,3.7285,3.7598,3.8008,3.8611,3.8611,3.8611,3.8611,3.8611,3.8611,2.1393,2.31,2.4917,2.5594,2.7293,2.9076,3.0181,3.0608,3.1035,3.1993,3.2491,3.2692,3.2566,3.3119,3.3617,3.3721,3.4728,3.5583,3.5807,3.618,3.6405,3.6405,3.6405,3.6607,3.716,3.7688,3.8241,3.8843,3.9396,3.9697,3.9697,3.9697,3.9697,3.9697,3.9697,3.9697,3.9697,3.9697,3.9697,3.9697,3.9697,3.9697,3.9697,3.9697,3.9697,3.9697,3.9697,3.9823,4.0099,4.0951,4.1656,4.2235,4.2788,4.3014,4.3014,4.3014,4.3014,4.3014,4.3014,4.3014,4.3014,4.3014,4.3014,4.3014,4.3014,4.3014,4.3039,4.3266,4.3313,4.3564,4.4669,4.497,4.5121,4.5673,4.6075,4.6301,4.6301,4.6301,4.6301,4.6301,4.6301,4.609,4.5403,4.5281,4.4127,4.0698,3.9562,3.8387,3.6268,3.5982,3.5982,3.5982,3.5982,3.5982,3.5982,3.5982,3.5982,3.5982,3.5982,3.5982,3.5982,3.6269,3.6699,3.7285,3.7539,3.7969,3.8611,3.8611,3.8611,3.8611,3.8611,3.8611,2.5569,2.66,2.7613,2.9195,2.8618,2.8341,3.0884,3.1888,3.229,3.229,3.229,3.2466,3.3065,3.3215,3.3571,3.4603,3.523,3.5757,3.6306,3.6405,3.6405,3.6405,3.6405,3.6632,3.7235,3.7713,3.8266,3.8919,3.9421,3.9697,3.9697,3.9697,3.9697,3.9697,3.9697,3.9697,3.9697,3.9697,3.9697,3.9697,3.9697,3.9697,3.9697,3.9697,3.9697,3.9697,3.9697,4.0049,4.06,4.1102,4.1681,4.2338,4.2813,4.3014,4.3014,4.3014,4.3014,4.3014,4.3014,4.3014,4.3014,4.3014,4.3014,4.3014,4.3014,4.3014,4.3115,4.3639,4.379,4.4066,4.5196,4.5497,4.5623,4.6175,4.6301,4.6301,4.6301,4.6301,4.6301,4.6301,4.6301,4.5762,4.401,4.37,4.2549,3.9125,3.7126,3.5982,3.5982,3.5982,3.5982,3.5982,3.5982,3.5982,3.5982,3.5982,3.5982,3.5982,3.5982,3.5982,3.5982,3.5982,3.6426,3.7285,3.7305,3.7715,3.8611,3.8611,3.8611,3.8611,3.8611,3.8611,2.1948,2.4262,2.6876,2.7638,2.9195,3.0783,3.1813,3.2466,3.2914,3.2914,3.2914,3.3068,3.3621,3.4073,3.4577,3.5207,3.583,3.6256,3.638,3.6405,3.6405,3.6405,3.6405,3.6783,3.7739,3.7939,3.8417,3.9446,3.9622,3.9697,3.9697,3.9697,3.9697,3.9697,3.9697,3.9697,3.9697,3.9697,3.9697,0.0,3.9697,3.9697,3.9697,3.9697,3.9697,3.9697,3.9697,4.0249,4.1152,4.1252,4.1879,4.2838,4.2964,4.3014,4.3014,4.3014,4.3014,4.3014,4.3014,4.3014,4.3014,4.3014,4.3014,4.3014,4.3014,4.3014,4.3115,4.3639,4.379,4.4066,4.5196,4.5497,4.5623,4.6175,4.6301,4.6301,4.6301,4.6301,4.6301,4.6301,4.6301,4.5762,4.401,4.37,4.2549,3.9125,3.7126,3.5982,3.5982,3.5982,3.5982,3.5982,3.5982,3.5982,3.5982,3.5982,3.5982,3.5982,3.5982,3.5982,3.5982,3.5982,3.6426,3.7285,3.7305,3.7715,3.8611,3.8611,3.8611,3.8611,3.8611,3.8611,2.3055,2.5141,2.7185,2.8549,3.0156,3.1537,3.2089,3.2667,3.309,3.309,3.309,3.3266,3.3796,3.4327,3.4879,3.5408,3.6006,3.6405,3.6405,3.6405,3.6405,3.6405,3.6631,3.711,3.7914,3.8266,3.8768,3.9622,3.9697,3.9697,3.9697,3.9697,3.9697,3.9697,3.9697,3.9697,3.9697,3.9697,3.9697,3.9697,3.9697,3.9697,3.9697,3.9697,3.9697,3.9697,3.9973,4.0549,4.1327,4.163,4.2233,4.3014,4.3014,4.3014,4.3014,4.3014,4.3014,4.3014,4.3014,4.3014,4.3014,4.3014,4.3014,4.3014,4.3014,4.3014,4.319,4.3966,4.4192,4.4468,4.5598,4.5874,4.5949,4.625,4.6301,4.6301,4.6301,4.6301,4.6301,4.6301,4.5641,4.4497,4.2801,4.1126,3.9398,3.7642,3.6573,3.5982,3.5982,3.5982,3.5982,3.5982,3.5982,3.5982,3.5982,3.5982,3.5982,3.5982,3.5982,3.6113,3.6328,3.6328,3.6641,3.7285,3.75,3.793,3.8611,3.8611,3.8611,3.8611,3.8611,3.8611,2.4463,2.6231,2.7738,3.0156,3.106,3.1562,3.2215,3.2742,3.309,3.309,3.309,3.3291,3.3922,3.4402,3.4904,3.5556,3.6056,3.6405,3.6405,3.6405,3.6405,3.6405,3.6859,3.7387,3.7939,3.8567,3.912,3.9647,3.9697,3.9697,3.9697,3.9697,3.9697,3.9697,3.9697,3.9697,3.9697,3.9697,3.9697,3.9697,3.9697,3.9697,3.9697,3.9697,3.9697,3.9722,4.0275,4.08,4.1352,4.1959,4.2512,4.3014,4.3014,4.3014,4.3014,4.3014,4.3014,4.3014,4.3014,4.3014,4.3014,4.3014,4.3014,4.3014,4.3014,4.3065,4.3338,4.4313,4.4665,4.4966,4.605,4.6301,4.6301,4.6301,4.6301,4.6301,4.6301,4.6301,4.621,4.5914,4.422,4.2391,4.0988,3.8121,3.5982,3.5982,3.5982,3.5982,3.5982,3.5982,3.5982,3.5982,3.5982,3.5982,3.5982,3.5982,3.5982,3.5982,3.5982,3.6211,3.6695,3.6773,3.6973,3.7402,3.7754,3.8144,3.8611,3.8611,3.8611,3.8611,3.8611,3.8611,2.0539,2.3593,2.7354,3.0527,3.1356,3.1683,3.2738,3.304,3.309,3.309,3.309,3.3416,3.4402,3.4653,3.5052,3.6105,3.6331,3.6405,3.6405,3.6405,3.6405,3.6405,3.6859,3.7387,3.7939,3.8567,3.912,3.9647,3.9697,3.9697,3.9697,3.9697,3.9697,3.9697,3.9697,3.9697,3.9697,3.9697,3.9697,3.9697,3.9697,3.9697,3.9697,3.9697,3.9697,3.9722,4.0275,4.08,4.1352,4.1959,4.2512,4.3014,4.3014,4.3014,4.3014,4.3014,4.3014,4.3014,4.3014,4.3014,4.3014,4.3014,4.3014,4.3014,4.3014,4.3313,4.3815,4.4414,4.4995,4.5522,4.615,4.6301,4.6301,4.6301,4.6301,4.6301,4.6301,4.6301,4.5853,4.4343,4.1447,3.9223,3.8993,3.7307,3.5982,3.5982,3.5982,3.5982,3.5982,3.5982,3.5982,3.5982,3.5982,3.5982,3.5982,3.5982,3.5982,3.5982,3.5982,3.6211,3.6695,3.7012,3.7402,3.7796,3.7855,3.8144,3.8611,3.8611,3.8611,3.8611,3.8611,3.8611,2.1468,2.4271,2.7278,3.0577,3.1406,3.1708,3.2839,3.309,3.309,3.309,3.3341,3.3771,3.4552,3.4703,3.5054,3.6205,3.6405,3.6405,3.6405,3.6405,3.6405,3.6405,3.7135,3.7739,3.799,3.8818,3.9446,3.9672,3.9697,3.9697,3.9697,3.9697,3.9697,3.9697,3.9697,3.9697,3.9697,3.9697,3.9697,3.9697,3.9697,3.9697,3.9697,3.9697,3.9697,3.9747,4.0575,4.1102,4.1378,4.2258,4.2788,4.3014,4.3014,4.3014,4.3014,4.3014,4.3014,4.3014,4.3014,4.3014,4.3014,4.3014,4.3014,4.3065,4.3338,4.3614,4.3991,4.4869,4.5296,4.5623,4.6175,4.6301,4.6301,4.6301,4.6301,4.6029,4.5043,4.4859,4.4065,4.1351,3.9627,3.8287,3.7307,3.6505,3.5982,3.5982,3.5982,3.5982,3.5982,3.5982,3.5982,3.5982,3.5982,3.5982,3.5982,3.5982,3.5982,3.5982,3.5982,3.6328,3.6992,3.7207,3.7617,3.8281,3.8281,3.8379,3.8611,3.8611,3.8611,3.8611,3.8611,3.8611,2.187,2.407,2.6097,2.9654,3.0783,3.1381,3.2788,3.309,3.309,3.309,3.3542,3.4073,3.4603,3.4803,3.523,3.623,3.6405,3.6405,3.6405,3.6405,3.6455,3.6606,3.7412,3.8065,3.8216,3.912,3.9697,3.9697,3.9697,3.9697,3.9697,3.9697,3.9697,3.9697,3.9697,3.9697,3.9697,3.9697,3.9697,3.9697,3.9697,3.9697,3.9697,3.9697,3.9772,3.9948,4.0901,4.1302,4.1403,4.2534,4.3014,4.3014,4.3014,4.3014,4.3014,4.3014,4.3014,4.3014,4.3014,4.3014,4.3014,4.3014,4.3014,4.309,4.3463,4.379,4.4105,4.4496,4.4853,4.5031,4.5006,4.4982,4.4982,4.4982,4.4982,4.4767,4.3886,4.302,4.1638,3.9092,3.8254,3.7541,3.6219,3.5982,3.5982,3.5982,3.5982,3.5982,3.5982,3.5982,3.5982,3.5982,3.5982,3.5982,3.5982,3.5982,3.5982,3.5982,3.6133,3.6523,3.7266,3.7402,3.7812,3.8591,3.8611,3.8611,3.8611,3.8611,3.8611,3.8611,3.8611,3.8611,1.9384,2.0865,2.2814,2.7193,2.9076,3.0432,3.2612,3.309,3.309,3.309,3.3542,3.4073,3.4603,3.513,3.5682,3.6306,3.6405,3.6405,3.6405,3.6405,3.6582,3.711,3.7663,3.8216,3.8793,3.9371,3.9697,3.9697,3.9697,3.9697,3.9697,3.9697,3.9697,3.9697,3.9697,3.9697,3.9697,3.9697,3.9697,3.9697,3.9697,3.9697,3.9697,3.9697,3.9973,4.0474,4.1051,4.1302,4.1403,4.2534,4.3014,4.3014,4.3014,4.3014,4.3014,4.3014,4.3014,4.3014,4.3014,4.3014,4.3014,4.3014,4.3014,4.3014,4.3039,4.374,4.422,4.2717,4.3014,4.3434,4.1884,4.1469,4.1469,4.1469,4.1469,4.1884,4.3365,4.1158,3.8795,3.863,3.7273,3.6118,3.6016,3.5982,3.5982,3.5982,3.5982,3.5982,3.5982,3.5982,3.5982,3.5982,3.5982,3.5982,3.5982,3.5982,3.5982,3.5982,3.6406,3.6836,3.7285,3.7676,3.8105,3.8591,3.8611,3.8611,3.8611,3.8611,3.8611,3.8611,3.8611,3.8611,1.9208,2.0087,2.1317,2.5042,2.7369,2.9101,3.0633,3.2085,3.309,3.309,3.3796,3.4477,3.4653,3.5132,3.5707,3.6306,3.6405,3.6405,3.6405,3.6405,3.6582,3.7135,3.7663,3.8241,3.8843,3.9396,3.9697,3.9697,3.9697,3.9697,3.9697,3.9697,3.9697,3.9697,3.9697,3.9697,3.9697,3.9697,3.9697,3.9697,3.9697,3.9697,3.9697,3.9697,3.9998,4.0524,4.1076,4.1503,4.1959,4.2688,4.3014,4.2877,4.187,4.1448,4.1334,4.0303,3.9902,3.9902,3.9902,3.9902,4.01,4.1133,4.169,4.2232,4.3629,4.379,4.3451,4.3187,4.2615,4.1979,4.1373,4.1213,4.1213,4.1213,4.0343,3.9693,4.031,3.9464,3.8287,3.7159,3.6437,3.5982,3.5982,3.5982,3.5982,3.5982,3.5982,3.5982,3.5982,3.5982,3.5982,3.5982,3.5982,3.5982,3.5982,3.5982,3.6133,3.6426,3.6616,3.7007,3.7676,3.7816,3.8125,3.8611,3.8611,3.8611,3.8611,3.8611,3.8611,3.8611,3.8611,3.8611,1.8242,1.8982,2.0049,2.3411,2.5193,2.6892,2.9704,3.1035,3.1938,3.2914,3.3947,3.4703,3.4703,3.5305,3.5931,3.6331,3.6405,3.6405,3.6405,3.6405,3.6658,3.7362,3.7789,3.8316,3.9095,3.9471,3.9697,3.9697,0.0,0.0,3.9697,3.9697,3.9697,3.9697,3.9697,3.9697,3.9697,3.9697,3.9697,3.9697,3.9697,3.9697,3.9697,3.9898,4.0275,4.08,4.1352,4.1831,4.2263,4.2788,4.3014,4.2821,4.1219,4.0592,4.0419,3.8787,3.8194,3.8194,3.8194,3.8194,3.8395,3.9642,4.0275,4.0827,4.2412,4.2488,4.1978,4.1771,4.1046,4.0181,3.9595,3.9431,3.9431,3.9431,3.8564,3.7742,3.7742,3.7742,3.7374,3.6219,3.5982,3.5982,3.5982,3.5982,3.5982,3.5982,3.5982,3.5982,3.5982,3.5982,3.5982,3.5982,3.5982,3.5982,3.5982,3.6152,3.6367,3.6695,3.6934,3.7344,3.7874,3.8066,3.8281,3.8611,3.8611,3.8611,3.8611,3.8611,3.8611,3.8611,3.8611,3.8611,0.0,0.0,0.0,2.2117,2.2594,2.3828,2.9754,2.991,2.9584,3.2411,3.3847,3.4603,3.4678,3.5629,3.6405,3.6405,3.6405,3.6405,3.6405,3.6405,3.6808,3.7864,3.8015,3.8442,3.9597,3.9697,3.9697,0.0,3.9697,3.9697,3.9697,3.9697,3.9697,3.9697,3.9697,3.9697,3.9697,3.9697,3.9697,3.9697,3.9697,3.9697,3.9722,4.0275,4.08,4.1327,4.1934,4.2213,4.2235,4.2788,4.2986,4.2765,4.1162,4.0505,4.0274,3.8639,3.8074,3.8074,3.8074,3.8074,3.8141,3.8655,3.8864,3.8922,3.9383,3.9851,3.9904,3.8282,3.8163,3.8121,3.6437,3.5982,3.5982,3.5982,3.5982,3.5982,3.5982,3.5982,3.5982,3.5982,3.5982,3.5982,3.5982,3.5982,3.5982,3.5982,3.5982,3.5982,3.5982,3.5982,3.5982,3.5982,3.5982,3.6035,3.6001,3.6426,3.6714,3.6734,3.748,3.7894,3.7913,3.8359,3.8611,3.8611,3.8611,3.8611,3.8611,3.8611,3.8611,3.8611,3.8611,3.8611,1.645,0.0,0.0,0.0,0.0,0.0,2.4255,2.5394,2.6849,3.0055,3.126,3.2344,3.4327,3.5629,3.6405,3.6405,3.6405,3.6405,3.6405,3.6405,3.6808,3.7864,3.8015,3.8442,3.9597,0.0,0.0,0.0,3.9697,3.9697,3.9697,3.9697,3.9697,3.9697,3.9697,3.9697,3.9697,3.9697,3.9697,3.9697,3.9697,3.9697,3.9722,4.0275,4.08,4.1327,4.1934,4.2411,4.2788,4.2939,4.2319,4.1105,3.9493,3.8141,3.6941,3.5304,3.4725,3.4725,3.4725,3.4725,3.5004,3.6621,3.7419,3.8012,3.9591,3.9622,3.8977,3.8507,3.7573,3.6606,3.6118,3.5982,3.5982,3.5982,3.5982,3.5982,3.5982,3.5982,3.5982,3.5982,3.5982,3.5982,3.5982,3.5982,3.5982,3.5982,3.5982,3.5982,3.5982,3.5982,3.5982,3.5982,3.5982,3.6152,3.6465,3.6636,3.6934,3.7539,3.7793,3.8066,3.8379,3.8552,3.8611,3.8611,3.8611,3.8611,3.8611,3.8611,3.8611,3.8611,3.8611,3.8611,1.65,1.65,1.6751,1.7791,0.0,0.0,2.3552,2.4591,2.6021,3.0301,3.1788,3.2796,3.4402,3.5629,3.6405,3.6405,3.6405,3.6405,3.6405,3.6405,3.6708,3.7563,3.7864,3.8366,0.0,3.9572,3.9697,3.9697,3.9697,3.9697,3.9697,3.9697,3.9697,3.9697,3.9697,3.9697,3.9697,3.9697,3.9697,3.9697,3.9697,3.9697,3.9696,3.9789,3.9986,4.033,4.117,4.1322,4.1047,4.1728,4.1448,4.0361,3.8082,3.663,3.5591,3.3996,3.3386,3.3386,3.3386,3.3535,3.3909,3.5315,3.6094,3.677,3.8117,3.8025,3.7508,3.7508,3.6755,3.5982,3.5982,3.5982,3.5982,3.5982,3.5982,3.5982,3.5982,3.5982,3.5982,3.5982,3.5982,3.5982,3.5982,3.5982,3.5982,3.5982,3.5982,3.5982,3.5982,3.6172,3.623,3.6001,3.6348,3.6582,3.6695,3.7027,3.7402,3.7855,3.8086,3.8301,3.8591,3.8611,3.8611,3.8611,3.8611,3.8611,3.8611,3.8611,3.8611,3.8611,3.8611,3.8611,1.6737,1.6726,1.7102,1.8481,1.7829,0.0,2.4773,2.5084,2.5544,3.0829,3.2667,3.3448,3.38,3.4801,3.5552,3.55,3.5801,3.6128,3.638,3.6405,3.6582,3.7135,3.7663,0.0,3.8843,3.9396,3.9697,3.9697,3.9697,3.9697,3.9697,3.9697,3.9697,3.9697,3.9697,3.9697,3.9697,3.9697,3.9697,3.9697,3.9697,3.9722,3.9771,3.9168,3.8939,3.9058,3.994,3.9522,3.8313,3.9552,4.0047,3.9785,3.6911,3.5683,3.5366,3.3933,3.3386,3.3386,3.3386,3.3711,3.4173,3.457,3.5019,3.5469,3.5898,3.5982,3.5982,3.5982,3.5982,3.5982,3.5982,3.5982,3.5982,3.5982,3.5982,3.5982,3.5982,3.5982,3.5982,3.5982,3.5982,3.5982,3.5982,3.5982,3.5982,3.5982,3.5982,3.5982,3.5982,3.6406,3.6523,3.6133,3.6816,3.7168,3.6871,3.75,3.7913,3.7952,3.8359,3.8611,3.8611,3.8611,3.8611,3.8611,3.8611,3.8611,3.8611,3.8611,3.8611,3.8611,3.8611,3.8611,1.8229,1.8192,1.8381,1.7864,1.843,0.0,1.9296,1.9409,2.0425,2.3728,2.4566,2.5544,2.8247,2.9628,3.0211,2.9779,3.1984,3.4371,3.6153,3.6405,3.6582,3.7135,3.7663,0.0,3.8843,3.9396,3.9697,3.9697,3.9697,3.9697,3.9697,3.9697,3.9697,3.9697,3.9697,3.9697,3.9697,3.9697,3.9697,3.9697,3.9697,3.9923,4.0322,3.9337,3.9153,3.9575,3.8947,3.8491,3.8134,3.7122,3.6729,3.6669,3.6051,3.4995,3.3839,3.3513,3.3386,3.3386,3.3386,3.3711,3.4173,3.457,3.5019,3.5469,3.5898,3.5982,3.5982,3.5982,3.5982,3.5982,3.5982,3.5982,3.5982,3.5982,3.5982,3.5982,3.5982,3.5982,3.5982,3.5982,3.5982,3.5982,3.5982,3.5982,3.5982,3.5982,3.5982,3.5982,3.5982,3.6406,3.6675,3.6577,3.6992,3.7402,3.7656,3.7832,3.8066,3.8418,3.8571,3.8611,3.8611,3.8611,3.8611,3.8611,3.8611,3.8611,3.8611,3.8611,3.8611,3.8611,3.8611,3.8611,1.8341,1.8003,1.8204,1.8204,1.8405,0.0,0.0,1.9648,2.0376,2.3718,2.4155,2.4632,2.6884,2.7745,2.8197,2.8455,3.0834,3.2842,3.3442,3.5175,3.6505,3.6758,0.0,0.0,3.8417,3.9195,3.9697,3.9697,3.9697,3.9697,3.9697,3.9697,3.9697,3.9697,3.9697,3.9697,3.9697,3.9697,3.9697,3.9697,3.9697,3.9973,4.0447,3.8591,3.8073,3.8522,3.7465,3.6539,3.5827,3.5806,3.5335,3.4612,3.4612,3.4101,3.3386,3.3386,3.3386,3.3425,3.3672,3.4023,3.4453,3.4902,3.5351,3.5742,3.5923,3.5982,3.5982,3.5982,3.5982,3.5982,3.5982,3.5982,3.5982,3.5982,3.5982,3.5982,3.5982,3.5982,3.5982,3.5982,3.5982,3.5982,3.5982,3.5982,3.5982,3.5982,3.6211,3.6348,3.6348,3.6894,3.7226,3.7012,3.7559,3.793,3.7894,3.8125,3.834,3.8591,3.8611,3.8611,3.8611,3.8611,3.8611,3.8611,3.8611,3.8611,3.8611,3.8611,3.8611,3.8611,3.8611,3.8611,1.8856,1.8341,1.8581,1.8907,1.8681,1.8844,0.0,0.0,0.0,2.4111,2.4447,2.4481,2.5511,2.5804,2.6113,2.6874,0.0,0.0,0.0,3.2587,0.0,3.5251,0.0,0.0,0.0,3.8366,3.912,3.9647,3.9195,3.912,3.9672,3.9697,3.9697,3.9697,3.9697,3.9697,3.9697,3.9697,3.9697,3.9697,3.9697,3.9867,4.012,3.7719,3.6791,3.7023,3.5851,3.4612,3.3513,3.4798,3.4581,3.3386,3.3386,3.3386,3.3386,3.3386,3.3386,3.3464,3.3958,3.4336,3.4766,3.5234,3.5684,3.5982,3.5982,3.5982,3.5982,3.5982,3.5982,3.5982,3.5982,3.5982,3.5982,3.5982,3.5982,3.5982,3.5982,3.5982,3.5982,3.5982,3.5982,3.5982,3.5982,3.5982,3.6021,3.6133,3.6465,3.6773,3.6812,3.7461,3.7793,3.7461,3.8141,3.8437,3.8086,3.8379,3.8611,3.8611,3.8611,3.8611,3.8611,3.8611,3.8611,3.8611,3.8611,3.8611,3.8611,3.8611,3.8611,3.8611,3.8611,3.8611,2.1909,2.1744,2.1892,1.9584,2.0362,2.0927,1.7866,0.0,1.848,1.8442,0.0,1.9233,1.9835,0.0,0.0,0.0,0.0,0.0,2.4833,2.7627,3.0136,3.116,3.5253,0.0,0.0,3.5884,3.7011,3.9496,3.7388,3.7062,3.9572,3.9697,3.9697,3.9697,3.9697,3.9697,3.9697,3.9697,3.9697,3.9697,3.9697,3.9465,3.9038,3.7349,3.6384,3.5905,3.4363,3.3576,3.3418,3.3607,3.3576,3.3386,3.3386,3.3386,3.3386,3.3386,3.3386,3.3464,3.3958,3.4336,3.4766,3.5234,3.5684,3.5982,3.5982,3.5982,3.5982,3.5982,3.5982,3.5982,3.5982,3.5982,3.5982,3.5982,3.5982,3.5982,3.5982,3.5982,3.5982,3.5982,3.5982,3.5982,3.5982,3.5982,3.6152,3.6577,3.6758,3.6953,3.7187,3.7637,3.7874,3.7851,3.8281,3.8591,3.8532,3.8591,3.8611,3.8611,3.8611,3.8611,3.8611,3.8611,3.8611,3.8611,3.8611,3.8611,3.8611,3.8611,3.8611,3.8611,3.8611,3.8611,2.1658,2.2046,2.2594,2.0514,2.0916,2.1066,1.8142,1.7339,1.7339,1.7777,0.0,0.0,0.0,0.0,0.0,0.0,2.1716,0.0,0.0,0.0,2.8524,0.0,0.0,0.0,0.0,0.0,0.0,0.0,3.7087,3.6735,3.9546,3.9697,3.9697,3.9697,3.9697,3.9697,3.9697,3.9697,3.9697,3.9697,4.0023,3.973,3.886,3.7639,3.661,3.5714,3.4101,3.3386,3.3386,3.3386,3.3386,3.3386,3.3386,3.3386,3.3386,3.3386,3.3574,3.3867,3.4297,3.4726,3.5176,3.5605,3.5879,3.5982,3.5982,3.5982,3.5982,3.5982,3.5982,3.5982,3.5982,3.5982,3.5982,3.5982,3.5982,3.5982,3.5982,3.5982,3.5982,3.5982,3.5982,3.6094,3.6348,3.6191,3.6309,3.7148,3.7324,3.7441,3.7637,3.8027,3.8301,3.8301,3.8476,3.8611,3.8611,3.8611,3.8611,3.8611,3.8611,3.8611,3.8611,3.8611,3.8611,3.8611,3.8611,3.8611,3.8611,3.8611,3.8611,3.8611,3.8611,3.8611,2.2613,2.3025,2.3477,2.1055,2.0867,2.0653,1.8279,1.7565,1.7565,1.8103,1.8142,0.0,0.0,0.0,1.8467,1.8933,0.0,2.173,0.0,2.3015,2.5686,0.0,0.0,0.0,0.0,0.0,0.0,0.0,0.0,0.0,3.9496,3.9697,3.9697,3.9697,3.9697,3.9697,3.9697,3.9697,3.9697,3.9697,3.9804,3.9282,3.8241,3.7202,3.6149,3.5088,3.3902,3.3386,3.3386,3.3386,3.3386,3.3386,3.3386,3.3386,3.3437,3.3523,3.3809,3.4192,3.4707,3.5176,3.5605,3.5918,3.5982,3.5982,3.5982,3.5982,3.5982,3.5982,3.5982,3.5982,3.5982,3.5982,3.5982,3.5982,3.5982,3.5982,3.5982,3.6113,3.6191,3.6191,3.623,3.6367,3.6714,3.6601,3.6758,3.7578,3.7832,3.7988,3.8086,3.8379,3.8611,3.8611,3.8611,3.8611,3.8611,3.8611,3.8611,3.8611,3.8611,3.8611,3.8611,3.8611,3.8611,3.8611,3.8611,3.8611,3.8611,3.8611,3.8611,3.8611,3.8611,3.8611,2.6339,2.5904,2.5343,2.0916,2.0276,1.9987,1.7188,1.8192,1.9409,1.8405,2.0275,2.182,2.0792,2.0604,2.0226,1.9158,1.9522,0.0,0.0,1.9183,2.0086,2.2282,0.0,0.0,0.0,0.0,0.0,0.0,0.0,0.0,3.9396,3.9697,3.9697,3.9697,3.9697,3.9697,3.9697,3.9697,3.9697,3.9697,3.8645,3.7646,3.6624,3.555,3.4483,3.3481,3.3418,3.3386,3.3386,3.3386,3.3386,3.3386,3.3386,3.3386,3.3476,3.3887,3.4095,3.4231,3.5078,3.5644,3.5962,3.6016,3.5982,3.5982,3.5982,3.5982,3.5982,3.5982,3.5982,3.5982,3.5982,3.5982,3.5982,3.5982,3.5982,3.5982,3.5982,3.6348,3.6675,3.6675,3.6758,3.6875,3.6875,3.7305,3.7656,3.7695,3.8184,3.8591,3.8591,3.8611,3.8611,3.8611,3.8611,3.8611,3.8611,3.8611,3.8611,3.8611,3.8611,3.8611,3.8611,3.8611,3.8611,3.8611,3.8611,3.8611,3.8611,3.8611,3.8611,3.8611,3.8611,3.8611,0.0,0.0,2.8147,2.3678,2.3,2.2397,1.8518,1.8744,1.951,1.843,2.0112,2.1418,2.0326,2.044,2.0339,1.9183,1.9786,1.9824,0.0,0.0,0.0,0.0,0.0,0.0,0.0,0.0,0.0,0.0,0.0,0.0,0.0,3.9697,3.9697,3.9697,3.9697,3.9697,3.9697,3.9697,3.9697,3.9671,3.8954,3.7915,3.6589,3.5849,3.4748,3.3386,3.3386,3.3386,3.3386,3.3386,3.3386,3.3386,3.3386,3.3594,3.3867,3.4055,3.429,3.4609,3.5508,3.5898,3.5982,3.5982,3.5982,3.5982,3.5982,3.5982,3.5982,3.5982,3.5982,3.5982,3.5982,3.5982,3.5982,3.5982,3.5982,3.6094,3.6387,3.6597,3.6792,3.7066,3.7129,3.7246,3.7539,3.7734,3.7949,3.8242,3.8493,3.8611,3.8611,3.8611,3.8611,3.8611,3.8611,3.8611,3.8611,3.8611,3.8611,3.8611,3.8611,3.8611,3.8611,3.8611,3.8611,3.8611,3.8611,3.8611,3.8611,3.8611,3.8611,3.8611,3.8611,3.8611,2.9151,2.993,0.0,2.6113,2.5586,0.0,2.0877,2.1091,2.187,2.0777,2.1694,2.2824,2.3276,2.2211,2.1155,2.0827,2.0388,0.0,0.0,1.7727,0.0,0.0,0.0,0.0,0.0,0.0,0.0,0.0,0.0,0.0,0.0,0.0,3.9697,3.9697,3.9697,3.9697,3.9697,3.9697,3.9697,3.9671,3.8605,3.757,3.656,3.5447,3.4383,3.3386,3.3386,3.3386,3.3386,3.3386,3.3386,3.3406,3.3594,3.3828,3.4114,3.4271,3.4668,3.5254,3.582,3.5982,3.5982,3.5982,3.5982,3.5982,3.5982,3.5982,3.6021,3.6211,3.6133,3.6055,3.6211,3.6133,3.6021,3.6211,3.625,3.6367,3.6832,3.7012,3.7187,3.7461,3.7637,3.7832,3.8105,3.8164,3.8242,3.8535,3.8611,3.8611,3.8611,3.8611,3.8611,3.8611,3.8611,3.8611,3.8611,3.8611,3.8611,3.8611,3.8611,3.8611,3.8611,3.8611,3.8611,3.8611,3.8611,3.8611,3.8611,3.8611,3.8611,3.8611,3.8611,3.8689]},{"header":{"parameterUnit":"m.s-1","parameterCategory":1,"la1":30.6,"la2":29.2853,"lo1":-89.7004,"lo2":-87.6739,"dx":0.0162,"dy":0.0183,"nx":112,"ny":82,"refTime":"2022-11-05T00:00:00:Z","depth":0,"parameterNumber":3,"parameterNumberName":"V-component_of_WINDS"},"data":[0.0,0.0,0.0,0.0,0.0,0.0,0.0,0.0,0.0,0.0,0.0,0.0,0.0,0.0,0.0,0.0,0.0,0.0,0.0,0.0,0.0,0.0,0.0,0.0,0.0,0.0,0.0,0.0,0.0,0.0,0.0,0.0,0.0,0.0,0.0,0.0,0.0,0.0,0.0,0.0,0.0,0.0,0.0,0.0,0.0,0.0,0.0,0.0,0.0,0.0,0.0,0.0,0.0,0.0,0.0,0.0,0.0,0.0,0.0,0.0,0.0,0.0,0.0,0.0,0.0,0.0,0.0,0.0,0.0,0.0,0.0,0.0,0.0,0.0,0.0,0.0,0.0,0.0,0.0,0.0,0.0,0.0,0.0,0.0,0.0,0.0,0.0,0.0,0.0,0.0,2.6033,2.7991,2.9219,2.9907,2.9907,2.9907,2.8427,2.4963,0.0,0.0,0.0,0.0,0.0,0.0,0.0,0.0,0.0,0.0,0.0,0.0,0.0,0.0,0.0,0.0,0.0,0.0,0.0,0.0,0.0,0.0,0.0,0.0,0.0,0.0,0.0,0.0,0.0,0.0,0.0,0.0,0.0,0.0,0.0,0.0,0.0,0.0,0.0,0.0,0.0,0.0,0.0,0.0,0.0,0.0,0.0,0.0,0.0,0.0,0.0,0.0,0.0,0.0,0.0,0.0,0.0,0.0,0.0,0.0,0.0,0.0,0.0,0.0,0.0,0.0,0.0,0.0,0.0,0.0,0.0,0.0,0.0,0.0,0.0,0.0,0.0,0.0,0.0,0.0,0.0,0.0,0.0,0.0,0.0,0.0,0.0,0.0,0.0,0.0,0.0,0.0,0.0,0.0,0.0,0.0,0.0,0.0,0.0,0.0,0.0,0.0,0.0,0.0,2.5693,3.0404,3.1092,3.1212,3.1212,3.1212,2.9567,2.5693,0.0,0.0,0.0,0.0,0.0,0.0,0.0,0.0,0.0,0.0,0.0,0.0,0.0,0.0,0.0,0.0,0.0,0.0,0.0,0.0,0.0,0.0,0.0,0.0,0.0,0.0,0.0,0.0,0.0,0.0,0.0,0.0,0.0,0.0,0.0,0.0,0.0,0.0,0.0,0.0,0.0,0.0,0.0,0.0,0.0,0.0,0.0,0.0,0.0,0.0,0.0,0.0,0.0,0.0,0.0,0.0,0.0,0.0,0.0,0.0,0.0,0.0,0.0,0.0,0.0,0.0,0.0,0.0,0.0,0.0,0.0,0.0,0.0,0.0,0.0,0.0,0.0,0.0,0.0,0.0,0.0,0.0,0.0,0.0,0.0,0.0,0.0,0.0,0.0,0.0,0.0,0.0,0.0,0.0,0.0,0.0,0.0,0.0,0.0,0.0,0.0,0.0,0.0,2.5177,2.7637,3.1122,3.1511,3.1511,3.1511,3.1511,2.9806,2.5842,2.4963,0.0,0.0,0.0,0.0,0.0,0.0,0.0,0.0,0.0,0.0,0.0,0.0,0.0,0.0,0.0,0.0,0.0,0.0,0.0,0.0,0.0,0.0,0.0,0.0,0.0,0.0,0.0,0.0,0.0,0.0,0.0,0.0,0.0,0.0,0.0,0.0,0.0,0.0,0.0,0.0,0.0,0.0,0.0,0.0,0.0,0.0,0.0,0.0,0.0,0.0,0.0,0.0,0.0,0.0,0.0,0.0,0.0,0.0,0.0,0.0,0.0,0.0,0.0,0.0,0.0,0.0,0.0,0.0,0.0,0.0,0.0,0.0,0.0,0.0,0.0,0.0,0.0,0.0,0.0,0.0,0.0,0.0,0.0,0.0,0.0,0.0,0.0,0.0,0.0,0.0,0.0,0.0,0.0,0.0,0.0,0.0,0.0,0.0,0.0,0.0,0.0,0.0,2.8427,3.0089,3.157,3.175,3.175,3.175,3.16,2.9806,2.5842,2.4825,0.0,0.0,0.0,0.0,0.0,0.0,0.0,0.0,0.0,0.0,0.0,0.0,0.0,0.0,0.0,0.0,0.0,0.0,0.0,0.0,0.0,0.0,0.0,0.0,0.0,0.0,0.0,0.0,0.0,0.0,0.0,0.0,0.0,0.0,0.0,0.0,0.0,0.0,0.0,0.0,0.0,0.0,0.0,0.0,0.0,0.0,0.0,0.0,0.0,0.0,0.0,0.0,0.0,0.0,0.0,0.0,0.0,0.0,0.0,0.0,0.0,0.0,0.0,0.0,0.0,0.0,0.0,0.0,0.0,0.0,0.0,0.0,0.0,0.0,0.0,0.0,0.0,0.0,0.0,0.0,0.0,0.0,0.0,0.0,0.0,0.0,0.0,0.0,0.0,0.0,0.0,0.0,0.0,0.0,0.0,0.0,0.0,0.0,0.0,0.0,0.0,0.0,2.9162,3.2273,3.2422,3.2422,3.2422,3.2422,3.1869,2.9806,2.5842,2.4388,0.0,0.0,0.0,0.0,0.0,0.0,0.0,0.0,0.0,0.0,0.0,0.0,0.0,0.0,0.0,0.0,0.0,0.0,0.0,0.0,0.0,0.0,0.0,0.0,0.0,0.0,0.0,0.0,0.0,0.0,0.0,0.0,0.0,0.0,0.0,0.0,0.0,0.0,0.0,0.0,0.0,0.0,0.0,0.0,0.0,0.0,0.0,0.0,0.0,0.0,0.0,0.0,0.0,0.0,0.0,0.0,0.0,0.0,0.0,0.0,0.0,0.0,0.0,0.0,0.0,0.0,0.0,0.0,0.0,0.0,0.0,0.0,0.0,0.0,0.0,0.0,0.0,0.0,0.0,0.0,0.0,0.0,0.0,0.0,0.0,0.0,0.0,0.0,0.0,0.0,0.0,0.0,0.0,0.0,0.0,0.0,0.0,0.0,0.0,0.0,0.0,0.0,2.9013,3.1734,3.3006,3.3125,3.3125,3.3125,3.2886,3.0881,2.6482,0.0,0.0,0.0,0.0,0.0,0.0,0.0,0.0,0.0,0.0,0.0,0.0,0.0,0.0,0.0,0.0,0.0,0.0,0.0,0.0,0.0,0.0,0.0,0.0,0.0,0.0,0.0,0.0,0.0,0.0,0.0,0.0,0.0,0.0,0.0,0.0,0.0,0.0,0.0,0.0,0.0,0.0,0.0,0.0,0.0,0.0,0.0,0.0,0.0,0.0,0.0,0.0,0.0,0.0,0.0,0.0,0.0,0.0,0.0,0.0,0.0,0.0,0.0,0.0,0.0,0.0,0.0,0.0,0.0,0.0,0.0,0.0,0.0,0.0,0.0,0.0,0.0,0.0,0.0,0.0,0.0,0.0,0.0,0.0,0.0,0.0,0.0,0.0,0.0,0.0,0.0,0.0,0.0,0.0,0.0,0.0,0.0,0.0,0.0,0.0,0.0,0.0,2.6255,2.9638,3.2287,3.3679,3.3829,3.3829,3.3829,3.3604,3.1524,2.6884,0.0,0.0,0.0,0.0,0.0,0.0,0.0,0.0,0.0,0.0,0.0,0.0,0.0,0.0,0.0,0.0,0.0,0.0,0.0,0.0,0.0,0.0,0.0,0.0,0.0,0.0,0.0,0.0,0.0,0.0,0.0,0.0,0.0,0.0,0.0,0.0,0.0,0.0,0.0,0.0,0.0,0.0,0.0,0.0,0.0,0.0,0.0,0.0,0.0,0.0,0.0,0.0,0.0,0.0,0.0,0.0,0.0,0.0,0.0,0.0,0.0,0.0,0.0,0.0,0.0,0.0,0.0,0.0,0.0,0.0,0.0,0.0,0.0,0.0,0.0,0.0,0.0,0.0,0.0,0.0,0.0,0.0,0.0,0.0,0.0,0.0,0.0,0.0,0.0,0.0,0.0,0.0,0.0,0.0,0.0,0.0,0.0,0.0,0.0,0.0,0.0,0.0,2.6435,3.1225,3.4488,3.4488,3.4488,3.4488,3.4488,3.3889,3.1539,0.0,0.0,0.0,0.0,0.0,0.0,0.0,0.0,0.0,0.0,0.0,0.0,0.0,0.0,0.0,0.0,0.0,0.0,0.0,0.0,0.0,0.0,0.0,0.0,0.0,0.0,0.0,0.0,0.0,0.0,0.0,0.0,0.0,0.0,0.0,0.0,0.0,0.0,0.0,0.0,0.0,0.0,0.0,0.0,0.0,0.0,0.0,0.0,0.0,0.0,0.0,0.0,0.0,0.0,0.0,0.0,0.0,0.0,0.0,0.0,0.0,0.0,0.0,0.0,0.0,0.0,0.0,0.0,0.0,0.0,0.0,0.0,0.0,0.0,0.0,0.0,0.0,0.0,0.0,0.0,0.0,0.0,0.0,0.0,0.0,0.0,0.0,0.0,0.0,0.0,0.0,0.0,0.0,0.0,0.0,0.0,0.0,0.0,0.0,0.0,0.0,0.0,0.0,2.7123,3.1943,3.519,3.519,3.519,3.519,3.519,3.5011,3.2736,2.7645,0.0,0.0,0.0,0.0,0.0,0.0,0.0,0.0,0.0,0.0,0.0,0.0,0.0,0.0,0.0,0.0,0.0,0.0,0.0,0.0,0.0,0.0,0.0,0.0,0.0,0.0,0.0,0.0,0.0,0.0,0.0,0.0,0.0,0.0,0.0,0.0,0.0,0.0,0.0,0.0,0.0,0.0,0.0,0.0,0.0,0.0,0.0,0.0,0.0,0.0,0.0,0.0,0.0,0.0,0.0,0.0,0.0,0.0,0.0,0.0,0.0,0.0,0.0,0.0,0.0,0.0,0.0,0.0,0.0,0.0,0.0,0.0,0.0,0.0,0.0,0.0,0.0,0.0,0.0,0.0,0.0,0.0,0.0,0.0,0.0,0.0,0.0,0.0,0.0,0.0,0.0,0.0,0.0,0.0,0.0,0.0,0.0,0.0,0.0,0.0,0.0,0.0,2.7435,3.2212,3.5519,3.5519,3.5519,3.5519,3.5519,3.5519,3.3694,2.9415,0.0,0.0,0.0,0.0,0.0,0.0,0.0,0.0,0.0,0.0,0.0,0.0,0.0,0.0,0.0,0.0,0.0,0.0,0.0,0.0,0.0,0.0,0.0,0.0,0.0,0.0,0.0,0.0,0.0,0.0,0.0,0.0,0.0,0.0,0.0,0.0,0.0,0.0,0.0,0.0,0.0,0.0,0.0,0.0,0.0,0.0,0.0,0.0,0.0,0.0,0.0,0.0,0.0,0.0,0.0,0.0,0.0,0.0,0.0,0.0,0.0,0.0,0.0,0.0,0.0,0.0,0.0,0.0,0.0,0.0,0.0,0.0,0.0,0.0,0.0,0.0,0.0,0.0,0.0,0.0,0.0,0.0,0.0,0.0,0.0,0.0,0.0,0.0,0.0,0.0,0.0,0.0,0.0,0.0,0.0,0.0,0.0,0.0,0.0,0.0,0.0,0.0,2.7525,3.2258,3.5519,3.5519,3.5519,3.5519,3.5519,3.5519,3.4366,3.166,0.0,0.0,0.0,0.0,0.0,0.0,0.0,0.0,0.0,0.0,0.0,0.0,0.0,0.0,0.0,0.0,0.0,0.0,0.0,0.0,0.0,0.0,0.0,0.0,0.0,0.0,0.0,0.0,0.0,0.0,0.0,0.0,0.0,0.0,0.0,0.0,0.0,0.0,0.0,0.0,0.0,0.0,0.0,0.0,0.0,0.0,0.0,0.0,0.0,0.0,0.0,0.0,0.0,0.0,0.0,0.0,0.0,0.0,0.0,0.0,2.1335,0.0,0.0,0.0,0.0,0.0,0.0,0.0,0.0,0.0,0.0,0.0,0.0,0.0,0.0,0.0,0.0,0.0,0.0,0.0,0.0,0.0,0.0,0.0,0.0,0.0,0.0,0.0,0.0,0.0,0.0,0.0,0.0,0.0,0.0,0.0,0.0,0.0,0.0,0.0,0.0,0.0,2.8218,3.2557,3.5519,3.5519,3.5519,3.5519,3.5519,3.5519,3.4366,3.166,3.0358,0.0,0.0,0.0,0.0,0.0,0.0,0.0,0.0,0.0,0.0,0.0,0.0,0.0,0.0,0.0,0.0,0.0,0.0,0.0,0.0,0.0,0.0,0.0,0.0,0.0,0.0,0.0,0.0,0.0,0.0,0.0,0.0,0.0,0.0,0.0,0.0,0.0,0.0,0.0,0.0,0.0,0.0,0.0,0.0,0.0,0.0,0.0,0.0,0.0,0.0,0.0,0.0,0.0,0.0,0.0,0.0,0.0,0.0,0.0,0.0,2.2483,0.0,0.0,0.0,0.0,0.0,0.0,0.0,0.0,0.0,0.0,0.0,0.0,0.0,0.0,0.0,0.0,0.0,0.0,0.0,0.0,0.0,0.0,0.0,0.0,0.0,0.0,0.0,0.0,0.0,0.0,0.0,0.0,0.0,0.0,0.0,0.0,0.0,0.0,0.0,0.0,2.9295,3.3544,3.64,3.64,3.6148,3.5968,3.5968,3.5699,3.4905,3.3529,3.1884,0.0,0.0,0.0,0.0,0.0,0.0,0.0,0.0,0.0,0.0,0.0,0.0,0.0,0.0,0.0,0.0,0.0,0.0,0.0,0.0,0.0,0.0,0.0,0.0,0.0,0.0,0.0,0.0,0.0,0.0,0.0,0.0,0.0,0.0,0.0,0.0,0.0,0.0,0.0,0.0,0.0,0.0,0.0,0.0,0.0,0.0,0.0,0.0,0.0,0.0,0.0,0.0,0.0,2.5722,2.644,2.6991,2.6991,2.7876,2.9295,2.6542,2.6632,2.8487,2.4668,0.0,0.0,0.0,0.0,0.0,0.0,0.0,0.0,0.0,0.0,0.0,0.0,0.0,0.0,0.0,0.0,0.0,0.0,0.0,0.0,0.0,0.0,0.0,0.0,3.0642,3.1615,0.0,0.0,0.0,0.0,0.0,0.0,0.0,0.0,0.0,0.0,0.0,0.0,3.0911,3.4831,3.7387,3.7387,3.6956,3.6673,3.6673,3.6148,3.5848,3.5848,3.3768,3.2093,0.0,0.0,0.0,0.0,0.0,0.0,0.0,0.0,0.0,0.0,0.0,0.0,0.0,0.0,0.0,0.0,0.0,0.0,0.0,0.0,0.0,0.0,0.0,0.0,0.0,0.0,0.0,0.0,0.0,0.0,0.0,0.0,2.001,2.027,0.0,0.0,0.0,0.0,0.0,0.0,0.0,0.0,0.0,0.0,0.0,0.0,0.0,2.3618,2.5007,2.7457,2.8979,2.9624,3.145,3.2377,3.2467,3.2467,3.2587,3.2826,3.2377,0.0,2.9428,2.88,0.0,0.0,0.0,0.0,0.0,0.0,0.0,0.0,0.0,0.0,0.0,0.0,0.0,0.0,0.0,0.0,0.0,0.0,0.0,0.0,0.0,0.0,3.3739,3.4322,3.4725,3.4891,0.0,3.0775,2.7195,2.6255,2.6015,0.0,0.0,0.0,0.0,0.0,0.0,0.0,3.356,3.5968,3.7387,3.7387,3.7345,3.7285,3.7285,3.7195,3.7148,3.7148,3.6819,3.5563,3.3185,3.1675,0.0,0.0,0.0,0.0,0.0,0.0,0.0,0.0,0.0,0.0,0.0,0.0,0.0,0.0,0.0,0.0,0.0,0.0,0.0,0.0,0.0,0.0,0.0,0.0,0.0,0.0,0.0,0.0,0.0,1.8963,2.0967,2.1724,2.0369,1.8954,0.0,0.0,0.0,0.0,0.0,0.0,0.0,0.0,0.0,2.7003,2.735,2.8308,3.0013,3.118,3.1898,3.2198,3.3066,3.3484,3.3484,3.3484,3.3484,3.3514,3.3889,3.341,3.2242,3.0746,2.9056,2.735,0.0,0.0,0.0,0.0,2.5926,2.6135,2.8205,2.891,2.876,2.7726,0.0,0.0,0.0,0.0,0.0,0.0,0.0,0.0,0.0,0.0,3.3724,3.516,3.5789,3.6058,3.6058,3.4518,3.2467,0.0,2.9924,2.8727,2.4986,0.0,0.0,0.0,0.0,3.3141,3.5326,3.7315,3.8524,3.8524,3.8182,3.7973,3.7973,3.7614,3.7387,3.7387,3.7866,3.7417,3.5745,3.4197,3.2258,0.0,0.0,0.0,0.0,0.0,0.0,0.0,0.0,0.0,0.0,0.0,0.0,0.0,0.0,0.0,0.0,0.0,0.0,0.0,0.0,0.0,0.0,0.0,0.0,0.0,0.0,0.0,0.0,2.0737,2.2432,2.3112,2.2622,2.1415,0.0,0.0,0.0,0.0,0.0,0.0,2.5704,2.6462,2.8218,3.118,3.127,3.2078,3.3739,3.3769,3.3844,3.3993,3.3993,3.3993,3.3993,3.3993,3.3993,3.4053,3.4548,3.4757,3.4607,3.2587,3.148,3.0881,2.9428,2.865,2.844,2.9295,2.9385,2.9442,3.1734,3.2527,3.2362,3.142,3.0941,3.0299,2.7846,0.0,0.0,0.0,0.0,3.0029,3.2019,3.302,3.3903,3.54,3.6237,3.6733,3.6733,3.7075,3.6669,0.0,3.3738,3.2482,2.8577,0.0,0.0,0.0,3.2542,3.5416,3.7272,3.8601,3.9481,3.9631,3.905,3.8661,3.8661,3.8212,3.7896,3.7896,3.8534,3.8601,3.793,3.6498,3.5502,3.5053,0.0,0.0,0.0,0.0,0.0,0.0,0.0,0.0,0.0,0.0,0.0,0.0,0.0,0.0,0.0,0.0,0.0,0.0,0.0,0.0,0.0,0.0,0.0,0.0,0.0,0.0,0.0,0.0,0.0,2.4664,2.5573,0.0,0.0,0.0,0.0,2.5131,2.534,2.6817,3.0016,3.0239,3.121,3.3275,3.3335,3.3709,3.4444,3.4428,3.4787,3.54,3.54,3.54,3.54,3.54,3.54,3.54,3.5429,3.5459,3.5459,3.531,3.4127,3.2392,3.2303,3.1465,3.0522,3.1824,3.2706,3.3395,3.4801,3.531,3.528,3.5204,3.3499,3.1421,3.1241,2.994,0.0,0.0,3.175,3.2751,3.4801,3.5789,3.6297,3.6434,3.6896,3.7357,3.7357,3.7375,3.7357,0.0,3.7148,3.6507,3.4398,0.0,3.4458,3.5011,3.531,3.6596,3.9798,3.972,3.9631,4.0277,3.975,3.9361,3.9361,3.9331,3.9302,3.9302,3.9338,3.9356,3.9302,3.8577,3.7428,3.5771,3.4959,0.0,0.0,0.0,0.0,0.0,0.0,0.0,0.0,0.0,0.0,0.0,0.0,0.0,0.0,0.0,0.0,0.0,0.0,0.0,0.0,0.0,0.0,0.0,0.0,0.0,0.0,0.0,0.0,2.6004,2.6704,0.0,2.5656,2.6704,2.7812,2.8697,2.9953,3.139,3.2991,3.3081,3.3604,3.4741,3.4801,3.4891,3.513,3.513,3.525,3.5519,3.5519,3.5519,3.5519,3.5519,3.5519,3.5519,3.5519,3.5519,3.5519,3.5519,3.51,3.4426,3.4426,3.4143,3.3784,3.4247,3.4592,3.4861,3.534,3.5519,3.5519,3.5519,3.4845,3.4067,3.4067,3.3903,3.3829,3.4532,3.516,3.5802,3.6537,3.6896,3.7075,3.7075,3.7554,3.8033,3.8033,3.8721,3.932,3.932,3.8631,3.7554,3.6044,3.7182,3.7943,3.6896,3.8182,3.9727,4.0894,4.0816,4.0756,4.1014,4.0834,4.0696,4.0696,4.0696,4.0696,4.0696,4.1758,4.2181,4.1628,4.2009,4.1981,4.1353,4.0625,3.769,0.0,0.0,0.0,0.0,0.0,0.0,0.0,0.0,0.0,0.0,0.0,0.0,0.0,0.0,0.0,0.0,0.0,0.0,0.0,0.0,0.0,0.0,0.0,0.0,0.0,2.5435,2.7692,2.7003,2.8321,2.8889,2.8008,2.9728,3.1195,3.1779,3.3081,3.4128,3.4787,3.4847,3.504,3.5489,3.5519,3.5519,3.5519,3.5519,3.5519,3.5519,3.5519,3.5519,3.5519,3.5519,3.5519,3.5519,3.5519,3.5519,3.5519,3.5519,3.5519,3.5519,3.5519,3.5519,3.5519,3.5519,3.5519,3.5519,3.5519,3.5519,3.5549,3.5759,3.5848,3.5878,3.6088,3.6447,3.6806,3.6806,3.7105,3.7387,3.7387,3.7584,3.7734,3.7734,3.8422,3.905,3.905,3.9948,4.0726,4.0726,4.0026,3.9158,3.829,3.9607,4.0217,3.8661,4.0127,4.1403,4.1403,4.1403,4.1493,4.1703,4.1523,4.1403,4.1403,4.0984,4.0924,4.1373,4.2408,4.2937,4.2794,4.3088,4.336,4.3634,4.3444,4.0612,3.5095,0.0,0.0,0.0,0.0,0.0,0.0,0.0,0.0,0.0,0.0,0.0,0.0,0.0,0.0,0.0,0.0,0.0,0.0,0.0,0.0,0.0,0.0,0.0,2.4874,2.7009,2.8487,2.7824,3.0582,3.2033,3.0761,3.2377,3.3829,3.4488,3.4518,3.4817,3.5459,3.5519,3.5519,3.5519,3.5519,3.5519,3.5519,3.5519,3.5519,3.5519,3.5519,3.5519,3.5533,3.5549,3.5579,3.5579,3.5579,3.5579,3.5579,3.5579,3.5579,3.5579,3.5519,3.5519,3.5519,3.5519,3.5533,3.5579,3.5579,3.5579,3.5669,3.6297,3.6523,3.6643,3.7225,3.7417,3.7434,3.7434,3.7464,3.7477,3.7494,3.7973,3.8469,3.8499,3.9469,4.0427,4.0427,4.0954,4.1433,4.1433,4.1463,4.1463,4.1433,4.1433,4.1224,4.0576,4.1025,0.0,4.1463,4.1463,4.1703,4.2291,4.1792,4.1403,4.1403,4.0217,4.0038,4.1411,4.1172,4.1545,4.2896,4.1782,4.1489,4.2316,4.2981,4.2112,3.9625,0.0,0.0,0.0,0.0,0.0,0.0,0.0,0.0,0.0,0.0,0.0,0.0,0.0,0.0,0.0,0.0,0.0,0.0,0.0,0.0,0.0,2.5117,2.7195,2.6824,2.9475,3.1346,3.118,3.2377,3.3275,3.338,3.3889,3.4488,3.516,3.522,3.531,3.5489,3.5519,3.5519,3.5519,3.5519,3.5519,3.5519,3.5519,3.5519,3.5519,3.5998,3.6224,3.6254,3.6686,3.6896,3.6896,3.6896,3.6896,3.6896,3.6896,3.6896,3.6806,3.5878,3.5789,3.6224,3.6224,3.6507,3.6896,3.6896,3.6896,3.6926,3.7105,3.7165,3.7195,3.7357,3.7734,3.8123,3.8123,3.8482,3.8943,3.9439,3.9709,3.9978,4.0475,4.0864,4.1134,4.1134,4.1643,4.2141,4.2141,4.2462,4.2641,4.2182,4.2141,4.2211,4.2472,4.2651,0.0,4.2771,4.2771,4.2491,4.1762,4.1523,4.1403,4.1403,4.1074,4.1723,4.3745,4.4383,4.5181,4.6232,4.6085,4.5845,4.5532,4.2794,4.1023,0.0,0.0,0.0,0.0,0.0,0.0,0.0,0.0,0.0,0.0,0.0,0.0,0.0,0.0,0.0,0.0,0.0,0.0,0.0,0.0,0.0,0.0,2.7919,2.9758,3.0027,3.148,3.2691,3.3275,3.3664,3.4188,3.4847,3.4937,3.507,3.5459,3.5519,3.5519,3.5519,3.5519,3.5519,3.5519,3.5519,3.5639,3.5908,3.5908,3.6058,3.6297,3.6686,3.6866,3.6896,3.7255,3.7387,3.7387,3.7387,3.7387,3.7387,3.7387,3.7387,0.0,0.0,0.0,0.0,0.0,3.7105,3.7387,3.7387,3.7387,3.7464,3.7734,3.7823,3.7883,3.8135,3.8721,3.923,3.923,3.9709,4.0337,4.0696,4.0816,4.0924,4.1313,4.1613,4.1822,4.1822,4.2541,4.3199,4.3199,4.3718,0.0,4.3678,4.3379,4.3299,4.3668,4.3967,4.4027,4.3758,4.3967,4.3848,4.311,4.305,4.305,4.305,4.2521,0.0,0.0,0.0,4.6702,4.7696,4.783,0.0,0.0,0.0,0.0,0.0,0.0,0.0,0.0,4.0113,3.9412,0.0,0.0,0.0,0.0,0.0,0.0,0.0,0.0,0.0,0.0,0.0,0.0,0.0,0.0,0.0,0.0,3.0911,3.2841,3.353,3.3095,3.3155,3.4368,3.4548,3.4847,3.5459,3.5519,3.5519,3.5519,3.5519,3.5519,3.5519,3.5519,0.0,0.0,0.0,3.5938,3.6613,3.6613,3.6866,3.7387,3.7494,3.7524,3.7524,3.7567,3.7644,3.7644,3.7644,3.7644,3.7644,3.7644,3.7644,3.7614,3.7537,3.7524,3.7524,3.7597,3.7644,3.7644,3.7644,0.0,0.0,3.8422,3.8679,3.8859,3.9469,4.0038,4.0516,4.0516,4.0954,4.1403,4.1493,4.1523,4.1523,4.1613,4.2122,4.262,4.262,4.3559,4.4416,4.4416,4.4885,4.5304,4.5394,4.4855,4.4416,4.4416,4.4915,4.5095,4.4496,4.4945,4.5244,4.5095,0.0,0.0,4.5065,4.3997,4.3978,4.5534,4.6389,4.7273,4.8232,4.8259,4.8259,4.8259,4.8259,4.924,5.1201,5.1201,5.1201,5.1032,4.3775,4.2164,0.0,0.0,0.0,0.0,0.0,0.0,0.0,0.0,0.0,0.0,0.0,0.0,0.0,0.0,0.0,2.9219,3.1614,3.3544,3.4218,3.4188,3.4218,3.4458,3.4997,3.537,3.5489,3.5519,3.5519,3.5519,3.5519,3.5519,3.5519,3.5519,3.5759,3.6284,3.6314,3.6596,3.7225,3.7225,3.7268,3.7417,0.0,0.0,3.8212,3.8763,3.9002,3.9002,3.9002,3.9002,3.9002,3.9002,3.9002,3.8943,3.8422,3.8212,3.8272,3.8793,3.9002,3.9002,3.9002,3.9379,3.9828,3.9978,4.0385,4.0834,4.0965,4.1104,0.0,4.1224,4.1313,4.1523,4.2081,4.2201,4.2331,4.2801,4.3429,4.3928,4.3928,4.4556,4.5095,4.5095,4.5214,4.5454,4.6001,4.5574,4.5095,4.5095,4.5214,4.5244,4.5125,4.5214,4.4885,4.3818,4.3698,4.3698,4.3698,4.3439,4.4571,4.7517,4.9311,5.0337,5.0543,5.0558,5.0558,5.0558,5.0558,5.0761,5.1201,5.1201,5.1201,5.1167,4.9578,4.924,0.0,0.0,0.0,0.0,0.0,0.0,0.0,0.0,0.0,0.0,0.0,2.4758,2.6752,0.0,3.0103,3.1763,3.3141,3.4248,3.4907,3.4997,3.4997,3.4997,3.531,3.5519,3.5519,3.5519,3.5519,3.5519,3.5519,3.5639,3.5968,3.5998,3.6297,3.6926,3.6956,3.7255,3.7883,3.7913,3.8063,3.8404,3.8751,3.8901,3.8901,3.9242,3.9391,3.9391,3.9391,3.9601,3.9948,4.0277,4.0397,4.0367,4.0026,3.9697,3.9469,4.0157,4.0397,4.0397,4.0397,4.0606,4.0894,4.0894,4.1134,4.1403,4.1403,4.1643,4.1882,4.1882,4.2122,4.2521,4.3199,4.3349,4.3509,4.4147,4.4556,4.4796,4.4796,4.5334,4.5813,4.5813,4.6082,4.6411,4.6719,4.6531,4.6292,4.6292,4.6292,4.6292,4.6292,4.6292,4.6052,4.5373,4.5284,4.5284,4.5284,4.5737,4.7212,4.9941,5.0992,5.1782,5.2334,5.2351,5.2351,5.2351,5.2351,5.2351,5.2351,5.2351,5.2351,5.2351,5.2351,5.2131,0.0,0.0,0.0,0.0,0.0,0.0,0.0,2.1904,2.2821,2.5561,2.6548,2.7649,2.9937,3.0865,3.1958,3.4128,3.4607,3.4877,3.5429,3.5519,3.5519,3.5519,3.5519,3.5519,3.5519,3.5519,3.5549,3.5699,3.5699,3.5968,3.6626,3.6656,3.6956,3.7584,3.7567,3.7913,3.8571,3.8571,3.8871,3.9391,3.9391,3.9481,3.9601,3.9601,3.966,3.978,3.978,4.0098,4.0636,4.1194,4.1403,4.1403,4.1523,4.1254,4.0816,4.1254,4.1403,4.1403,4.1403,4.1493,4.1583,4.1583,4.1673,4.1773,4.1773,4.2241,4.275,4.275,4.321,4.3818,4.4356,4.4476,4.4646,4.5155,4.5394,4.5484,4.5484,4.6001,4.648,4.648,4.695,4.7309,4.7309,4.7309,4.7309,4.7309,4.7309,4.7309,4.7309,4.7309,4.7309,4.7309,4.7309,4.7309,4.7309,4.821,4.9516,5.1192,5.1704,5.2294,5.3144,5.3382,5.3518,5.3518,5.3518,5.3518,5.3518,5.3518,5.3518,5.3518,5.3518,5.3145,2.1545,2.0447,2.0088,2.1744,2.2254,2.3571,0.0,2.8021,2.7722,3.0957,3.1675,3.2004,3.2886,3.362,3.4128,3.4428,3.4997,3.54,3.5489,3.5519,3.5519,3.5519,3.5519,3.5519,3.5519,3.5519,3.5759,3.6344,3.6404,3.6656,3.7285,3.7315,3.7614,3.829,3.829,3.8601,3.9272,3.9302,3.9331,3.9391,3.9391,3.972,4.0277,4.0277,4.0606,4.1194,4.1194,4.1224,4.1283,4.1373,4.1403,4.1463,4.2051,4.2231,4.2111,4.1583,4.1403,4.1403,4.1403,4.1792,4.2291,4.2291,4.2641,4.31,4.31,4.3549,4.4107,4.4107,4.4556,4.5095,4.5155,4.5185,4.5214,4.5274,4.5753,4.6181,4.6181,4.6719,4.7189,4.7189,4.7249,4.7309,4.7309,4.7309,4.7309,4.7309,4.7309,4.7309,4.7309,4.7309,4.7309,4.7309,4.7309,4.7309,4.7309,4.821,4.8891,4.9135,5.086,5.1957,5.2065,5.2973,5.3518,5.3518,5.3518,5.3518,5.3518,5.3518,5.3518,5.3518,5.3518,5.345,2.5525,2.5028,2.45,2.5338,2.6147,2.7183,2.8996,2.9069,2.9458,3.1974,3.2811,3.3275,3.3949,3.4637,3.507,3.507,3.531,3.5519,3.5519,3.5519,3.5519,3.5519,3.5519,3.5519,3.5519,3.5848,3.6178,3.6493,3.6836,3.7315,3.7943,3.7973,3.8302,3.8943,3.899,3.932,3.9978,3.996,4.0187,4.0546,4.0546,4.0696,4.0965,4.0965,4.1134,4.1433,4.1792,4.1972,4.2021,4.2372,4.2502,4.2532,4.2821,4.291,4.288,4.2611,4.2502,4.2502,4.2502,4.2701,4.291,4.291,4.3339,4.3878,4.3878,4.4356,4.4885,4.4885,4.5095,4.5394,4.5783,4.5882,4.5992,4.6381,4.6681,4.6869,4.6869,4.71,4.7309,4.7309,4.7309,4.7309,4.7309,4.7309,4.7309,4.7309,4.7309,4.7309,4.7309,4.7309,4.7309,4.7309,4.7309,4.7785,4.8983,4.9476,5.0262,5.1465,5.233,5.2835,5.2835,5.328,5.3518,5.3518,5.3518,5.3518,5.3518,5.3518,5.3721,5.4126,5.4126,5.4363,2.7188,2.7542,2.7645,2.7824,2.9009,3.0043,2.973,3.0043,3.0881,3.2677,3.3425,3.3979,3.4667,3.516,3.5519,3.5519,3.5519,3.5519,3.5519,3.5519,3.5519,3.5519,3.5669,3.5789,3.5789,3.6224,3.6643,3.7002,3.7434,3.7973,3.8631,3.8691,3.8901,3.9391,3.9571,3.99,4.0397,4.0576,4.0905,4.1403,4.1403,4.1493,4.1673,4.1852,4.1923,4.1953,4.2451,4.2661,4.269,4.313,4.329,4.329,4.329,4.3409,4.3579,4.3579,4.3439,4.3319,4.3499,4.3579,4.3609,4.3788,4.4177,4.4586,4.4586,4.5035,4.5574,4.5574,4.5693,4.5963,4.645,4.657,4.6689,4.7189,4.7309,4.7309,4.7309,4.7309,4.7309,4.7309,4.7309,4.7309,4.7309,4.7309,4.7309,4.7309,4.7309,4.7309,4.7309,4.7309,4.7309,4.7309,4.7309,4.7913,4.9427,4.9793,5.0608,5.2098,5.2748,5.3059,5.3059,5.3348,5.3585,5.3788,5.3788,5.389,5.4126,5.4126,5.4397,5.4905,5.4905,5.5209,2.5053,2.6123,2.7764,2.8397,3.0029,3.16,3.2243,3.2392,3.2796,3.4158,3.4474,3.4667,3.534,3.5489,3.5519,3.5519,3.5519,3.5519,3.5519,3.5519,3.5519,3.5519,3.6058,3.6464,3.6464,3.6493,3.7002,3.826,3.838,3.8661,3.9331,3.9361,3.9391,3.9391,4.0038,4.0367,4.0397,4.1025,4.1373,4.1403,4.1403,4.1733,4.2381,4.3,4.323,4.323,4.326,4.326,4.326,4.329,4.329,4.329,4.329,4.3698,4.4267,4.4267,4.3878,4.3379,4.4057,4.4267,4.4356,4.5035,4.5244,4.5274,4.5274,4.5753,4.6271,4.6271,4.6719,4.7249,4.7279,4.7279,4.7279,4.7309,4.7309,4.7309,4.7309,4.7309,4.7309,4.7309,4.7309,4.7309,4.7309,4.7309,4.7309,4.7309,4.7309,4.7309,4.7309,4.7309,4.7309,4.7309,4.7309,4.7331,4.7366,4.8293,4.8902,4.8932,5.0822,5.1957,5.1957,5.2939,5.3822,5.455,5.4583,5.4905,5.5631,5.5631,5.5631,5.5665,5.5665,5.5665,2.7009,2.8081,2.9189,3.0269,3.1331,3.2213,3.2452,3.2841,3.3425,3.4324,3.4503,3.4697,3.537,3.5519,3.5519,3.5519,3.5519,3.5519,3.5519,3.5519,3.5669,3.6118,3.6374,3.6823,3.7691,3.7751,3.793,3.838,3.8811,3.9152,3.9391,3.981,4.0068,4.0068,4.0696,4.1283,4.1703,4.1961,4.2271,4.2651,4.2651,4.2771,4.3,4.322,4.329,4.329,4.329,4.3549,4.3967,4.3967,4.4237,4.4646,4.4646,4.4766,4.4975,4.4975,4.4825,4.4676,4.4885,4.4975,4.5005,4.5214,4.5603,4.5942,4.5942,4.642,4.6958,4.6958,4.713,4.7309,4.7309,4.7309,4.7309,4.7309,4.7309,4.7309,4.7309,4.7309,4.7309,4.7309,4.7309,4.7309,4.7309,4.7309,4.7309,4.7309,4.7309,4.7309,4.7309,4.7309,4.7309,4.7309,4.7309,4.7849,4.9247,4.9655,5.0666,5.254,5.3292,5.3895,5.4398,5.4765,5.509,5.5327,5.5344,5.5428,5.5699,5.5699,5.5936,5.6427,5.6427,5.6697,2.847,2.9279,2.9967,3.1495,3.2168,3.2632,3.3095,3.3544,3.4039,3.4727,3.4667,3.4637,3.507,3.513,3.522,3.5459,3.5699,3.5848,3.5848,3.6058,3.6267,3.6464,3.6913,3.7511,3.832,3.8631,3.8751,3.8751,3.9152,3.9511,3.975,4.0157,4.0516,4.0756,4.1403,4.1961,4.241,4.2601,4.291,4.329,4.329,4.3429,4.3668,4.3668,4.3788,4.3997,4.3997,4.4267,4.4676,4.4676,4.4915,4.5304,4.5304,4.5454,4.5663,4.5663,4.5813,4.5992,4.5753,4.5663,4.5693,4.5933,4.6322,4.6659,4.6659,4.6958,4.7309,4.7309,4.7309,4.7309,4.7309,4.7309,4.7309,4.7309,4.7309,4.7309,4.7309,4.7309,4.7309,4.7309,4.7309,4.7309,4.7309,4.7489,4.7668,4.7668,4.7848,4.7908,4.7698,4.7668,4.7758,4.7967,4.7997,4.8718,5.042,5.0917,5.2091,5.4292,5.4798,5.5209,5.5665,5.5699,5.5834,5.6071,5.6071,5.6206,5.6494,5.6494,5.6731,5.7171,5.7171,5.7577,2.9262,2.9668,3.0207,3.2033,3.2542,3.2946,3.4218,3.4533,3.4697,3.528,3.4861,3.4384,3.4324,3.4338,3.4607,3.525,3.5968,3.6464,3.6493,3.6985,3.7165,3.6673,3.7661,3.8409,3.8469,3.902,3.9391,3.9391,3.9421,3.972,4.0367,4.0457,4.0786,4.1433,4.2111,4.244,4.244,4.301,4.329,4.329,4.3319,4.3698,4.4296,4.4326,4.4706,4.5304,4.5304,4.5304,4.5334,4.5334,4.5364,4.5394,4.5394,4.5813,4.636,4.636,4.6749,4.7219,4.657,4.636,4.645,4.71,4.7309,4.7309,4.7309,4.7309,4.7309,4.7309,4.7309,4.7309,4.7309,4.7309,4.7309,4.7309,4.7309,4.7309,4.7309,4.7309,4.7309,4.7309,4.7339,4.7369,4.7399,4.7908,4.8349,4.8349,4.8887,4.9067,4.8438,4.8349,4.8588,4.9217,4.9344,4.9819,5.0888,5.1991,5.3051,5.4166,5.5185,5.5767,5.58,5.58,5.6139,5.6833,5.6867,5.7205,5.79,5.79,5.7934,5.7967,5.7967,5.8355,2.9368,3.0656,3.1884,3.2362,3.3245,3.4069,3.4428,3.4907,3.5011,3.4173,3.3484,3.2706,3.1689,3.2347,3.3066,3.323,3.4681,3.5938,3.6434,3.6626,3.7015,3.7811,3.82,3.8601,3.9092,3.9302,3.9391,3.9391,3.984,4.0217,4.0397,4.1343,4.1961,4.2141,4.2731,4.307,4.307,4.322,4.329,4.3309,4.3818,4.4117,4.4296,4.4825,4.5125,4.5304,4.5304,4.5574,4.6031,4.6031,4.633,4.68,4.68,4.689,4.707,4.707,4.716,4.7279,4.71,4.707,4.7048,4.7249,4.7309,4.7309,4.7309,4.7309,4.7309,4.7309,4.7309,4.7309,4.7309,4.7309,4.7309,4.7309,4.7309,4.7309,4.7309,4.7309,4.7309,4.7309,4.7698,4.8199,4.8708,4.8917,4.9037,4.9037,4.9187,4.9217,4.9067,4.9037,4.9097,4.9277,5.0009,5.094,5.2012,5.3091,5.4369,5.6014,5.6352,5.6765,5.7306,5.734,5.7408,5.7611,5.7611,5.7712,5.79,5.79,5.8186,5.8727,5.8727,5.9115,3.0253,3.145,3.2572,3.2886,3.3739,3.4428,3.4128,3.4113,3.3724,3.2108,3.127,3.0372,2.9026,3.0568,3.2049,3.2049,3.4456,3.6477,3.6836,3.7404,3.7913,3.835,3.8661,3.899,3.9361,3.9391,3.9511,3.9828,4.0187,4.0516,4.0816,4.1822,4.2511,4.2791,4.313,4.329,4.329,4.329,4.3439,4.3758,4.4117,4.4596,4.5194,4.5553,4.5903,4.6172,0.0,4.6411,4.6719,4.6719,4.6958,4.7309,4.7309,4.7309,4.7309,4.7309,4.7309,4.7309,4.7309,4.7309,4.7309,4.7309,4.7309,4.7309,4.7309,4.7309,4.7309,4.7309,4.7309,4.7309,4.7309,4.7309,4.7309,4.7309,4.7309,4.7309,4.7309,4.7309,4.7399,4.7668,4.8289,4.8858,4.9217,4.9516,4.9673,4.9673,4.9942,5.0122,5.0122,4.9883,4.9793,5.0092,5.0645,5.1471,5.2576,5.3689,5.4951,5.6423,5.7003,5.7476,5.79,5.79,5.8051,5.8389,5.8389,5.8524,5.8863,5.8863,5.9066,5.9471,5.9471,5.9911,3.1451,3.2108,3.2781,3.3455,3.4128,3.4428,3.3664,3.2916,3.1794,2.9758,2.865,2.7679,2.6422,2.8803,3.1032,3.1212,3.4576,3.7225,3.7375,3.8464,3.9062,3.8571,3.905,3.9391,3.9391,3.9481,3.978,4.0367,4.0546,4.0905,4.1493,4.2152,4.278,4.326,4.329,4.329,4.329,4.3379,4.3728,4.4296,4.4476,4.5164,4.63,4.639,4.6749,4.7309,4.7309,4.7309,4.7309,4.7309,4.7309,4.7309,4.7309,4.7309,4.7309,4.7309,4.7309,4.7309,4.7309,4.7309,4.7309,4.7309,4.7309,4.7309,4.7309,4.7309,4.7309,4.7309,4.7309,4.7309,4.7309,4.7309,4.7309,4.7309,4.7309,4.7339,4.7429,4.7489,4.7758,4.8416,4.9037,4.9456,4.9546,5.0002,5.0315,5.0315,5.0817,5.1206,5.1206,5.0697,5.0578,5.1146,5.1339,5.188,5.3033,5.4168,5.5256,5.636,5.7454,5.8069,5.8069,5.8137,5.849,5.9115,5.9148,5.9471,6.0114,6.0114,6.0148,6.025,6.025,6.0689,3.2153,3.2826,3.3484,3.4158,3.4831,3.5011,3.3784,3.2542,3.0957,2.8453,2.6542,2.5053,2.4268,2.6405,2.865,2.9758,3.3245,3.6207,3.7238,3.8093,3.8751,3.9182,3.9331,3.9391,3.9391,3.99,4.0277,4.0397,4.1433,4.2111,4.2231,4.2821,4.319,4.329,4.329,4.329,4.329,4.3848,4.4177,4.4296,4.5403,4.6061,4.633,4.6869,4.7189,4.7309,4.7309,0.0,4.7309,4.7309,4.7309,4.7309,4.7309,4.7309,4.7309,4.7309,4.7309,4.7309,4.7309,4.7309,4.7309,4.7309,4.7309,4.7309,4.7309,4.7309,4.7309,4.7309,4.7309,4.7309,4.7309,4.7309,4.7309,4.7309,4.7309,4.7459,4.7997,4.8558,4.9157,4.974,4.9979,5.0219,5.0757,5.0936,5.1026,5.1026,5.1116,5.1206,5.1206,5.1086,5.1056,5.1176,5.204,5.3077,5.4211,5.5296,5.6379,5.7536,5.8364,5.881,5.881,5.9404,5.9776,5.9911,5.9911,5.9979,6.0114,6.0114,6.0452,6.1095,6.1095,6.1501,3.2333,3.3006,3.3664,3.4338,3.4997,3.4861,3.2497,3.0927,2.9042,2.5728,2.401,2.2881,2.2223,2.4807,2.7405,2.8393,3.2467,3.5848,3.6806,3.8093,3.9032,3.9361,3.9391,3.9541,3.9888,4.0217,4.0696,4.1403,4.2051,4.241,4.241,4.297,4.329,4.329,4.329,4.3489,4.3818,4.4147,4.4655,4.5343,4.6001,4.648,4.6839,4.716,4.7309,4.7309,4.7309,4.7309,4.7309,4.7309,4.7309,4.7309,4.7309,4.7309,4.7309,4.7309,4.7309,4.7309,4.7309,4.7309,4.7309,4.7309,4.7309,4.7309,4.7309,4.7309,4.7309,4.7309,4.7309,4.7309,4.7309,4.7549,4.7818,4.7818,4.8087,4.8438,4.8738,4.9314,4.9853,5.0159,5.0465,5.0817,5.1146,5.1206,5.1206,5.1206,5.1206,5.1206,5.1206,5.1206,5.1433,5.2018,5.2575,5.3509,5.5037,5.6197,5.7231,5.8135,5.9054,5.9573,5.9573,5.9911,6.0283,6.0723,6.0723,6.0926,6.1298,6.1298,6.1501,6.1873,6.1873,6.2042,3.2482,3.3095,3.3709,3.4518,3.51,3.4622,3.127,2.9415,2.7303,2.3482,2.1944,2.1186,2.0967,2.367,2.6375,2.7602,3.1793,3.525,3.6344,3.8063,3.9242,3.9391,3.9391,3.966,4.0337,4.0516,4.1104,4.2321,4.2511,4.2601,4.2601,4.304,4.329,4.329,4.3459,4.3758,4.4296,4.4566,4.5254,4.63,4.645,4.6779,4.7309,4.7309,4.7309,4.7309,4.7309,4.7309,4.7309,4.7309,4.7309,4.7309,4.7309,4.7309,4.7309,4.7309,4.7309,4.7309,4.7309,4.7309,4.7309,4.7309,4.7309,4.7309,4.7309,4.7309,4.7339,4.7489,4.7519,4.7549,4.7698,4.8117,4.8528,4.8528,4.9007,4.9486,4.9486,5.0002,5.0405,5.0405,5.0847,5.1206,5.1206,5.1206,5.1206,5.1206,5.1206,5.1206,5.1206,5.1206,5.181,5.333,5.3295,5.3922,5.5908,5.7045,5.7992,5.8794,5.9794,6.0351,6.0351,6.052,6.0892,6.1535,6.1535,6.1806,6.24,6.24,6.24,6.24,6.24,6.24,3.3066,3.3455,3.3814,3.51,3.5459,3.4622,3.127,2.9039,2.6746,2.3392,2.1205,2.0238,2.1395,2.2862,2.4896,2.8008,3.0911,3.3664,3.6164,3.7661,3.8721,3.9331,3.9391,3.966,4.0337,4.0954,4.1613,4.2351,4.291,4.322,4.322,4.326,4.329,4.329,4.3878,4.4237,4.4296,4.5523,4.6181,4.63,4.692,4.7249,4.7309,4.7309,4.7309,4.7309,4.7309,4.7309,0.0,4.7309,4.7309,4.7309,4.7309,4.7309,4.7309,4.7309,4.7309,4.7309,4.7309,4.7309,4.7309,4.7309,4.7309,4.7309,4.7309,4.7309,4.7429,4.8027,4.8229,4.8349,4.8947,4.9157,4.9187,4.9187,4.9673,5.0129,5.0129,5.0637,5.1116,5.1116,5.1146,5.1206,5.1206,5.1206,5.1206,5.1206,5.1206,5.1206,5.1206,5.1206,5.2307,5.5143,5.4533,5.4796,5.7044,5.795,5.884,5.989,6.0733,6.1197,6.1197,6.1839,6.2231,6.2299,6.2299,6.2333,6.24,6.24,6.24,6.24,6.24,6.24,3.3155,3.3784,3.4338,3.528,3.519,3.4039,3.0716,2.8753,2.6537,2.2842,2.1126,2.0587,2.1515,2.2113,2.355,2.6841,2.8936,3.0927,3.317,3.534,3.6896,3.7584,3.8673,3.981,4.0894,4.1613,4.2271,4.288,4.316,4.329,4.329,4.329,4.3469,4.3878,4.4147,4.4685,4.5493,4.6031,4.651,4.692,4.7189,4.7309,4.7309,4.7309,4.7309,4.7309,4.7309,4.7309,0.0,4.7309,4.7309,4.7309,4.7309,4.7309,4.7309,4.7309,4.7309,4.7309,4.7309,4.7309,4.7309,4.7309,4.7578,4.7818,4.7429,4.7578,4.7967,4.8207,4.8588,4.8947,4.9239,4.9576,4.9942,5.0361,5.0607,5.0817,5.0817,5.0996,5.1206,5.1206,5.1206,5.1206,5.1206,5.1206,5.1206,5.1206,5.1206,5.1206,5.1206,5.2199,5.3613,5.5485,5.5302,5.6315,5.9496,6.0007,6.0553,6.1414,6.1772,6.1941,6.1941,6.2265,6.24,6.24,6.24,6.24,6.24,6.24,6.24,6.24,6.24,6.24,3.3095,3.3979,3.4667,3.534,3.4997,3.3635,3.0356,2.8573,2.6477,2.2513,2.1186,2.0838,2.1306,2.1575,2.2712,2.5794,2.7423,2.9175,3.172,3.3903,3.5579,3.6626,3.7956,3.9391,4.0954,4.2062,4.2851,4.326,4.329,4.329,4.329,4.3489,4.3818,4.4296,4.4685,4.5343,4.63,4.651,4.6839,4.7309,4.7309,4.7309,4.7309,4.7309,4.7309,4.7309,4.7309,4.7309,0.0,4.7309,4.7309,4.7309,4.7309,4.7309,4.7309,4.7309,4.7309,4.7309,4.7309,4.7309,4.7309,4.7309,4.7758,4.8229,4.7728,4.8057,4.8648,4.8805,4.9344,4.9875,4.9875,5.0182,5.0607,5.1086,5.1206,5.1206,5.1206,5.1206,5.1206,5.1206,5.1206,5.1206,5.1206,5.1206,5.1206,5.1206,5.1355,5.164,5.1976,5.3376,5.496,5.6679,5.6859,5.8052,6.1061,6.1501,6.1839,6.2367,6.24,6.24,6.24,6.24,6.24,6.24,6.24,6.24,6.24,6.24,6.24,6.24,6.24,6.2536,3.2946,3.3979,3.4667,3.534,3.4997,3.3635,3.0356,2.8573,2.6477,2.2513,2.1186,2.0688,2.0718,2.1246,2.2562,2.5184,2.6734,2.8992,3.2931,3.4069,3.5236,3.7165,3.7417,3.8212,4.0217,4.2143,4.329,4.329,4.329,4.329,4.329,4.3938,4.4296,4.4296,4.5583,4.63,4.63,4.6958,4.7309,4.7309,4.7309,4.7309,4.7309,4.7309,4.7309,4.7309,4.7309,4.7309,0.0,4.7309,4.7309,4.7309,4.7309,4.7309,4.7309,4.7309,4.7309,4.7309,4.7309,4.7309,4.7309,4.7309,4.7758,4.8319,4.8289,4.8768,4.9426,5.0009,5.0667,5.1176,5.1176,5.1176,5.1176,5.1206,5.1206,5.1206,5.1206,5.1206,5.1206,5.1206,5.1206,5.1206,5.1206,5.1206,5.1206,5.1206,5.1768,5.2601,5.3824,5.458,5.6163,5.9234,5.956,6.0023,6.1201,6.1975,6.2381,6.24,6.24,6.24,6.24,6.24,6.24,6.24,6.24,6.24,6.24,6.24,6.24,6.24,6.24,6.2787,3.0656,3.1973,3.2976,3.2258,3.1928,3.1165,2.8783,2.7183,2.5375,2.2323,2.1186,2.0688,2.0688,2.0877,2.2163,2.5704,2.6644,2.8128,3.1645,3.3484,3.5056,3.6596,3.9188,4.1224,4.2293,4.2951,4.329,4.329,4.329,4.3519,4.3967,4.4616,4.4975,4.4975,4.5822,4.651,4.698,4.7168,4.7309,4.7309,4.7309,4.7309,4.7309,4.7309,4.7309,4.7309,4.7309,4.7309,4.7309,4.7309,4.7309,4.7309,4.7309,4.7309,4.7309,4.7309,4.7309,4.7309,4.7309,4.7309,4.7369,4.7818,4.8438,4.9067,4.9471,4.974,5.0039,5.0697,5.1026,5.1206,5.1206,5.1206,5.1206,5.1206,5.1206,5.1206,5.1206,5.1206,5.1206,5.1206,5.1206,5.1206,5.1206,5.1588,5.1887,5.1887,5.2456,5.3319,5.4544,5.5983,5.7578,5.9416,6.0765,6.1674,6.2023,6.2245,6.24,6.24,6.24,6.24,6.24,6.24,6.24,6.24,6.24,6.24,6.24,6.24,6.24,6.24,6.24,6.2787,2.9189,3.0642,3.1615,3.1017,3.0522,2.9728,2.8004,2.6375,2.4556,2.2173,2.1186,2.0638,2.0378,2.0737,2.1964,2.4698,2.5956,2.7739,3.1032,3.3006,3.4907,3.6972,4.0056,4.2182,4.2551,4.304,4.329,4.329,4.3529,4.3878,4.4267,4.5185,4.5693,4.5693,4.633,4.6869,4.7309,4.7309,4.7309,4.7309,4.7309,4.7309,4.7309,4.7309,4.7309,4.7309,4.7309,4.7309,0.0,4.7309,4.7309,4.7309,4.7309,4.7309,4.7309,4.7309,4.7309,4.7309,4.7309,4.7459,4.7758,4.8147,4.8895,4.9763,5.0398,5.0578,5.0667,5.1086,5.1206,5.1206,5.1206,5.1206,5.1206,5.1206,5.1206,5.1206,5.1206,5.1206,5.1206,5.1206,5.1206,5.1265,5.1535,5.1917,5.2276,5.2546,5.3519,5.467,5.5883,5.7692,5.9325,6.0516,6.1721,6.24,6.24,6.24,6.24,6.24,6.24,6.24,6.24,6.24,6.24,6.24,6.24,6.24,6.24,6.24,6.2516,6.2821,6.2821,6.3362,0.0,2.9638,3.0283,3.0883,3.0163,2.8949,2.7615,2.5824,0.0,2.2024,2.1096,2.0488,1.9998,2.0926,2.2064,2.2972,2.5237,2.8008,3.1241,3.3036,3.513,3.826,4.0355,4.1553,4.1553,4.2592,4.329,4.329,4.3938,4.4326,4.4377,4.5583,4.633,4.636,4.698,4.7309,4.7309,4.7309,4.7309,4.7309,4.7309,4.7309,4.7309,4.7309,4.7309,0.0,4.7309,4.7309,0.0,4.7309,4.7309,4.7309,4.7309,4.7309,4.7309,4.7309,4.7309,4.7309,4.7369,4.7788,4.8319,4.8409,4.9284,5.0398,5.0996,5.1206,5.1206,5.1206,5.1206,5.1206,5.1206,5.1206,5.1206,5.1206,5.1206,5.1206,5.1206,5.1206,5.1206,5.1265,5.1265,5.1475,5.2157,5.2306,5.257,5.329,5.4922,5.6534,5.7833,5.9511,6.1057,6.2282,6.24,6.24,6.24,6.24,6.24,6.24,6.24,6.24,6.24,6.24,6.24,6.24,6.24,6.24,6.24,6.2468,6.2821,6.3511,6.3545,6.4343,2.377,0.0,2.668,2.6309,2.638,2.6183,0.0,2.383,2.2722,2.1236,2.0408,2.0357,2.1744,2.2254,2.3511,2.6704,2.8547,3.0582,3.341,3.6656,3.926,4.0535,4.1983,4.2861,4.2861,4.313,4.329,4.329,4.3938,4.4506,4.5035,4.5852,4.654,4.707,4.7219,4.7309,4.7309,4.7309,4.7309,4.7309,4.7309,4.7309,4.7309,4.7309,4.7309,4.7309,4.7309,4.7309,4.7309,4.7309,4.7309,4.7309,4.7309,4.7309,4.7309,4.7309,4.7309,4.7369,4.7878,4.8169,4.8468,4.9441,5.0308,5.0996,5.1146,5.1206,5.1206,5.1206,5.1206,5.1206,5.1206,5.1206,5.1206,5.1206,5.1206,5.1206,5.1206,5.1206,5.1355,5.1887,5.1977,5.2187,5.2869,5.3384,5.4085,5.5156,5.6144,5.7533,5.9653,6.0339,6.1057,6.2282,6.24,6.24,6.24,6.24,6.24,6.24,6.24,6.24,6.24,6.24,6.24,6.24,6.24,6.24,6.24,6.2956,6.3308,6.3511,6.4086,6.4816,2.1495,2.343,2.5124,2.5083,2.5083,2.4945,2.4227,2.2892,2.1575,2.0847,2.0168,2.0208,2.1924,2.3231,2.4848,2.729,3.0043,3.2916,3.5865,3.8948,4.1104,4.1762,4.2711,4.329,4.329,4.329,4.329,4.329,4.4207,4.4915,4.5274,4.6232,4.695,4.7309,4.7309,4.7309,4.7309,4.7309,4.7309,4.7309,4.7309,4.7309,4.7309,4.7309,4.7309,4.7309,4.7309,4.7309,4.7309,4.7309,4.7309,4.7309,4.7309,4.7309,4.7309,4.7309,4.7489,4.7818,4.8147,4.8686,4.9344,5.0338,5.0907,5.1206,5.1206,5.1206,5.1206,5.1206,5.1206,5.1206,5.1206,5.1206,5.1206,5.1206,5.1206,5.1206,5.1206,5.1415,5.1768,5.2127,5.2456,5.2875,5.3533,5.4437,5.5339,5.6331,5.7717,5.9115,6.0438,6.1078,6.1676,6.2322,6.24,6.24,6.24,6.24,6.24,6.24,6.24,6.24,6.24,6.24,6.24,6.24,6.2719,6.2888,6.2922,6.3666,6.4174,6.4512,6.4918,6.5493,2.0757,2.2841,2.4814,2.5094,2.4885,2.4545,2.4365,2.2612,2.0967,2.0877,2.0468,2.0696,2.2423,2.4477,2.6303,2.744,3.112,3.4921,3.8093,4.0206,4.1643,4.2321,4.294,4.329,4.329,4.329,4.3319,4.3439,4.4616,4.5334,4.5454,4.6621,4.7309,4.7309,4.7309,4.7309,4.7309,4.7309,4.7309,4.7309,4.7309,4.7309,4.7309,4.7309,4.7309,4.7309,0.0,0.0,4.7309,4.7309,4.7309,4.7309,4.7309,4.7309,4.7309,4.7309,4.7728,4.8349,4.8506,4.9351,5.0458,5.1026,5.1206,5.1206,5.1206,5.1206,5.1206,5.1206,5.1206,5.1206,5.1206,5.1206,5.1206,5.1206,5.1206,5.1236,5.1325,5.1798,5.2247,5.2486,5.2965,5.3563,5.4251,5.5352,5.6403,5.7183,5.916,6.0649,6.0849,6.1756,6.24,6.24,6.24,6.24,6.24,6.24,6.24,6.24,6.24,6.24,6.24,6.24,6.2468,6.255,6.3173,6.3545,6.3646,6.441,6.5087,6.5717,6.5818,6.6203,2.1894,2.3879,2.5064,2.3531,2.3868,2.4306,2.3231,2.2662,2.2243,2.1665,2.1924,2.3332,2.6884,2.7423,2.841,3.1869,3.3993,3.6148,3.8853,4.0487,4.1643,4.2321,4.294,4.329,4.329,4.329,4.3549,4.4087,4.4855,4.5544,4.6121,4.6869,4.7309,4.7309,4.7309,4.7309,4.7309,4.7309,4.7309,4.7309,4.7309,4.7309,4.7309,4.7309,4.7309,4.7309,0.0,4.7309,4.7309,4.7309,4.7309,4.7309,4.7309,4.7309,4.7309,4.7309,4.7728,4.8446,4.9531,5.0398,5.1056,5.1176,5.1206,5.1206,5.1206,5.1206,5.1206,5.1206,5.1206,5.1206,5.1206,5.1206,5.1206,5.1206,5.1206,5.1379,5.1917,5.2127,5.2546,5.3683,5.3982,5.4251,5.491,5.6054,5.7215,5.8351,5.9697,6.0974,6.1991,6.2282,6.24,6.24,6.24,6.24,6.24,6.24,6.24,6.24,6.24,6.24,6.24,6.24,6.2685,6.3328,6.3443,6.3815,6.4444,6.5155,6.5581,6.5717,6.6339,6.669,2.0816,2.2513,2.398,2.3789,2.5525,2.7141,2.6554,2.5878,2.5159,2.4489,2.4578,2.5686,2.859,2.9744,3.1659,3.5998,3.7225,3.8285,4.0217,4.1313,4.2182,4.2821,4.313,4.329,4.329,4.329,4.3579,4.4237,4.4915,4.5603,4.6271,4.6929,4.7309,4.7309,4.7309,4.7309,4.7309,4.7309,4.7309,4.7309,4.7309,4.7309,4.7309,4.7309,4.7309,4.7309,0.0,4.7309,4.7309,4.7309,4.7309,4.7309,4.7309,4.7309,4.7399,4.8087,4.8775,4.9441,5.0398,5.0936,5.1206,5.1206,5.1206,5.1206,5.1206,5.1206,5.1206,5.1206,5.1206,5.1206,5.1206,5.1206,5.1206,5.1206,5.1498,5.1828,5.2127,5.2785,5.3473,5.4102,5.4491,5.485,5.5149,5.6759,5.8154,5.8722,6.0374,6.1756,6.2322,6.24,6.24,6.24,6.24,6.24,6.24,6.24,6.24,6.24,6.24,6.24,6.24,6.24,6.2753,6.3477,6.3903,6.4478,6.5189,6.5933,6.6305,6.6305,6.6622,6.6791,2.0477,2.1854,2.349,2.4945,2.6871,2.865,2.9428,2.8453,2.7345,2.7303,2.753,2.8308,3.0177,3.2228,3.4815,3.8344,3.9212,3.9888,4.1224,4.1991,4.2631,4.325,4.329,4.329,4.329,4.329,4.3638,4.4476,4.5005,4.5663,4.648,4.7018,4.7309,4.7309,4.7309,4.7309,4.7309,4.7309,4.7309,4.7309,4.7309,4.7309,4.7309,4.7309,4.7309,4.7309,4.7309,4.7309,4.7309,4.7309,4.7309,4.7309,4.7489,4.7638,4.7908,4.9097,4.9793,5.0285,5.0966,5.1206,5.1206,5.1206,5.1206,5.1206,5.1206,5.1206,5.1206,5.1206,5.1206,5.1206,5.1206,5.1206,5.1236,5.1385,5.1828,5.2276,5.2606,5.3473,5.4251,5.4401,5.485,5.5179,5.5179,5.6943,5.8474,5.8767,6.0607,6.207,6.2361,6.24,6.24,6.24,6.24,6.24,6.24,6.24,6.24,6.24,6.24,6.24,6.24,6.24,6.2821,6.3748,6.4309,6.5053,6.5967,6.6542,6.6791,6.6791,6.6791,6.6791,2.2832,2.3868,2.4933,2.6884,2.6153,2.577,2.8889,2.8081,2.7183,2.9009,3.0329,3.157,3.2976,3.531,3.7148,3.7477,3.8584,3.9888,4.1224,4.1991,4.2631,4.325,4.329,4.329,4.329,4.329,4.3848,4.5125,4.5274,4.5873,4.716,4.7279,4.7309,4.7309,4.7309,4.7309,4.7309,4.7309,4.7309,4.7309,4.7309,4.7309,4.7309,4.7309,4.7309,4.7309,4.7309,4.7309,4.7309,4.7309,4.7309,4.7369,4.7967,4.8618,4.9247,4.989,5.0136,5.0285,5.0966,5.1206,5.1206,5.1206,5.1206,5.1206,5.1206,5.1206,5.1206,5.1206,5.1206,5.1206,5.1206,5.1206,5.1355,5.1977,5.2157,5.2546,5.3803,5.4132,5.4401,5.4999,5.5149,5.5179,5.5179,5.628,5.7504,5.8632,5.9892,6.1119,6.2263,6.24,6.24,6.24,6.24,6.24,6.24,6.24,6.24,6.24,6.24,6.24,6.24,6.24,6.3057,6.4478,6.458,6.529,6.6724,6.6757,6.6791,6.6791,6.6791,6.6791,2.1595,2.317,2.4993,2.6584,2.7363,2.8368,3.0851,3.1464,3.1853,3.3051,3.3664,3.4277,3.519,3.7165,3.8512,3.8093,3.9499,4.0816,4.1343,4.2282,4.304,4.326,4.329,4.329,4.329,4.3698,4.4317,4.5214,4.5693,4.6352,4.7249,4.7309,4.7309,4.7309,4.7309,4.7309,4.7309,4.7309,4.7309,4.7309,4.7309,4.7309,4.7309,4.7309,4.7309,4.7309,4.7309,4.7309,4.7309,4.7309,4.7549,4.7967,4.8648,4.9307,4.989,5.0129,5.0458,5.0877,5.1116,5.1206,5.1206,5.1206,5.1206,5.1206,5.1206,5.1206,5.1206,5.1206,5.1206,5.1206,5.1206,5.1505,5.1887,5.2127,5.2845,5.3593,5.4102,5.4521,5.491,5.5149,5.5179,5.5179,5.5179,5.6207,5.741,5.8632,5.9805,6.1036,6.2263,6.24,6.24,6.24,6.24,6.24,6.24,6.24,6.24,6.24,6.24,6.24,6.24,6.2854,6.3565,6.458,6.5053,6.5797,6.6791,6.6791,6.6791,6.6791,6.6791,6.6791,2.2004,2.3379,2.5292,2.6841,2.8261,2.9847,3.2004,3.3215,3.4248,3.5549,3.5818,3.6088,3.6926,3.8003,3.8763,3.8721,4.0236,4.1463,4.1673,4.2641,4.329,4.329,4.329,4.329,4.329,4.3908,4.4586,4.5244,4.5912,4.66,4.7279,4.7309,4.7309,4.7309,4.7309,4.7309,4.7309,4.7309,4.7309,4.7309,4.7309,4.7309,4.7309,4.7309,4.7309,4.7309,4.7309,4.7309,4.7309,4.7309,4.7818,4.8678,4.9314,4.9972,5.0518,5.0518,5.0817,5.1206,5.1206,5.1206,5.1206,5.1206,5.1206,5.1206,5.1206,5.1206,5.1206,5.1206,5.1206,5.1236,5.1445,5.1858,5.2306,5.2725,5.3533,5.4281,5.4491,5.488,5.5179,5.5179,5.5179,5.5179,5.5179,5.5893,5.6967,5.8564,5.95,6.0586,6.2203,6.24,6.24,6.24,6.24,6.24,6.24,6.24,6.24,6.24,6.24,6.24,6.24,6.2888,6.3632,6.458,6.5087,6.5831,6.6791,6.6791,6.6791,6.6791,6.6791,6.6791,2.4754,2.5083,2.6093,2.8098,2.8637,2.9355,3.1944,3.2512,3.329,3.5985,3.6523,3.6913,3.817,3.7853,3.7866,3.9182,4.0516,4.1643,4.2321,4.291,4.329,4.329,4.329,4.329,4.329,4.3908,4.4586,4.5244,4.5912,4.66,4.7279,4.7309,4.7309,4.7309,4.7309,4.7309,4.7309,4.7309,4.7309,4.7309,4.7309,4.7309,4.7309,4.7309,4.7309,4.7309,4.7309,4.7309,4.7309,4.7309,4.8109,4.9366,4.9979,5.0637,5.1206,5.1206,5.1206,5.1206,5.1206,5.1206,5.1206,5.1206,5.1206,5.1206,5.1206,5.1206,5.1206,5.1206,5.1206,5.1379,5.2037,5.2217,5.2546,5.3892,5.4221,5.4401,5.5059,5.5179,5.5179,5.5179,5.5179,5.5179,5.5179,5.5179,5.6017,5.8428,5.879,5.9675,6.209,6.24,6.24,6.24,6.24,6.24,6.24,6.24,6.24,6.24,6.24,6.24,6.24,6.24,6.3091,6.458,6.4613,6.5324,6.6791,6.6791,6.6791,6.6791,6.6791,6.6791,2.2742,2.4728,2.7165,2.7764,3.0716,3.3664,3.4426,3.4606,3.5204,3.7375,3.8212,3.8512,3.8439,3.902,3.9499,3.9421,4.0905,4.2171,4.2381,4.291,4.329,4.329,4.329,4.3489,4.3967,4.4616,4.5274,4.5942,4.66,4.71,4.7309,4.7309,4.7309,4.7309,4.7309,4.7309,4.7309,4.7309,4.7309,4.7309,4.7309,4.7309,4.7309,4.7309,4.7309,4.7309,4.7309,4.7309,4.7369,4.8319,4.9194,4.9979,5.0637,5.1026,5.1206,5.1206,5.1206,5.1206,5.1206,5.1206,5.1206,5.1206,5.1206,5.1206,5.1206,5.1206,5.1206,5.1206,5.1206,5.1445,5.2606,5.2899,5.3114,5.4012,5.4551,5.497,5.5149,5.5179,5.5179,5.5179,5.5179,5.5179,5.5179,5.5179,5.6017,5.8428,5.879,5.9675,6.209,6.24,6.24,6.24,6.24,6.24,6.24,6.24,6.24,6.24,6.24,6.24,6.24,6.2888,6.3632,6.458,6.5121,6.5831,6.6791,6.6791,6.6791,6.6791,6.6791,6.6791,2.5495,2.753,2.9728,3.0536,3.2527,3.4651,3.5968,3.6477,3.6985,3.817,3.8721,3.896,3.8811,3.9469,4.0019,4.0187,4.1433,4.25,4.272,4.307,4.329,4.329,4.329,4.3579,4.4237,4.4915,4.5574,4.6241,4.6899,4.7309,4.7309,4.7309,4.7309,4.7309,4.7309,4.7309,4.7309,4.7309,4.7309,4.7309,4.7309,4.7309,4.7309,4.7309,4.7309,4.7309,4.7309,4.7459,4.7788,4.8858,4.9643,5.0278,5.0936,5.1206,5.1206,5.1206,5.1206,5.1206,5.1206,5.1206,5.1206,5.1206,5.1206,5.1206,5.1206,5.1206,5.1236,5.1505,5.1618,5.1917,5.3234,5.3593,5.3773,5.4431,5.491,5.5179,5.5179,5.5179,5.5179,5.5179,5.5179,5.5355,5.5819,5.5918,5.6735,5.9147,5.9913,6.0766,6.2189,6.24,6.24,6.24,6.24,6.24,6.24,6.24,6.24,6.24,6.24,6.24,6.24,6.2821,6.3565,6.458,6.5019,6.5764,6.6791,6.6791,6.6791,6.6791,6.6791,6.6791,3.0404,3.163,3.2871,3.4755,3.4067,3.3738,3.6806,3.8003,3.8482,3.8482,3.8482,3.8691,3.9361,3.9541,4.0008,4.1283,4.2032,4.2661,4.322,4.329,4.329,4.329,4.329,4.3609,4.4326,4.4945,4.5603,4.633,4.698,4.7309,4.7309,4.7309,4.7309,4.7309,4.7309,4.7309,4.7309,4.7309,4.7309,4.7309,4.7309,4.7309,4.7309,4.7309,4.7309,4.7309,4.7309,4.7728,4.8438,4.9037,4.9673,5.0345,5.0966,5.1206,5.1206,5.1206,5.1206,5.1206,5.1206,5.1206,5.1206,5.1206,5.1206,5.1206,5.1206,5.1206,5.1325,5.2007,5.2187,5.2516,5.3862,5.4221,5.4371,5.5029,5.5179,5.5179,5.5179,5.5179,5.5179,5.5179,5.5179,5.5576,5.6776,5.7015,5.7831,6.0247,6.1635,6.24,6.24,6.24,6.24,6.24,6.24,6.24,6.24,6.24,6.24,6.24,6.24,6.24,6.24,6.24,6.3091,6.458,6.4613,6.5324,6.6791,6.6791,6.6791,6.6791,6.6791,6.6791,2.6099,2.885,3.1959,3.2901,3.4755,3.6686,3.7913,3.8691,3.9182,3.9182,3.9182,3.9409,4.0068,4.0606,4.1254,4.2051,4.2701,4.316,4.326,4.329,4.329,4.329,4.329,4.3788,4.4975,4.5214,4.5783,4.701,4.7219,4.7309,4.7309,4.7309,4.7309,4.7309,4.7309,4.7309,4.7309,4.7309,4.7309,0.0,4.7309,4.7309,4.7309,4.7309,4.7309,4.7309,4.7309,4.7967,4.9097,4.9217,4.9965,5.0996,5.1146,5.1206,5.1206,5.1206,5.1206,5.1206,5.1206,5.1206,5.1206,5.1206,5.1206,5.1206,5.1206,5.1206,5.1325,5.2007,5.2187,5.2516,5.3862,5.4221,5.4371,5.5029,5.5179,5.5179,5.5179,5.5179,5.5179,5.5179,5.5179,5.5576,5.6776,5.7015,5.7831,6.0247,6.1635,6.24,6.24,6.24,6.24,6.24,6.24,6.24,6.24,6.24,6.24,6.24,6.24,6.24,6.24,6.24,6.3091,6.458,6.4613,6.5324,6.6791,6.6791,6.6791,6.6791,6.6791,6.6791,2.7415,2.9896,3.2362,3.4023,3.5938,3.7584,3.8242,3.8931,3.9391,3.9391,3.9391,3.9601,4.0277,4.0954,4.1613,4.2291,4.291,4.329,4.329,4.329,4.329,4.329,4.3559,4.4177,4.5185,4.5603,4.6202,4.7219,4.7309,4.7309,4.7309,4.7309,4.7309,4.7309,4.7309,4.7309,4.7309,4.7309,4.7309,4.7309,4.7309,4.7309,4.7309,4.7309,4.7309,4.7309,4.7638,4.8379,4.9307,4.9613,5.0331,5.1206,5.1206,5.1206,5.1206,5.1206,5.1206,5.1206,5.1206,5.1206,5.1206,5.1206,5.1206,5.1206,5.1206,5.1206,5.1415,5.2396,5.2665,5.2995,5.4341,5.467,5.476,5.5119,5.5179,5.5179,5.5179,5.5179,5.5179,5.5179,5.5675,5.6445,5.7644,5.8803,6.0021,6.1276,6.201,6.24,6.24,6.24,6.24,6.24,6.24,6.24,6.24,6.24,6.24,6.24,6.24,6.255,6.2922,6.2922,6.3463,6.458,6.4952,6.5696,6.6791,6.6791,6.6791,6.6791,6.6791,6.6791,2.9089,3.1226,3.302,3.5938,3.7015,3.7614,3.8392,3.902,3.9391,3.9391,3.9391,3.9631,4.0427,4.1044,4.1643,4.2421,4.297,4.329,4.329,4.329,4.329,4.329,4.3878,4.4556,4.5214,4.5912,4.657,4.7249,4.7309,4.7309,4.7309,4.7309,4.7309,4.7309,4.7309,4.7309,4.7309,4.7309,4.7309,4.7309,4.7309,4.7309,4.7309,4.7309,4.7309,4.7339,4.7997,4.8678,4.9337,4.9949,5.0607,5.1206,5.1206,5.1206,5.1206,5.1206,5.1206,5.1206,5.1206,5.1206,5.1206,5.1206,5.1206,5.1206,5.1206,5.1265,5.1648,5.2869,5.3288,5.3648,5.488,5.5179,5.5179,5.5179,5.5179,5.5179,5.5179,5.5179,5.5255,5.5451,5.6662,5.7946,5.8947,6.0933,6.24,6.24,6.24,6.24,6.24,6.24,6.24,6.24,6.24,6.24,6.24,6.24,6.24,6.24,6.24,6.2719,6.3477,6.3612,6.4038,6.4783,6.5392,6.6068,6.6791,6.6791,6.6791,6.6791,6.6791,6.6791,2.4477,2.8085,3.2527,3.634,3.7327,3.7716,3.8973,3.9331,3.9391,3.9391,3.9391,3.978,4.1044,4.1343,4.1773,4.298,4.325,4.329,4.329,4.329,4.329,4.329,4.3878,4.4556,4.5214,4.5912,4.657,4.7249,4.7309,4.7309,4.7309,4.7309,4.7309,4.7309,4.7309,4.7309,4.7309,4.7309,4.7309,4.7309,4.7309,4.7309,4.7309,4.7309,4.7309,4.7339,4.7997,4.8678,4.9337,4.9949,5.0607,5.1206,5.1206,5.1206,5.1206,5.1206,5.1206,5.1206,5.1206,5.1206,5.1206,5.1206,5.1206,5.1206,5.1206,5.1618,5.2217,5.2989,5.3623,5.4251,5.4999,5.5179,5.5179,5.5179,5.5179,5.5179,5.5179,5.5179,5.5501,5.6566,5.8578,6.0182,6.0332,6.148,6.24,6.24,6.24,6.24,6.24,6.24,6.24,6.24,6.24,6.24,6.24,6.24,6.24,6.24,6.24,6.2719,6.3477,6.4106,6.4783,6.5547,6.5649,6.6068,6.6791,6.6791,6.6791,6.6791,6.6791,6.6791,2.5585,2.8893,3.2437,3.64,3.7387,3.7746,3.9092,3.9391,3.9391,3.9391,3.969,4.0247,4.1224,4.1403,4.1822,4.31,4.329,4.329,4.329,4.329,4.329,4.329,4.4207,4.4975,4.5274,4.6262,4.6958,4.7279,4.7309,4.7309,4.7309,4.7309,4.7309,4.7309,4.7309,4.7309,4.7309,4.7309,4.7309,4.7309,4.7309,4.7309,4.7309,4.7309,4.7309,4.7369,4.8409,4.9037,4.9366,5.0361,5.0936,5.1206,5.1206,5.1206,5.1206,5.1206,5.1206,5.1206,5.1206,5.1206,5.1206,5.1206,5.1206,5.1265,5.1648,5.1977,5.2426,5.3473,5.3982,5.4371,5.5029,5.5179,5.5179,5.5179,5.5179,5.5406,5.606,5.6207,5.6783,5.8645,5.987,6.0828,6.148,6.205,6.24,6.24,6.24,6.24,6.24,6.24,6.24,6.24,6.24,6.24,6.24,6.24,6.24,6.24,6.24,6.2922,6.4072,6.4444,6.5155,6.6305,6.6305,6.6474,6.6791,6.6791,6.6791,6.6791,6.6791,6.6791,2.6063,2.8654,3.1032,3.534,3.6686,3.7357,3.9032,3.9391,3.9391,3.9391,3.993,4.0606,4.1283,4.1523,4.2032,4.313,4.329,4.329,4.329,4.329,4.3349,4.3529,4.4586,4.5364,4.5544,4.6621,4.7309,4.7309,4.7309,4.7309,4.7309,4.7309,4.7309,4.7309,4.7309,4.7309,4.7309,4.7309,4.7309,4.7309,4.7309,4.7309,4.7309,4.7309,4.7399,4.7608,4.8798,4.9277,4.9396,5.069,5.1206,5.1206,5.1206,5.1206,5.1206,5.1206,5.1206,5.1206,5.1206,5.1206,5.1206,5.1206,5.1206,5.1295,5.1798,5.2187,5.2738,5.4038,5.4654,5.5115,5.5889,5.6109,5.6109,5.6109,5.6109,5.628,5.6872,5.748,5.8442,6.0268,6.0849,6.1337,6.2263,6.24,6.24,6.24,6.24,6.24,6.24,6.24,6.24,6.24,6.24,6.24,6.24,6.24,6.24,6.24,6.2584,6.326,6.4546,6.4783,6.5493,6.6757,6.6791,6.6791,6.6791,6.6791,6.6791,6.6791,6.6791,6.6791,2.3101,2.4866,2.7158,3.2407,3.4651,3.6267,3.8823,3.9391,3.9391,3.9391,3.993,4.0606,4.1283,4.1912,4.2571,4.322,4.329,4.329,4.329,4.329,4.3549,4.4177,4.4885,4.5544,4.6181,4.6869,4.7309,4.7309,4.7309,4.7309,4.7309,4.7309,4.7309,4.7309,4.7309,4.7309,4.7309,4.7309,4.7309,4.7309,4.7309,4.7309,4.7309,4.7309,4.7638,4.8289,4.8977,4.9277,4.9396,5.069,5.1206,5.1206,5.1206,5.1206,5.1206,5.1206,5.1206,5.1206,5.1206,5.1206,5.1206,5.1206,5.1206,5.1206,5.1236,5.2127,5.3405,5.4614,5.5867,5.7119,5.8314,5.861,5.861,5.861,5.861,5.8314,5.7221,5.878,6.0459,6.0565,6.15,6.2322,6.2381,6.24,6.24,6.24,6.24,6.24,6.24,6.24,6.24,6.24,6.24,6.24,6.24,6.24,6.24,6.24,6.3057,6.3802,6.458,6.5256,6.6,6.6757,6.6791,6.6791,6.6791,6.6791,6.6791,6.6791,6.6791,6.6791,2.2892,2.3939,2.5405,2.9877,3.2617,3.4681,3.6507,3.8195,3.9391,3.9391,4.0277,4.1134,4.1343,4.1961,4.2601,4.322,4.329,4.329,4.329,4.329,4.3549,4.4207,4.4885,4.5574,4.6241,4.6899,4.7309,4.7309,4.7309,4.7309,4.7309,4.7309,4.7309,4.7309,4.7309,4.7309,4.7309,4.7309,4.7309,4.7309,4.7309,4.7309,4.7309,4.7309,4.7668,4.8349,4.9007,4.9516,4.9949,5.0817,5.1206,5.1269,5.1995,5.2282,5.2373,5.3121,5.3374,5.3374,5.3374,5.3374,5.3275,5.253,5.2589,5.2856,5.2575,5.3657,5.518,5.6029,5.7198,5.8245,5.8677,5.879,5.879,5.879,5.939,5.9827,5.9412,5.9978,6.0828,6.1615,6.209,6.24,6.24,6.24,6.24,6.24,6.24,6.24,6.24,6.24,6.24,6.24,6.24,6.24,6.24,6.24,6.2584,6.3091,6.3342,6.4018,6.5256,6.5581,6.6034,6.6791,6.6791,6.6791,6.6791,6.6791,6.6791,6.6791,6.6791,6.6791,2.1764,2.2622,2.392,2.7931,3.0057,3.2048,3.54,3.6985,3.8063,3.9182,4.0457,4.1403,4.1403,4.2122,4.2821,4.325,4.329,4.329,4.329,4.329,4.3638,4.4526,4.5035,4.5663,4.654,4.704,4.7309,4.7309,0.0,0.0,4.7309,4.7309,4.7309,4.7309,4.7309,4.7309,4.7309,4.7309,4.7309,4.7309,4.7309,4.7309,4.7309,4.7549,4.7997,4.8678,4.9337,4.9853,5.0255,5.0936,5.1206,5.1316,5.2463,5.29,5.3033,5.419,5.461,5.461,5.461,5.461,5.4516,5.4004,5.4119,5.4487,5.4407,5.5434,5.6795,5.7625,5.862,5.95,5.9892,6.0,6.0,6.0,6.0607,6.1214,6.1214,6.1214,6.1439,6.2263,6.24,6.24,6.24,6.24,6.24,6.24,6.24,6.24,6.24,6.24,6.24,6.24,6.24,6.24,6.24,6.2618,6.299,6.3477,6.3971,6.4681,6.5683,6.5933,6.6305,6.6791,6.6791,6.6791,6.6791,6.6791,6.6791,6.6791,6.6791,6.6791,0.0,0.0,0.0,2.6417,2.6986,2.8397,3.5459,3.5685,3.5296,3.8584,4.0337,4.1283,4.1373,4.2462,4.329,4.329,4.329,4.329,4.329,4.329,4.3818,4.5125,4.5304,4.5813,4.7189,4.7309,4.7309,0.0,4.7309,4.7309,4.7309,4.7309,4.7309,4.7309,4.7309,4.7309,4.7309,4.7309,4.7309,4.7309,4.7309,4.7309,4.7339,4.7997,4.8678,4.9307,4.992,5.0196,5.0278,5.0936,5.1229,5.1363,5.2508,5.2967,5.3143,5.4295,5.4693,5.4693,5.4693,5.4693,5.4789,5.5526,5.5762,5.5911,5.6638,5.7311,5.8129,5.9303,6.0121,6.0933,6.209,6.24,6.24,6.24,6.24,6.24,6.24,6.24,6.24,6.24,6.24,6.24,6.24,6.24,6.24,6.24,6.24,6.24,6.24,6.24,6.24,6.24,6.24,6.2415,6.2434,6.3091,6.3511,6.3545,6.4918,6.5717,6.5751,6.644,6.6791,6.6791,6.6791,6.6791,6.6791,6.6791,6.6791,6.6791,6.6791,6.6791,1.9648,0.0,0.0,0.0,0.0,0.0,2.8906,3.0296,3.2033,3.5818,3.7255,3.8589,4.0954,4.2462,4.329,4.329,4.329,4.329,4.329,4.329,4.3818,4.5125,4.5304,4.5813,4.7189,0.0,0.0,0.0,4.7309,4.7309,4.7309,4.7309,4.7309,4.7309,4.7309,4.7309,4.7309,4.7309,4.7309,4.7309,4.7309,4.7309,4.7339,4.7997,4.8678,4.9307,4.992,5.0488,5.0936,5.1116,5.1681,5.2553,5.3677,5.4598,5.5417,5.6567,5.7015,5.7015,5.7015,5.7015,5.6982,5.6934,5.7209,5.7566,5.7538,5.8605,5.9876,6.0226,6.1089,6.1991,6.2322,6.24,6.24,6.24,6.24,6.24,6.24,6.24,6.24,6.24,6.24,6.24,6.24,6.24,6.24,6.24,6.24,6.24,6.24,6.24,6.24,6.24,6.24,6.2618,6.3159,6.3376,6.3971,6.5019,6.5459,6.5933,6.6474,6.669,6.6791,6.6791,6.6791,6.6791,6.6791,6.6791,6.6791,6.6791,6.6791,6.6791,1.9708,1.9708,2.0007,2.1225,0.0,0.0,2.8068,2.9338,3.1045,3.6071,3.7883,3.9128,4.1044,4.2462,4.329,4.329,4.329,4.329,4.329,4.329,4.3698,4.4766,4.5125,4.5723,0.0,4.716,4.7309,4.7309,4.7309,4.7309,4.7309,4.7309,4.7309,4.7309,4.7309,4.7309,4.7309,4.7309,4.7309,4.7309,4.7309,4.7309,4.7361,4.8754,4.96,5.0026,5.0954,5.1833,5.2597,5.2109,5.2282,5.3077,5.464,5.5671,5.634,5.7498,5.79,5.79,5.79,5.8084,5.8364,5.8485,5.8972,5.9565,5.9688,6.0485,6.1358,6.1358,6.1857,6.24,6.24,6.24,6.24,6.24,6.24,6.24,6.24,6.24,6.24,6.24,6.24,6.24,6.24,6.24,6.24,6.24,6.24,6.24,6.24,6.2651,6.2753,6.2434,6.2956,6.3362,6.3477,6.4052,6.4783,6.5649,6.5967,6.6339,6.6757,6.6791,6.6791,6.6791,6.6791,6.6791,6.6791,6.6791,6.6791,6.6791,6.6791,6.6791,1.9968,1.9977,2.0427,2.2074,2.1295,0.0,2.9491,2.9894,3.0476,3.6699,3.8931,3.9906,4.0325,4.1474,4.2322,4.2213,4.2572,4.2961,4.326,4.329,4.3549,4.4207,4.4885,0.0,4.6241,4.6899,4.7309,4.7309,4.7309,4.7309,4.7309,4.7309,4.7309,4.7309,4.7309,4.7309,4.7309,4.7309,4.7309,4.7309,4.7309,4.7339,4.7502,4.9852,5.0919,5.1074,5.2464,5.3656,5.4526,5.3634,5.3265,5.3461,5.5438,5.6282,5.6528,5.7536,5.79,5.79,5.79,5.8389,5.9115,5.9877,6.0655,6.1434,6.2178,6.24,6.24,6.24,6.24,6.24,6.24,6.24,6.24,6.24,6.24,6.24,6.24,6.24,6.24,6.24,6.24,6.24,6.24,6.24,6.24,6.24,6.24,6.24,6.24,6.3057,6.326,6.2584,6.3768,6.4377,6.3781,6.4952,6.5751,6.5818,6.644,6.6791,6.6791,6.6791,6.6791,6.6791,6.6791,6.6791,6.6791,6.6791,6.6791,6.6791,6.6791,6.6791,2.1724,2.1704,2.1954,2.1266,2.1964,0.0,2.2971,2.3131,2.4369,2.8278,2.9309,3.0476,3.3664,3.531,3.6044,3.5489,3.8075,4.0917,4.2991,4.329,4.3549,4.4207,4.4885,0.0,4.6241,4.6899,4.7309,4.7309,4.7309,4.7309,4.7309,4.7309,4.7309,4.7309,4.7309,4.7309,4.7309,4.7309,4.7309,4.7309,4.7309,4.7578,4.8161,5.0067,5.1198,5.1809,5.3544,5.44,5.4651,5.5296,5.5558,5.5598,5.6047,5.6758,5.7591,5.7827,5.79,5.79,5.79,5.8389,5.9115,5.9877,6.0655,6.1434,6.2178,6.24,6.24,6.24,6.24,6.24,6.24,6.24,6.24,6.24,6.24,6.24,6.24,6.24,6.24,6.24,6.24,6.24,6.24,6.24,6.24,6.24,6.24,6.24,6.24,6.3057,6.3443,6.3274,6.4072,6.4783,6.5222,6.5527,6.5933,6.6542,6.6724,6.6791,6.6791,6.6791,6.6791,6.6791,6.6791,6.6791,6.6791,6.6791,6.6791,6.6791,6.6791,6.6791,2.1834,2.1455,2.1695,2.1695,2.1934,0.0,0.0,2.3389,2.4257,2.8235,2.8786,2.9355,3.2004,3.3066,3.3604,3.3949,3.6746,3.914,3.981,4.1874,4.3409,4.3758,0.0,0.0,4.5783,4.6711,4.7309,4.7309,4.7309,4.7309,4.7309,4.7309,4.7309,4.7309,4.7309,4.7309,4.7309,4.7309,4.7309,4.7309,4.7309,4.7638,4.8363,5.0693,5.2103,5.2839,5.4639,5.573,5.6237,5.6204,5.6547,5.7039,5.7039,5.7391,5.79,5.79,5.79,5.7967,5.8321,5.893,5.9674,6.0452,6.1231,6.1907,6.2299,6.24,6.24,6.24,6.24,6.24,6.24,6.24,6.24,6.24,6.24,6.24,6.24,6.24,6.24,6.24,6.24,6.24,6.24,6.24,6.24,6.24,6.2719,6.2956,6.2956,6.3903,6.4478,6.4106,6.5053,6.5696,6.5717,6.6034,6.6406,6.6757,6.6791,6.6791,6.6791,6.6791,6.6791,6.6791,6.6791,6.6791,6.6791,6.6791,6.6791,6.6791,6.6791,6.6791,2.2422,2.1834,2.2143,2.2583,2.2263,2.2432,0.0,0.0,0.0,2.867,2.9102,2.9175,3.0402,3.0717,3.112,3.2063,0.0,0.0,0.0,3.8793,0.0,4.1964,0.0,0.0,0.0,4.5723,4.6621,4.7249,4.6711,4.6621,4.7279,4.7309,4.7309,4.7309,4.7309,4.7309,4.7309,4.7309,4.7309,4.7309,4.7309,4.7829,4.8887,5.1442,5.3158,5.4184,5.5804,5.7039,5.7827,5.6925,5.7057,5.79,5.79,5.79,5.79,5.79,5.79,5.8035,5.8743,5.9471,6.0216,6.1028,6.1806,6.24,6.24,6.24,6.24,6.24,6.24,6.24,6.24,6.24,6.24,6.24,6.24,6.24,6.24,6.24,6.24,6.24,6.24,6.24,6.24,6.24,6.2468,6.2584,6.3159,6.3612,6.368,6.4884,6.5459,6.4884,6.598,6.6576,6.5967,6.6474,6.6791,6.6791,6.6791,6.6791,6.6791,6.6791,6.6791,6.6791,6.6791,6.6791,6.6791,6.6791,6.6791,6.6791,6.6791,6.6791,2.6081,2.5914,2.6147,2.3392,2.432,2.4968,2.1315,0.0,2.2024,2.1954,0.0,2.2921,2.3691,0.0,0.0,0.0,0.0,0.0,2.9594,3.2961,3.5955,3.7135,4.2013,0.0,0.0,4.286,4.4157,4.707,4.4606,4.4217,4.716,4.7309,4.7309,4.7309,4.7309,4.7309,4.7309,4.7309,4.7309,4.7309,4.7309,4.8464,5.0646,5.2,5.3815,5.5955,5.7189,5.779,5.7881,5.7772,5.779,5.79,5.79,5.79,5.79,5.79,5.79,5.8035,5.8743,5.9471,6.0216,6.1028,6.1806,6.24,6.24,6.24,6.24,6.24,6.24,6.24,6.24,6.24,6.24,6.24,6.24,6.24,6.24,6.24,6.24,6.24,6.24,6.24,6.24,6.24,6.2618,6.3274,6.3666,6.4005,6.441,6.5189,6.5683,6.5561,6.6305,6.6757,6.6656,6.6757,6.6791,6.6791,6.6791,6.6791,6.6791,6.6791,6.6791,6.6791,6.6791,6.6791,6.6791,6.6791,6.6791,6.6791,6.6791,6.6791,2.5782,2.6273,2.6986,2.4448,2.4926,2.5106,2.1645,2.0687,2.0687,2.1186,0.0,0.0,0.0,0.0,0.0,0.0,2.5937,0.0,0.0,0.0,3.3993,0.0,0.0,0.0,0.0,0.0,0.0,0.0,4.4247,4.3828,4.713,4.7309,4.7309,4.7309,4.7309,4.7309,4.7309,4.7309,4.7309,4.7309,4.7698,4.8953,5.093,5.2465,5.4276,5.6263,5.7391,5.79,5.79,5.79,5.79,5.79,5.79,5.79,5.79,5.79,5.8152,5.866,5.9404,6.0148,6.0926,6.167,6.2144,6.24,6.24,6.24,6.24,6.24,6.24,6.24,6.24,6.24,6.24,6.24,6.24,6.24,6.24,6.24,6.24,6.24,6.24,6.2516,6.2956,6.2685,6.2888,6.4343,6.4647,6.485,6.5189,6.5865,6.6339,6.6339,6.6643,6.6791,6.6791,6.6791,6.6791,6.6791,6.6791,6.6791,6.6791,6.6791,6.6791,6.6791,6.6791,6.6791,6.6791,6.6791,6.6791,6.6791,6.6791,6.6791,2.6919,2.744,2.7979,2.5064,2.4814,2.4586,2.1784,2.0956,2.0956,2.1575,2.1645,0.0,0.0,0.0,2.1984,2.2613,0.0,2.5926,0.0,2.7397,3.0612,0.0,0.0,0.0,0.0,0.0,0.0,0.0,0.0,0.0,4.707,4.7309,4.7309,4.7309,4.7309,4.7309,4.7309,4.7309,4.7309,4.7309,4.8287,4.9662,5.1445,5.3253,5.5005,5.6701,5.7554,5.79,5.79,5.79,5.79,5.79,5.79,5.79,5.7915,5.8137,5.8558,5.9148,6.0114,6.0926,6.167,6.2212,6.24,6.24,6.24,6.24,6.24,6.24,6.24,6.24,6.24,6.24,6.24,6.24,6.24,6.24,6.24,6.255,6.2685,6.2685,6.2753,6.299,6.3511,6.3396,6.3666,6.5087,6.5527,6.5797,6.5967,6.6474,6.6791,6.6791,6.6791,6.6791,6.6791,6.6791,6.6791,6.6791,6.6791,6.6791,6.6791,6.6791,6.6791,6.6791,6.6791,6.6791,6.6791,6.6791,6.6791,6.6791,6.6791,6.6791,3.139,3.0837,3.0135,2.4926,2.4137,2.3767,2.0507,2.1704,2.3131,2.1934,2.4189,2.6004,2.4724,2.4474,2.4077,2.2882,2.3291,0.0,0.0,2.2912,2.3991,2.6584,0.0,0.0,0.0,0.0,0.0,0.0,0.0,0.0,4.695,4.7309,4.7309,4.7309,4.7309,4.7309,4.7309,4.7309,4.7309,4.7309,4.9021,5.0817,5.2609,5.4417,5.6202,5.7845,5.7881,5.79,5.79,5.79,5.79,5.79,5.79,5.79,5.7983,5.8693,5.8979,5.9216,6.0757,6.1738,6.2367,6.2381,6.24,6.24,6.24,6.24,6.24,6.24,6.24,6.24,6.24,6.24,6.24,6.24,6.24,6.24,6.24,6.2956,6.3443,6.3443,6.3666,6.3869,6.3869,6.4613,6.5222,6.529,6.6136,6.6757,6.6757,6.6791,6.6791,6.6791,6.6791,6.6791,6.6791,6.6791,6.6791,6.6791,6.6791,6.6791,6.6791,6.6791,6.6791,6.6791,6.6791,6.6791,6.6791,6.6791,6.6791,6.6791,6.6791,6.6791,0.0,0.0,3.3544,2.8218,2.741,2.6692,2.2094,2.2363,2.3251,2.1964,2.3969,2.5525,2.4197,2.4306,2.4186,2.2912,2.358,2.3599,0.0,0.0,0.0,0.0,0.0,0.0,0.0,0.0,0.0,0.0,0.0,0.0,0.0,4.7309,4.7309,4.7309,4.7309,4.7309,4.7309,4.7309,4.7309,4.7331,4.9524,5.1298,5.2681,5.4875,5.6635,5.79,5.79,5.79,5.79,5.79,5.79,5.79,5.79,5.8186,5.866,5.8912,5.9317,5.9945,6.1501,6.2178,6.24,6.24,6.24,6.24,6.24,6.24,6.24,6.24,6.24,6.24,6.24,6.24,6.24,6.24,6.24,6.2516,6.3024,6.3308,6.3646,6.412,6.4309,6.4512,6.5019,6.5358,6.573,6.6237,6.6588,6.6791,6.6791,6.6791,6.6791,6.6791,6.6791,6.6791,6.6791,6.6791,6.6791,6.6791,6.6791,6.6791,6.6791,6.6791,6.6791,6.6791,6.6791,6.6791,6.6791,6.6791,6.6791,6.6791,6.6791,6.6791,3.4741,3.5669,0.0,3.112,3.0492,0.0,2.4908,2.5136,2.6063,2.4788,2.5854,2.72,2.7739,2.644,2.5184,2.4848,2.4298,0.0,0.0,2.1126,0.0,0.0,0.0,0.0,0.0,0.0,0.0,0.0,0.0,0.0,0.0,0.0,4.7309,4.7309,4.7309,4.7309,4.7309,4.7309,4.7309,4.7331,5.0141,5.1889,5.2701,5.5506,5.7222,5.79,5.79,5.79,5.79,5.79,5.79,5.7934,5.8186,5.8592,5.9013,5.9284,6.0047,6.1061,6.2042,6.24,6.24,6.24,6.24,6.24,6.24,6.24,6.2468,6.2719,6.2584,6.2448,6.2719,6.2584,6.2468,6.2719,6.2787,6.299,6.3714,6.4106,6.441,6.4884,6.5189,6.5527,6.6,6.6102,6.6237,6.6745,6.6791,6.6791,6.6791,6.6791,6.6791,6.6791,6.6791,6.6791,6.6791,6.6791,6.6791,6.6791,6.6791,6.6791,6.6791,6.6791,6.6791,6.6791,6.6791,6.6791,6.6791,6.6791,6.6791,6.6791,6.6791,6.6927]}]]